[[{"header":{"parameterUnit":"m.s-1","parameterCategory":1,"la1":30.6,"la2":29.2853,"lo1":-89.7004,"lo2":-87.6739,"dy":0.0162,"dx":0.0183,"nx":112,"ny":82,"refTime":"2025-05-15T00:00:00:Z","depth":0,"parameterNumber":2,"parameterNumberName":"U-component_of_WINDS"},"data":[0.0,0.0,0.0,0.0,0.0,0.0,0.0,0.0,0.0,0.0,0.0,0.0,0.0,0.0,0.0,0.0,0.0,0.0,0.0,0.0,0.0,0.0,0.0,0.0,0.0,0.0,0.0,0.0,0.0,0.0,0.0,0.0,0.0,0.0,0.0,0.0,0.0,0.0,0.0,0.0,0.0,0.0,0.0,0.0,0.0,0.0,0.0,0.0,0.0,0.0,0.0,0.0,0.0,0.0,0.0,0.0,0.0,0.0,0.0,0.0,0.0,0.0,0.0,0.0,0.0,0.0,0.0,0.0,0.0,0.0,0.0,0.0,0.0,0.0,0.0,0.0,0.0,0.0,0.0,0.0,0.0,0.0,0.0,0.0,0.0,0.0,0.0,0.0,0.0,0.0,0.0,-1.715,-1.8805,-1.9744,-1.9617,-1.9657,-1.8394,-1.536,0.0,0.0,0.0,0.0,0.0,0.0,0.0,0.0,0.0,0.0,0.0,0.0,0.0,0.0,0.0,0.0,0.0,0.0,0.0,0.0,0.0,0.0,0.0,0.0,0.0,0.0,0.0,0.0,0.0,0.0,0.0,0.0,0.0,0.0,0.0,0.0,0.0,0.0,0.0,0.0,0.0,0.0,0.0,0.0,0.0,0.0,0.0,0.0,0.0,0.0,0.0,0.0,0.0,0.0,0.0,0.0,0.0,0.0,0.0,0.0,0.0,0.0,0.0,0.0,0.0,0.0,0.0,0.0,0.0,0.0,0.0,0.0,0.0,0.0,0.0,0.0,0.0,0.0,0.0,0.0,0.0,0.0,0.0,0.0,0.0,0.0,0.0,0.0,0.0,0.0,0.0,0.0,0.0,0.0,0.0,0.0,0.0,0.0,0.0,0.0,0.0,0.0,0.0,0.0,-1.5949,-1.8961,-1.9546,-1.9581,-1.9232,-1.9493,-1.8621,-1.6088,0.0,0.0,0.0,0.0,0.0,0.0,0.0,0.0,0.0,0.0,0.0,0.0,0.0,0.0,0.0,0.0,0.0,0.0,0.0,0.0,0.0,0.0,0.0,0.0,0.0,0.0,0.0,0.0,0.0,0.0,0.0,0.0,0.0,0.0,0.0,0.0,0.0,0.0,0.0,0.0,0.0,0.0,0.0,0.0,0.0,0.0,0.0,0.0,0.0,0.0,0.0,0.0,0.0,0.0,0.0,0.0,0.0,0.0,0.0,0.0,0.0,0.0,0.0,0.0,0.0,0.0,0.0,0.0,0.0,0.0,0.0,0.0,0.0,0.0,0.0,0.0,0.0,0.0,0.0,0.0,0.0,0.0,0.0,0.0,0.0,0.0,0.0,0.0,0.0,0.0,0.0,0.0,0.0,0.0,0.0,0.0,0.0,0.0,0.0,0.0,0.0,0.0,0.0,-1.5477,-1.6505,-1.91,-1.9365,-1.9306,-1.912,-1.9472,-1.85,-1.568,-1.4457,0.0,0.0,0.0,0.0,0.0,0.0,0.0,0.0,0.0,0.0,0.0,0.0,0.0,0.0,0.0,0.0,0.0,0.0,0.0,0.0,0.0,0.0,0.0,0.0,0.0,0.0,0.0,0.0,0.0,0.0,0.0,0.0,0.0,0.0,0.0,0.0,0.0,0.0,0.0,0.0,0.0,0.0,0.0,0.0,0.0,0.0,0.0,0.0,0.0,0.0,0.0,0.0,0.0,0.0,0.0,0.0,0.0,0.0,0.0,0.0,0.0,0.0,0.0,0.0,0.0,0.0,0.0,0.0,0.0,0.0,0.0,0.0,0.0,0.0,0.0,0.0,0.0,0.0,0.0,0.0,0.0,0.0,0.0,0.0,0.0,0.0,0.0,0.0,0.0,0.0,0.0,0.0,0.0,0.0,0.0,0.0,0.0,0.0,0.0,0.0,0.0,0.0,-1.7068,-1.7498,-1.8941,-1.9101,-1.9026,-1.8803,-1.8907,-1.7788,-1.4971,-1.3514,0.0,0.0,0.0,0.0,0.0,0.0,0.0,0.0,0.0,0.0,0.0,0.0,0.0,0.0,0.0,0.0,0.0,0.0,0.0,0.0,0.0,0.0,0.0,0.0,0.0,0.0,0.0,0.0,0.0,0.0,0.0,0.0,0.0,0.0,0.0,0.0,0.0,0.0,0.0,0.0,0.0,0.0,0.0,0.0,0.0,0.0,0.0,0.0,0.0,0.0,0.0,0.0,0.0,0.0,0.0,0.0,0.0,0.0,0.0,0.0,0.0,0.0,0.0,0.0,0.0,0.0,0.0,0.0,0.0,0.0,0.0,0.0,0.0,0.0,0.0,0.0,0.0,0.0,0.0,0.0,0.0,0.0,0.0,0.0,0.0,0.0,0.0,0.0,0.0,0.0,0.0,0.0,0.0,0.0,0.0,0.0,0.0,0.0,0.0,0.0,0.0,0.0,-1.7999,-1.9345,-1.9124,-1.9101,-1.8765,-1.7948,-1.7302,-1.6123,-1.4279,-1.2265,0.0,0.0,0.0,0.0,0.0,0.0,0.0,0.0,0.0,0.0,0.0,0.0,0.0,0.0,0.0,0.0,0.0,0.0,0.0,0.0,0.0,0.0,0.0,0.0,0.0,0.0,0.0,0.0,0.0,0.0,0.0,0.0,0.0,0.0,0.0,0.0,0.0,0.0,0.0,0.0,0.0,0.0,0.0,0.0,0.0,0.0,0.0,0.0,0.0,0.0,0.0,0.0,0.0,0.0,0.0,0.0,0.0,0.0,0.0,0.0,0.0,0.0,0.0,0.0,0.0,0.0,0.0,0.0,0.0,0.0,0.0,0.0,0.0,0.0,0.0,0.0,0.0,0.0,0.0,0.0,0.0,0.0,0.0,0.0,0.0,0.0,0.0,0.0,0.0,0.0,0.0,0.0,0.0,0.0,0.0,0.0,0.0,0.0,0.0,0.0,0.0,0.0,-1.6708,-1.7697,0.0,-1.8461,-1.8266,-1.8246,-1.7969,-1.6919,-1.48,0.0,0.0,0.0,0.0,0.0,0.0,0.0,0.0,0.0,0.0,0.0,0.0,0.0,0.0,0.0,0.0,0.0,0.0,0.0,0.0,0.0,0.0,0.0,0.0,0.0,0.0,0.0,0.0,0.0,0.0,0.0,0.0,0.0,0.0,0.0,0.0,0.0,0.0,0.0,0.0,0.0,0.0,0.0,0.0,0.0,0.0,0.0,0.0,0.0,0.0,0.0,0.0,0.0,0.0,0.0,0.0,0.0,0.0,0.0,0.0,0.0,0.0,0.0,0.0,0.0,0.0,0.0,0.0,0.0,0.0,0.0,0.0,0.0,0.0,0.0,0.0,0.0,0.0,0.0,0.0,0.0,0.0,0.0,0.0,0.0,0.0,0.0,0.0,0.0,0.0,0.0,0.0,0.0,0.0,0.0,0.0,0.0,0.0,0.0,0.0,0.0,0.0,-1.558,-1.6514,-1.7329,0.0,-1.8206,-1.8028,-1.8068,-1.7763,-1.6715,-1.4735,0.0,0.0,0.0,0.0,0.0,0.0,0.0,0.0,0.0,0.0,0.0,0.0,0.0,0.0,0.0,0.0,0.0,0.0,0.0,0.0,0.0,0.0,0.0,0.0,0.0,0.0,0.0,0.0,0.0,0.0,0.0,0.0,0.0,0.0,0.0,0.0,0.0,0.0,0.0,0.0,0.0,0.0,0.0,0.0,0.0,0.0,0.0,0.0,0.0,0.0,0.0,0.0,0.0,0.0,0.0,0.0,0.0,0.0,0.0,0.0,0.0,0.0,0.0,0.0,0.0,0.0,0.0,0.0,0.0,0.0,0.0,0.0,0.0,0.0,0.0,0.0,0.0,0.0,0.0,0.0,0.0,0.0,0.0,0.0,0.0,0.0,0.0,0.0,0.0,0.0,0.0,0.0,0.0,0.0,0.0,0.0,0.0,0.0,0.0,0.0,0.0,0.0,-1.592,-1.7879,-1.8917,-1.8519,-1.8481,-1.8127,-1.7282,-1.6166,-1.5034,0.0,0.0,0.0,0.0,0.0,0.0,0.0,0.0,0.0,0.0,0.0,0.0,0.0,0.0,0.0,0.0,0.0,0.0,0.0,0.0,0.0,0.0,0.0,0.0,0.0,0.0,0.0,0.0,0.0,0.0,0.0,0.0,0.0,0.0,0.0,0.0,0.0,0.0,0.0,0.0,0.0,0.0,0.0,0.0,0.0,0.0,0.0,0.0,0.0,0.0,0.0,0.0,0.0,0.0,0.0,0.0,0.0,0.0,0.0,0.0,0.0,0.0,0.0,0.0,0.0,0.0,0.0,0.0,0.0,0.0,0.0,0.0,0.0,0.0,0.0,0.0,0.0,0.0,0.0,0.0,0.0,0.0,0.0,0.0,0.0,0.0,0.0,0.0,0.0,0.0,0.0,0.0,0.0,0.0,0.0,0.0,0.0,0.0,0.0,0.0,0.0,0.0,0.0,0.0,-1.7199,-1.8127,-1.8008,-1.776,-1.7598,-1.7618,-1.7048,-1.5987,-1.433,0.0,0.0,0.0,0.0,0.0,0.0,0.0,0.0,0.0,0.0,0.0,0.0,0.0,0.0,0.0,0.0,0.0,0.0,0.0,0.0,0.0,0.0,0.0,0.0,0.0,0.0,0.0,0.0,0.0,0.0,0.0,0.0,0.0,0.0,0.0,0.0,0.0,0.0,0.0,0.0,0.0,0.0,0.0,0.0,0.0,0.0,0.0,0.0,0.0,0.0,0.0,0.0,0.0,0.0,0.0,0.0,0.0,0.0,0.0,0.0,0.0,0.0,0.0,0.0,0.0,0.0,0.0,0.0,0.0,0.0,0.0,0.0,0.0,0.0,0.0,0.0,0.0,0.0,0.0,0.0,0.0,0.0,0.0,0.0,0.0,0.0,0.0,0.0,0.0,0.0,0.0,0.0,0.0,0.0,0.0,0.0,0.0,0.0,0.0,0.0,0.0,0.0,-1.5526,-1.7183,-1.8079,-1.7828,-1.7799,-1.7728,-1.757,-1.7344,-1.6415,-1.4614,0.0,0.0,0.0,0.0,0.0,0.0,0.0,0.0,0.0,0.0,0.0,0.0,0.0,0.0,0.0,0.0,0.0,0.0,0.0,0.0,0.0,0.0,0.0,0.0,0.0,0.0,0.0,0.0,0.0,0.0,0.0,0.0,0.0,0.0,0.0,0.0,0.0,0.0,0.0,0.0,0.0,0.0,0.0,0.0,0.0,0.0,0.0,0.0,0.0,0.0,0.0,0.0,0.0,0.0,0.0,0.0,0.0,0.0,0.0,0.0,0.0,0.0,0.0,0.0,0.0,0.0,0.0,0.0,0.0,0.0,0.0,0.0,0.0,0.0,0.0,0.0,0.0,0.0,0.0,0.0,0.0,0.0,0.0,0.0,0.0,0.0,0.0,0.0,0.0,0.0,0.0,0.0,0.0,0.0,0.0,0.0,0.0,0.0,0.0,0.0,0.0,0.0,-1.573,-1.7591,-1.8451,-1.7815,-1.8287,-1.8261,-1.7293,-1.7199,-1.648,-1.4781,0.0,0.0,0.0,0.0,0.0,0.0,0.0,0.0,0.0,0.0,0.0,0.0,0.0,0.0,0.0,0.0,0.0,0.0,0.0,0.0,0.0,0.0,0.0,0.0,0.0,0.0,0.0,0.0,0.0,0.0,0.0,0.0,0.0,0.0,0.0,0.0,0.0,0.0,0.0,0.0,0.0,0.0,0.0,0.0,0.0,0.0,0.0,0.0,0.0,0.0,0.0,0.0,0.0,0.0,0.0,0.0,0.0,0.0,0.0,0.0,-1.6815,0.0,0.0,0.0,0.0,0.0,0.0,0.0,0.0,0.0,0.0,0.0,0.0,0.0,0.0,0.0,0.0,0.0,0.0,0.0,0.0,0.0,0.0,0.0,0.0,0.0,0.0,0.0,0.0,0.0,0.0,0.0,0.0,0.0,0.0,0.0,0.0,0.0,0.0,0.0,0.0,0.0,-1.5422,-1.7424,-1.8346,-1.7438,-1.7871,-1.7947,-1.7251,-1.7199,-1.6663,-1.5382,0.0,0.0,0.0,0.0,0.0,0.0,0.0,0.0,0.0,0.0,0.0,0.0,0.0,0.0,0.0,0.0,0.0,0.0,0.0,0.0,0.0,0.0,0.0,0.0,0.0,0.0,0.0,0.0,0.0,0.0,0.0,0.0,0.0,0.0,0.0,0.0,0.0,0.0,0.0,0.0,0.0,0.0,0.0,0.0,0.0,0.0,0.0,0.0,0.0,0.0,0.0,0.0,0.0,0.0,0.0,0.0,0.0,0.0,0.0,0.0,0.0,-1.7809,0.0,0.0,0.0,0.0,0.0,0.0,0.0,0.0,0.0,0.0,0.0,0.0,0.0,0.0,0.0,0.0,0.0,0.0,0.0,0.0,0.0,0.0,0.0,0.0,0.0,0.0,0.0,0.0,0.0,0.0,0.0,0.0,0.0,0.0,0.0,0.0,0.0,0.0,0.0,0.0,-1.6061,-1.7776,-1.8601,-1.807,-1.8296,-1.8244,-1.7682,-1.7369,-1.6921,-1.6251,-1.4932,0.0,0.0,0.0,0.0,0.0,0.0,0.0,0.0,0.0,0.0,0.0,0.0,0.0,0.0,0.0,0.0,0.0,0.0,0.0,0.0,0.0,0.0,0.0,0.0,0.0,0.0,0.0,0.0,0.0,0.0,0.0,0.0,0.0,0.0,0.0,0.0,0.0,0.0,0.0,0.0,0.0,0.0,0.0,0.0,0.0,0.0,0.0,0.0,0.0,0.0,0.0,0.0,0.0,-2.2151,-2.2783,-2.3293,-2.397,-2.433,-2.4283,-2.1267,-2.0115,-2.0241,0.0,0.0,0.0,0.0,0.0,0.0,0.0,0.0,0.0,0.0,0.0,0.0,0.0,0.0,0.0,0.0,0.0,0.0,0.0,0.0,0.0,0.0,0.0,0.0,0.0,-2.0639,-2.0632,0.0,0.0,0.0,0.0,0.0,0.0,0.0,0.0,0.0,0.0,0.0,0.0,-1.6879,-1.8271,-1.9002,-1.8898,-1.8911,-1.8689,-1.814,-1.7552,-1.7154,-1.7039,-1.571,-1.4584,0.0,0.0,0.0,0.0,0.0,0.0,0.0,0.0,0.0,0.0,0.0,0.0,0.0,0.0,0.0,0.0,0.0,0.0,0.0,0.0,0.0,0.0,0.0,0.0,0.0,0.0,0.0,0.0,0.0,0.0,0.0,0.0,-1.5009,-1.6659,0.0,0.0,0.0,0.0,0.0,0.0,0.0,0.0,0.0,0.0,0.0,0.0,0.0,0.0,-2.1649,-2.4007,-2.4618,-2.3509,-2.4823,-2.5187,-2.4752,-2.5408,-2.6072,-2.6625,-2.5519,0.0,-2.2422,-2.1528,0.0,0.0,0.0,0.0,0.0,0.0,0.0,0.0,0.0,0.0,0.0,0.0,0.0,0.0,0.0,0.0,0.0,0.0,0.0,0.0,0.0,0.0,-2.1886,-2.1758,-2.1877,-2.182,0.0,-1.9226,-1.7213,-1.5953,-1.497,0.0,0.0,0.0,0.0,0.0,0.0,0.0,-1.7012,-1.8555,-1.9342,-1.8943,-1.8911,-1.8689,-1.814,-1.7552,-1.718,-1.7164,-1.6546,-1.5886,-1.5269,-1.3504,0.0,0.0,0.0,0.0,0.0,0.0,0.0,0.0,0.0,0.0,0.0,0.0,0.0,0.0,0.0,0.0,0.0,0.0,0.0,0.0,0.0,0.0,0.0,0.0,0.0,0.0,0.0,0.0,0.0,-1.4648,-1.6878,-1.8458,-1.8651,-1.8613,0.0,0.0,0.0,0.0,0.0,0.0,0.0,0.0,0.0,-2.1159,-2.2867,-2.3952,-2.4331,-2.5864,-2.6893,-2.7446,-2.8063,-2.8395,-2.8489,-2.879,-2.9106,-2.9406,-2.9051,-2.7703,-2.5606,-2.4146,-2.2713,-2.1355,0.0,0.0,0.0,0.0,-2.0553,-2.0753,-2.2182,-2.2471,0.0,0.0,0.0,0.0,0.0,0.0,0.0,0.0,0.0,0.0,0.0,0.0,0.0,-2.3213,-2.3555,-2.359,-2.2667,-2.1538,-2.0295,0.0,-1.762,-1.6318,-1.4963,0.0,0.0,0.0,0.0,0.0,-1.7996,-1.9302,-2.0165,-2.0291,-1.9921,-1.951,-1.9052,-1.8091,-1.7537,-1.7537,-1.71,-1.679,-1.6637,-1.5153,-1.3673,0.0,0.0,0.0,0.0,0.0,0.0,0.0,0.0,0.0,0.0,0.0,0.0,0.0,0.0,0.0,0.0,0.0,0.0,0.0,0.0,0.0,0.0,0.0,0.0,0.0,0.0,0.0,0.0,-1.6633,-1.8721,-2.0117,-2.0616,-2.0729,0.0,0.0,0.0,0.0,0.0,0.0,-2.1984,-2.357,-2.4263,-2.3892,-2.5461,-2.6488,-2.6777,-2.7699,-2.8837,-3.0204,-3.0204,-3.0449,-3.0954,-3.0954,-3.1049,-3.1182,-3.1033,-3.0108,-2.8582,-2.654,-2.4705,-2.318,-2.3063,-2.2381,-2.1579,-2.2678,-2.3055,-2.3302,-2.501,-2.5472,-2.5189,-2.4564,0.0,-2.3044,-2.135,0.0,0.0,0.0,0.0,-2.1756,-2.2755,-2.3503,-2.4101,-2.4499,-2.4981,-2.505,-2.3903,-2.3435,-2.2816,0.0,-2.0009,-1.8812,-1.769,0.0,0.0,0.0,0.0,-1.8072,-1.9351,-2.0193,-2.0918,-2.151,-2.0711,-2.0079,-1.9875,-1.8582,-1.7848,-1.7968,-1.7598,-1.7518,-1.7843,-1.6461,-1.5113,-1.3808,0.0,0.0,0.0,0.0,0.0,0.0,0.0,0.0,0.0,0.0,0.0,0.0,0.0,0.0,0.0,0.0,0.0,0.0,0.0,0.0,0.0,0.0,0.0,0.0,0.0,0.0,0.0,0.0,0.0,-2.1779,-2.3128,0.0,0.0,0.0,0.0,-2.4034,-2.4142,-2.434,-2.4779,-2.6376,-2.6715,-2.5438,-2.8347,-2.9611,-2.8956,-3.0298,-3.0733,-3.0204,-3.0204,-3.022,-3.0251,-3.0251,-3.0591,-3.1151,-3.0528,-3.0543,-3.0842,-2.8583,-2.6404,-2.4496,-2.4292,-2.4261,-2.4353,-2.4924,-2.5142,-2.525,-2.6057,-2.5887,-2.5496,-2.678,-2.6734,-2.6026,-2.5256,-2.4564,0.0,0.0,-2.4449,-2.4884,-2.4946,-2.5422,-2.5841,-2.5734,-2.5741,-2.5718,-2.5503,-2.4971,-2.3976,0.0,-2.1634,-2.1301,-2.0594,0.0,-1.9924,-1.9856,-1.9524,-1.974,-2.1004,-2.1184,-2.1391,-2.2002,-2.0657,-1.9875,-2.0237,-1.8748,-1.7988,-1.8442,-1.8028,-1.808,-1.8812,-1.7001,-1.5804,-1.538,-1.3126,0.0,0.0,0.0,0.0,0.0,0.0,0.0,0.0,0.0,0.0,0.0,0.0,0.0,0.0,0.0,0.0,0.0,0.0,0.0,0.0,0.0,0.0,0.0,0.0,0.0,0.0,0.0,0.0,-2.392,-2.5013,0.0,0.0,-2.5614,-2.5478,-2.5497,-2.6131,-2.6665,-2.6965,-2.8431,-2.9009,-2.8544,-2.961,-3.0275,-3.044,-3.0946,-3.1539,-3.2187,-3.2187,-3.2187,-3.2187,-3.2187,-3.2329,-3.255,-3.2297,-3.1958,-3.1528,-3.0717,-2.9475,-2.8058,-2.7891,-2.755,-2.7209,-2.7727,-2.7926,-2.8033,-2.8735,-2.8787,-2.851,-2.8165,-2.758,-2.6903,-2.6157,-2.5773,-2.5588,-2.5641,-2.5465,-2.5453,-2.6343,-2.6344,-2.6199,-2.6509,-2.652,-2.6281,-2.5728,-2.5397,-2.5046,-2.4387,-2.3212,-2.2134,-2.1455,-2.1238,-2.0917,-2.0216,-2.0619,-2.1069,-2.127,-2.1873,-2.2374,-2.2575,-2.2011,-2.141,-2.0851,-1.9869,-1.9055,-1.8528,-1.8266,-1.835,-1.8874,-1.7854,-1.699,-1.6352,-1.4624,-1.2773,0.0,0.0,0.0,0.0,0.0,0.0,0.0,0.0,0.0,0.0,0.0,0.0,0.0,0.0,0.0,0.0,0.0,0.0,0.0,0.0,0.0,0.0,0.0,0.0,0.0,0.0,-2.3758,-2.5471,-2.6513,-2.7274,-2.7721,-2.777,-2.7708,-2.7555,-2.8612,-2.9177,-2.8992,-3.0351,-3.1015,-3.0744,-3.1084,-3.146,-3.1918,-3.1918,-3.2392,-3.3309,-3.3309,-3.3309,-3.3309,-3.3309,-3.3309,-3.3309,-3.3309,-3.2919,-3.2311,-3.2311,-3.1814,-3.0977,-3.0283,-2.9683,-2.9259,-2.9606,-2.9725,-2.9787,-3.0248,-3.0402,-3.0248,-2.9356,-2.8781,-2.8319,-2.7834,-2.768,-2.7695,-2.775,-2.7195,-2.6811,-2.7723,-2.7352,-2.6822,-2.7128,-2.7112,-2.6934,-2.6387,-2.6093,-2.5944,-2.5944,-2.4522,-2.3191,-2.2757,-2.2488,-2.2107,-2.1383,-2.1835,-2.2185,-2.2083,-2.2547,-2.2957,-2.3113,-2.2728,-2.2156,-2.1383,-2.0562,-1.9764,-1.8922,-1.8635,-1.866,-1.902,-1.8154,-1.7379,-1.6792,-1.5012,-1.3488,-1.2266,0.0,0.0,0.0,0.0,0.0,0.0,0.0,0.0,0.0,0.0,0.0,0.0,0.0,0.0,0.0,0.0,0.0,0.0,0.0,0.0,0.0,0.0,0.0,-2.2095,-2.399,-2.5649,-2.6432,-2.7745,-2.8605,-2.8639,-2.9247,-2.9891,-3.0448,-3.1636,-3.1892,-3.0856,-3.2199,-3.2676,-3.1927,-3.2819,-3.334,-3.3372,-3.3372,-3.3372,-3.3372,-3.3372,-3.3372,-3.3372,-3.3372,-3.3372,-3.3372,-3.3372,-3.3372,-3.3345,-3.3314,-3.3234,-3.2933,-3.117,-3.0463,-3.0463,-3.0463,-3.0463,-3.0463,-3.0463,-3.0463,-3.0448,-3.0432,-3.0432,-3.0432,-3.0402,-3.0402,-3.0402,-3.0402,-2.9833,-2.9185,-2.9057,-2.8445,-2.7806,-2.765,-2.7625,-2.7625,-2.76,-2.7091,-2.6641,-2.6641,-2.557,-2.4664,-2.4634,-2.4066,-2.3625,-2.3625,-2.3238,0.0,-2.353,-2.3201,-2.3091,-2.3551,-2.2664,-2.1961,-2.1764,-2.0764,-1.9986,-1.9649,-1.9199,-1.9039,-1.9302,-1.788,-1.695,-1.6729,-1.4292,-1.3143,-1.3421,0.0,0.0,0.0,0.0,0.0,0.0,0.0,0.0,0.0,0.0,0.0,0.0,0.0,0.0,0.0,0.0,0.0,0.0,0.0,0.0,0.0,0.0,-2.3852,-2.4383,-2.5915,-2.7432,-2.8711,-3.0126,-3.1165,-3.1647,-3.2388,-3.2653,-3.223,-3.2904,-3.3106,-3.261,-3.2983,-3.3508,-3.4154,-3.4064,-3.4273,-3.481,-3.481,-3.481,-3.481,-3.481,-3.481,-3.481,-3.481,-3.481,-3.481,-3.481,-3.4683,-3.4413,-3.394,-3.3571,-3.324,-3.2501,-3.2133,-3.1967,-3.1886,-3.1859,-3.1859,-3.1859,-3.1859,-3.1767,-3.1274,-3.112,-3.1028,-3.054,-3.0402,-3.0402,-3.0402,-3.0237,-2.9951,-2.9434,-2.9057,-2.8672,-2.8036,-2.7815,-2.7715,-2.7625,-2.745,-2.733,-2.733,-2.6617,-2.5899,-2.5397,-2.4769,-2.4321,-2.4321,-2.3814,0.0,-2.3573,-2.3486,-2.3465,-2.3588,-2.3344,-2.2965,-2.2458,-2.1719,-2.1024,-2.0426,-1.9771,-1.945,-1.952,-1.8979,-1.8264,-1.7372,-1.6007,-1.479,0.0,0.0,0.0,0.0,0.0,0.0,0.0,0.0,0.0,0.0,0.0,0.0,0.0,0.0,0.0,0.0,0.0,0.0,0.0,0.0,0.0,0.0,-2.4941,-2.6223,-2.7631,-2.8257,-2.9107,-3.0593,-3.1427,-3.2307,-3.3302,-3.3837,-3.3948,-3.3576,-3.4316,-3.4572,-3.4074,-3.4276,-3.4655,-3.5203,-3.4938,-3.4952,-3.5394,-3.5394,-3.5394,-3.5394,-3.5394,-3.5394,-3.5394,-3.5394,-3.5394,0.0,-3.5394,-3.5294,-3.5077,-3.4685,-3.4373,0.0,0.0,0.0,0.0,0.0,-3.2398,-3.2398,-3.2398,-3.2398,-3.2336,-3.1936,-3.1813,-3.1736,-3.1366,-3.1243,-3.1243,-3.1243,-3.1043,-3.0709,-3.0273,-2.9873,-2.9414,-2.8531,-2.8288,-2.8097,-2.7685,-2.76,-2.76,-2.76,-2.7285,0.0,-2.6497,-2.5435,-2.4605,-2.4605,-2.4022,-2.3595,-2.3595,-2.3595,-2.3595,-2.3595,-2.3595,-2.3355,-2.2748,-2.2104,0.0,0.0,0.0,-1.9438,-1.9066,-1.8928,0.0,0.0,0.0,0.0,0.0,0.0,0.0,0.0,-1.2513,-1.2303,0.0,0.0,0.0,0.0,0.0,0.0,0.0,0.0,0.0,0.0,0.0,0.0,0.0,0.0,0.0,0.0,-2.749,-2.8842,-3.1019,-3.0812,-3.0869,-3.209,-3.2261,-3.2792,-3.4096,-3.4303,-3.4449,-3.4733,-3.5733,-3.6079,-3.5442,0.0,0.0,0.0,0.0,-3.5621,-3.5631,-3.5631,-3.5631,-3.5631,-3.5631,-3.5631,-3.5631,-3.5631,-3.5631,-3.5631,-3.5631,-3.5616,-3.5587,-3.5508,-3.5345,-3.4986,-3.3302,-3.261,-3.2505,-3.2505,-3.2459,-3.2398,-3.2398,0.0,0.0,-3.2398,-3.2398,-3.2398,-3.2398,-3.2398,-3.2398,-3.2398,-3.1967,-3.1463,-3.1267,-3.0765,-3.0086,-2.9055,-2.8811,-2.8604,-2.7785,-2.76,-2.76,-2.76,-2.76,-2.76,-2.76,-2.6063,-2.4799,-2.4724,-2.4126,-2.3684,-2.361,-2.3595,-2.3595,-2.3595,0.0,0.0,-2.2853,-2.2173,-2.1505,-2.0782,-2.0083,-1.9309,-1.8481,-1.8417,-1.8396,-1.8335,-1.7896,-1.7743,-1.7868,-1.7516,-1.6863,-1.5894,-1.3758,-1.3308,0.0,0.0,0.0,0.0,0.0,0.0,0.0,0.0,0.0,0.0,0.0,0.0,0.0,0.0,0.0,-2.7235,-2.9193,-3.0896,-3.2002,-3.2984,-3.3454,-3.3048,-3.3996,-3.4782,-3.4976,-3.5525,-3.6176,-3.6848,-3.6739,-3.6812,-3.7239,-3.7003,0.0,-3.684,-3.6899,-3.6966,-3.7099,-3.7099,-3.7099,-3.7099,0.0,0.0,-3.7099,-3.7099,-3.7099,-3.7099,-3.7099,-3.6995,-3.6814,-3.6277,-3.5611,-3.4906,-3.4441,-3.382,-3.3213,-3.3213,-3.2859,-3.2398,-3.2398,-3.2398,-3.2398,-3.2398,-3.2398,-3.2398,-3.2398,-3.2398,0.0,-3.2398,-3.2305,-3.2074,-3.1509,-3.1263,-3.0784,-2.9305,-2.8955,-2.8707,-2.78,-2.76,-2.76,-2.76,-2.76,-2.76,-2.76,-2.6836,-2.6033,-2.5495,-2.4829,-2.4201,-2.367,-2.3595,-2.3595,-2.3595,-2.3595,-2.355,-2.343,-2.2868,-2.2428,-2.2273,-2.1044,-2.0035,-1.9375,-1.9185,-1.9093,-1.909,-1.889,-1.865,-1.8364,-1.8285,-1.7953,-1.7357,-1.5793,-1.5178,0.0,0.0,0.0,0.0,0.0,0.0,0.0,0.0,0.0,0.0,0.0,-2.3961,0.0,0.0,-2.8028,-2.9769,-3.1036,-3.2213,-3.3389,-3.4457,-3.4979,-3.4517,-3.4972,-3.5477,-3.5835,-3.6498,-3.7081,-3.7478,-3.7585,-3.7865,-3.8345,-3.8118,-3.8077,-3.8199,-3.8231,-3.8137,-3.7899,-3.7915,-3.7756,-3.751,-3.751,-3.751,-3.751,-3.751,-3.751,-3.751,-3.751,-3.7435,-3.7314,-3.6877,-3.6383,-3.5925,-3.576,-3.5007,-3.4037,-3.3966,-3.375,-3.3457,-3.3457,-3.3198,-3.2906,-3.2906,-3.2675,-3.2398,-3.2398,-3.2398,-3.2398,-3.2398,-3.2398,-3.2321,-3.1982,-3.1835,-3.1404,-2.9874,-2.944,-2.9063,-2.786,-2.76,-2.76,-2.76,-2.76,-2.76,-2.76,-2.733,-2.6752,-2.5749,-2.5023,-2.435,-2.3684,-2.3595,-2.3595,-2.3595,-2.3595,-2.3595,-2.3595,-2.3062,-2.2568,-2.2224,-2.1505,-2.0776,-2.0083,-1.996,-1.9704,-1.9302,-1.9228,-1.8969,-1.85,-1.8266,-1.8072,-1.7879,-1.6982,-1.6511,0.0,0.0,0.0,0.0,0.0,0.0,0.0,0.0,-2.3013,-2.4559,-2.5779,-2.6918,-2.8045,-2.9107,-3.0395,-3.2124,-3.2774,-3.3494,-3.474,-3.5547,-3.5962,-3.5959,-3.5727,-3.5864,-3.6641,-3.7197,-3.7616,-3.7909,-3.8496,-3.8906,-3.9114,-3.9238,-3.9261,-3.9199,-3.9295,-3.9065,-3.849,-3.8379,-3.8084,-3.7655,-3.7553,-3.751,-3.751,-3.751,-3.751,-3.751,-3.751,-3.751,-3.748,-3.7329,-3.718,-3.706,-3.6862,-3.6087,-3.511,-3.481,-3.4613,-3.4505,-3.4505,-3.4091,-3.3614,-3.3614,-3.3244,-3.2767,-3.2628,-3.2582,-3.2567,-3.2428,-3.2398,-3.2398,-3.2398,-3.2315,-3.1882,-3.0388,-2.9936,-2.9414,-2.7961,-2.7625,-2.76,-2.76,-2.76,-2.76,-2.76,-2.76,-2.7195,-2.5974,-2.5322,-2.4694,-2.3909,-2.3789,-2.3744,-2.361,-2.3595,-2.3595,-2.3595,-2.3152,-2.2598,-2.1934,-2.1889,-2.1555,-2.0771,-2.0722,-2.0374,-1.974,-1.9688,-1.9464,-1.9024,-1.8627,-1.8487,-1.8577,-1.8187,-1.7764,-2.1297,-2.0307,-2.0224,-2.2376,-2.2428,-2.2837,0.0,0.0,-2.6067,-2.7383,-2.8138,-2.8619,-2.8782,-3.0593,-3.2124,-3.2353,-3.4108,-3.5476,-3.5652,-3.6258,-3.6729,-3.6827,-3.6666,-3.6779,-3.7421,-3.7487,-3.8025,-3.9353,-3.9526,-3.9654,-3.9876,-4.0404,-4.0218,-3.9216,-3.9645,-3.9645,-3.9109,-3.8574,-3.8266,-3.821,-3.7743,-3.751,-3.751,-3.751,-3.751,-3.751,-3.751,-3.751,-3.751,-3.748,-3.745,-3.7421,-3.709,-3.6875,-3.6642,-3.572,-3.5013,-3.4505,-3.4505,-3.4459,-3.4382,-3.4382,-3.4335,-3.415,-3.3475,-3.329,-3.3167,-3.2567,-3.2398,-3.2398,-3.2398,-3.2398,-3.2004,-3.0536,-3.0068,-2.9572,-2.8102,-2.7675,-2.76,-2.76,-2.76,-2.76,-2.76,-2.76,-2.7345,-2.6587,-2.6422,-2.5914,-2.4649,-2.4485,-2.4261,-2.367,-2.3595,-2.3595,-2.3595,-2.3535,-2.3236,-2.2628,-2.2583,-2.2283,-2.1585,-2.1456,-2.1352,-2.1258,-2.1083,-2.0962,-2.0887,-2.0723,-2.0649,-2.0645,-2.0253,-1.9342,-2.4057,0.0,0.0,0.0,-2.5901,-2.6879,-2.8921,-2.8934,-2.8815,-2.9802,-3.0295,-3.0652,-3.1078,-3.219,-3.3318,0.0,-3.5178,-3.595,-3.6426,-3.6738,-3.6948,-3.6989,-3.6826,-3.6803,-3.7057,-3.772,-3.841,-3.9008,-3.9894,-4.0455,-4.0507,-4.0758,-4.0662,-4.0204,-4.0402,-4.0262,-3.9671,-3.9092,-3.8657,-3.8278,-3.7756,-3.751,-3.751,-3.751,-3.751,-3.751,-3.751,-3.751,-3.748,-3.7359,-3.7285,-3.7181,-3.6923,-3.677,-3.6646,-3.6245,-3.5891,-3.5645,-3.5645,-3.5429,-3.509,-3.509,-3.4828,-3.4366,-3.3614,-3.3398,-3.326,-3.2582,-3.2398,-3.2398,-3.2398,-3.2342,-3.2029,-3.1025,-3.0373,-2.972,-2.8717,-2.8087,-2.7715,-2.7715,-2.765,-2.76,-2.76,-2.76,-2.7495,-2.7225,-2.6866,-2.6123,-2.4769,-2.4605,-2.4335,-2.367,-2.3595,-2.3595,-2.3595,-2.3595,-2.349,-2.3236,-2.3206,-2.2936,-2.2313,-2.2222,-2.1982,-2.15,-2.1394,-2.1278,-2.1187,-2.0816,-2.0812,-2.1097,-2.0709,-2.0347,-2.6189,0.0,0.0,-2.7839,-2.8881,-2.9981,-3.0939,-3.1001,-3.1054,-3.1785,-3.1968,-3.217,-3.2706,-3.3368,0.0,-3.5337,-3.5845,-3.6338,-3.6919,-3.7007,-3.7007,-3.7007,-3.6846,-3.6725,-3.6725,-3.7867,-3.8681,-3.8888,-4.0152,-4.0912,-4.0912,-4.0912,-4.0912,-4.0912,-4.0912,-4.0686,-4.0245,-3.9714,-3.9199,-3.8761,-3.8042,-3.7727,-3.7714,-3.7553,-3.751,-3.751,-3.751,-3.751,-3.748,-3.7329,-3.7225,-3.7121,-3.6892,-3.6708,-3.6631,-3.6523,-3.6492,-3.6492,-3.6492,-3.6168,-3.5799,-3.5799,-3.546,-3.4936,-3.4183,-3.3844,-3.3552,-3.2859,-3.2536,-3.2398,-3.2398,-3.2315,-3.2106,-3.1416,-3.0762,-3.0091,-2.924,-2.8561,-2.8067,-2.7886,-2.779,-2.77,-2.765,-2.765,-2.765,-2.7625,-2.7195,-2.6378,-2.5053,-2.4545,-2.4126,-2.3655,-2.3595,-2.3595,-2.3595,-2.3595,-2.3595,-2.3595,-2.3595,-2.34,-2.2972,-2.2957,-2.2676,-2.2096,-2.2008,-2.1925,-2.1833,-2.1369,-2.1339,-2.1721,-2.1396,-2.1435,0.0,0.0,-2.7559,-2.9915,-3.0525,-3.091,-3.2237,-3.254,-3.2669,-3.3143,-3.2993,-3.2777,-3.2795,-3.381,-3.4689,-3.4741,-3.5988,-3.6972,-3.7007,-3.7007,-3.7007,-3.7007,-3.6888,-3.6809,0.0,-3.7893,-3.8888,-3.9612,-4.0422,-4.0912,-4.0912,-4.0912,-4.0912,-4.0912,-4.0912,-4.0894,-4.0871,-4.0286,-3.9978,-3.991,-3.8816,-3.8294,-3.8266,-3.7727,-3.751,-3.751,-3.751,-3.751,-3.751,-3.748,-3.748,-3.745,-3.7121,-3.6984,-3.6954,-3.6616,-3.6492,-3.6492,-3.6492,-3.6476,-3.6461,-3.6461,-3.6445,-3.6307,-3.566,-3.4998,-3.432,-3.3583,-3.2906,-3.2398,-3.2398,-3.2398,-3.2213,-3.1551,-3.1275,-3.08,-2.947,-2.9078,-2.8753,-2.8116,-2.798,-2.7955,-2.7815,-2.779,-2.7765,-2.7625,-2.7585,-2.7091,-2.5749,-2.4433,-2.3625,-2.3595,-2.3595,-2.3595,-2.3595,-2.3595,-2.3595,-2.3595,-2.3595,-2.3595,-2.3565,-2.3565,-2.3565,-2.355,-2.3478,-2.3428,-2.3428,-2.3157,-2.3038,-2.3031,-2.2896,-2.2851,0.0,0.0,-3.063,-3.1919,-3.3055,-3.4111,-3.5099,-3.4907,-3.4567,-3.4734,-3.3652,-3.2978,-3.4,-3.3777,-3.395,-3.551,-3.6457,-3.7007,-3.7007,-3.7865,-3.8146,-3.713,-3.7346,0.0,0.0,0.0,0.0,-3.9168,-3.9863,-4.047,-4.0989,-4.0959,-4.0912,-4.0912,-4.0912,-4.0912,-4.0912,-4.0294,-4.0003,-4.0003,-3.9252,-3.8892,-3.8892,-3.8717,-3.8411,-3.8042,-3.8042,-3.7828,-3.751,-3.751,-3.7435,-3.73,-3.718,-3.7075,-3.6969,-3.6739,-3.6631,-3.6631,-3.6523,-3.6492,-3.6492,-3.6492,-3.6492,-3.6368,-3.5722,-3.5044,-3.4351,-3.3598,-3.2921,-3.2398,-3.2398,-3.2398,-3.2336,-3.2105,-3.1693,-3.1205,-3.076,-2.9873,-2.9083,-2.8829,-2.8358,-2.798,-2.793,-2.7855,-2.7765,-2.7625,-2.7225,-2.6602,-2.5719,-2.4814,-2.4081,-2.3655,-2.3595,-2.3595,-2.3595,-2.3595,-2.3595,-2.3595,-2.3595,-2.3595,-2.3595,-2.3595,-2.3595,-2.3595,-2.3538,-2.3509,-2.3509,-2.3334,-2.3179,-2.3105,-2.306,-2.2992,0.0,-3.1281,-3.279,-3.4093,-3.52,-3.6018,-3.6216,-3.5882,-3.5343,-3.4729,-3.3542,-3.2821,-3.3478,-3.3002,-3.321,-3.5303,-3.6238,-3.6935,-3.7521,-3.8579,-3.8936,-3.7935,-3.819,0.0,0.0,0.0,0.0,-3.9334,-3.9993,-4.0585,-4.1076,-4.1023,-4.0959,-4.0912,-4.0912,-4.0912,-4.0912,-4.0524,-4.022,-4.0003,-3.9645,-3.9375,-3.9206,-3.9206,-3.8974,-3.8629,-3.8629,-3.8311,-3.7786,-3.7786,-3.761,-3.73,-3.7224,-3.715,-3.7044,-3.6862,-3.6754,-3.6693,-3.6554,-3.6492,-3.6492,-3.6492,-3.6492,-3.6415,-3.5984,-3.5398,-3.472,-3.3983,-3.329,-3.269,-3.2459,-3.2398,-3.2398,-3.2398,-3.2059,-3.1701,-3.1455,-3.0652,-2.9925,-2.9684,-2.9027,-2.8494,-2.8444,-2.8106,-2.784,-2.7765,-2.734,-2.6756,-2.6048,-2.5158,-2.4425,-2.4014,-2.3744,-2.3595,-2.3595,-2.3595,-2.3595,-2.3595,-2.3595,-2.3595,-2.3595,-2.3595,-2.3595,-2.3595,-2.3545,-2.3538,-2.3538,-2.3429,-2.3334,-2.3238,-2.3179,-2.3105,-3.2689,-3.3417,-3.4087,-3.6304,-3.6882,-3.6683,-3.582,-3.5566,-3.5027,-3.3354,-3.2705,-3.2173,0.0,0.0,-3.2466,-3.416,-3.5464,-3.6825,-3.8448,-3.9111,-3.9371,0.0,0.0,0.0,0.0,0.0,0.0,-4.014,0.0,-4.1146,-4.1117,-4.1093,-4.1047,-4.0894,-4.0912,-4.0912,-4.0912,-4.0912,-4.0597,-4.0053,-4.0053,-3.9774,-3.9286,-3.9286,-3.9286,-3.9259,-3.9259,-3.8903,-3.8351,-3.8351,-3.8042,-3.7524,-3.7344,-3.7238,-3.7194,-3.7044,-3.6892,-3.6708,-3.6554,-3.6523,-3.6492,-3.6492,-3.6492,-3.6492,-3.6492,-3.6014,-3.5367,-3.469,-3.3981,-3.3244,-3.2567,-3.2398,-3.2398,-3.2398,-3.2398,-3.2213,-3.1609,-3.1439,-3.1197,-3.0555,-2.9879,-2.9346,-2.9174,-2.853,-2.802,-2.7995,-2.7905,-2.7525,-2.6701,-2.5495,-2.4694,-2.4649,-2.4066,-2.3684,-2.3655,-2.3655,-2.364,-2.3595,-2.3595,-2.3595,-2.3595,-2.3595,-2.3595,-2.3595,-2.3595,-2.3595,-2.3595,-2.3538,-2.3509,-2.3509,-2.3363,-2.3246,-3.321,-3.5117,-3.7074,-3.7623,-3.8175,-3.8364,-3.7493,-3.6365,-3.5027,-3.3354,-3.1514,-3.0154,0.0,0.0,0.0,-3.3211,-3.5573,0.0,-3.815,-3.9859,0.0,0.0,0.0,-4.0204,-4.0204,-4.0204,0.0,0.0,-4.0779,-4.072,-4.1146,-4.1123,-4.1047,-4.0894,-4.0912,-4.0912,-4.0912,-4.0912,-4.0823,-4.0662,-4.0662,-4.0614,-4.0468,-4.0468,-4.0212,-3.98,-3.98,-3.9489,-3.8974,-3.8974,-3.8618,-3.8084,-3.8039,-3.7783,-3.7405,-3.721,-3.7104,-3.7043,-3.6754,-3.6569,-3.6492,-3.6492,-3.6492,-3.6492,-3.6492,-3.6014,-3.5367,-3.469,-3.3981,-3.3244,-3.2567,-3.2398,-3.2398,-3.2398,-3.2398,-3.2336,-3.2167,-3.1736,-3.1362,-3.1166,-3.0212,-2.9208,-2.8547,-2.8268,-2.8128,-2.802,-2.7955,-2.7663,-2.6862,-2.6351,-2.5899,-2.5397,-2.5196,-2.4896,-2.438,-2.435,-2.4126,-2.3625,-2.3595,-2.3595,-2.3595,-2.3595,-2.3595,-2.3595,-2.3595,-2.3595,-2.3595,-2.3573,-2.356,-2.3509,-2.3466,-2.3378,-3.5248,-3.6869,-3.8309,-3.8595,-3.8693,-3.8287,-3.6656,-3.5293,-3.3726,-3.1348,-2.9768,0.0,0.0,0.0,0.0,0.0,0.0,0.0,-3.8662,-4.0279,-4.1078,0.0,-4.0709,0.0,-4.0972,-4.0972,-4.1148,0.0,-4.1152,-4.0993,-4.126,-4.1198,-4.1099,-4.0982,-4.0935,-4.0912,-4.0912,-4.0912,-4.0912,-4.0912,-4.0912,-4.0912,-4.0912,-4.0912,-4.071,-4.0385,0.0,-4.007,-3.9558,-3.9558,-3.9199,-3.8657,-3.839,-3.8112,-3.7799,-3.7462,-3.7284,-3.7164,-3.6983,-3.6816,-3.6693,-3.6554,-3.6492,-3.6492,-3.6492,-3.623,-3.5784,-3.5136,-3.4443,-3.3706,-3.3013,-3.2613,-3.2398,-3.2398,-3.2398,-3.2398,-3.2398,-3.209,-3.1736,-3.147,-3.0551,-2.9617,-2.8851,-2.8483,-2.8275,-2.8177,-2.8128,-2.7917,-2.7473,-2.7034,-2.6645,-2.6253,-2.5882,-2.5423,-2.474,-2.4627,-2.4306,-2.364,-2.3595,-2.3595,-2.3595,-2.3595,-2.3595,-2.3595,-2.3595,-2.3595,-2.3595,-2.3595,-2.3588,-2.3538,-2.3538,-2.3494,-3.7699,-3.8375,-3.862,-3.9257,-3.8763,-3.7418,-3.4815,-3.3515,-3.1916,-2.8626,0.0,0.0,-2.6721,0.0,-2.9913,-3.2007,0.0,-3.6973,-3.9436,-4.0499,-4.1156,-4.1543,-4.1604,-4.1604,-4.1604,-4.1604,-4.1604,-4.1604,-4.1604,-4.1538,-4.1403,-4.1295,-4.118,-4.1117,-4.0982,-4.0935,-4.0935,-4.0912,-4.0912,-4.0912,-4.0912,-4.0912,-4.0912,-4.0912,-4.0912,-4.0912,0.0,0.0,-4.0103,-4.0103,-3.9817,-3.9242,-3.8723,-3.8474,-3.8351,-3.7902,-3.7551,-3.7358,-3.7328,-3.724,-3.709,-3.6647,-3.6523,-3.6523,-3.6523,-3.6492,-3.6353,-3.5706,-3.5028,-3.4335,-3.3583,-3.2906,-3.2398,-3.2398,-3.2398,-3.2398,-3.2398,-3.2398,-3.2198,-3.1547,-3.0859,-3.0186,-2.951,-2.8833,-2.8411,-2.8411,-2.8299,-2.8235,-2.8235,-2.7594,-2.7133,-2.7133,-2.6507,-2.5817,-2.513,-2.495,-2.4597,-2.3909,-2.3789,-2.3729,-2.3729,-2.3655,-2.3595,-2.3595,-2.3595,-2.3595,-2.3595,-2.3595,-2.3595,-2.3595,-2.3595,-2.3566,-3.8,-3.8826,-3.9396,-3.9458,-3.8827,-3.7511,-3.4948,-3.322,0.0,0.0,0.0,-2.5939,-2.5066,-2.6776,0.0,-3.1151,0.0,0.0,0.0,0.0,-4.1156,0.0,0.0,0.0,0.0,0.0,0.0,0.0,0.0,0.0,-4.1403,-4.138,-4.1318,-4.1203,-4.1099,-4.107,-4.107,-4.0959,-4.0912,-4.0912,-4.0912,-4.0912,-4.0912,-4.0912,-4.0912,-4.0912,-4.0912,0.0,-4.0734,-4.0734,-4.0402,-3.9851,-3.9749,-3.942,-3.9028,-3.8936,-3.8562,-3.8096,-3.7985,-3.7943,-3.777,-3.6922,-3.6662,-3.6631,-3.6523,-3.6492,-3.6353,-3.5706,-3.5028,-3.4335,-3.3583,-3.2906,-3.2398,-3.2398,-3.2398,-3.2398,-3.2398,-3.2398,-3.2198,-3.1547,-3.0859,-3.0186,-2.951,-2.8833,-2.8411,-2.8411,-2.8372,-2.8372,-2.8372,-2.8061,-2.7838,-2.7838,-2.7707,-2.7309,-2.6509,-2.6425,-2.6092,-2.53,-2.4724,-2.4425,-2.4425,-2.3894,-2.3595,-2.3595,-2.3595,-2.3595,-2.3595,-2.3595,-2.3595,-2.3595,-2.3595,-2.3595,-3.8631,-3.9289,-3.9577,-3.952,-3.8222,-3.6281,-3.3732,0.0,0.0,0.0,0.0,-2.4998,-2.4582,0.0,0.0,0.0,0.0,0.0,0.0,0.0,0.0,0.0,0.0,0.0,0.0,0.0,0.0,0.0,0.0,0.0,-4.1515,-4.1448,-4.134,-4.1192,-4.1146,-4.1093,-4.1093,-4.0959,-4.0912,-4.0912,-4.0912,-4.0912,-4.0912,-4.0912,-4.0912,-4.0912,-4.0912,0.0,-4.0912,-4.0912,-4.0734,-4.0434,-4.0103,-3.9825,-3.9568,-3.9295,-3.9028,-3.8767,-3.8701,-3.8689,-3.859,-3.8023,-3.7735,-3.7605,-3.7562,-3.7504,-3.7293,-3.6667,-3.5999,-3.5254,-3.4253,-3.3444,-3.2829,-3.2475,-3.2398,-3.2398,-3.2398,-3.2398,-3.229,-3.1967,-3.1382,-3.072,-3.0033,-2.9356,-2.8812,-2.8458,-2.8411,-2.8411,-2.8411,-2.829,-2.8217,-2.8217,-2.8152,-2.7805,-2.7072,-2.6868,-2.6486,-2.5761,-2.5338,-2.4963,-2.4619,-2.4291,-2.3969,-2.361,-2.3595,-2.3595,-2.3595,-2.3595,-2.3595,-2.3595,-2.3595,-2.3595,-3.8913,-3.9458,-3.9596,-3.9533,-3.7665,-3.5162,-3.2598,-3.0101,0.0,0.0,0.0,-2.4522,-2.4498,0.0,0.0,0.0,0.0,0.0,0.0,0.0,0.0,0.0,0.0,0.0,0.0,0.0,0.0,0.0,0.0,0.0,-4.1604,-4.1493,-4.1386,-4.1277,-4.1215,-4.1163,-4.1123,-4.1006,-4.0935,-4.0912,-4.0912,-4.0912,-4.0912,-4.0912,-4.0912,-4.0912,-4.0912,0.0,0.0,-4.0912,-4.0912,-4.0847,-4.0385,-4.0195,-4.0145,-3.9714,-3.948,-3.9375,-3.9375,-3.9375,-3.9348,-3.9193,-3.8897,-3.8585,-3.8502,-3.8334,-3.8067,-3.7549,-3.6823,-3.5943,-3.4792,-3.3937,-3.3229,-3.2552,-3.2398,-3.2398,-3.2398,-3.2398,-3.2398,-3.2398,-3.1736,-3.1012,-3.0479,-2.971,-2.9027,-2.8488,-2.8411,-2.8411,-2.8411,-2.8411,-2.8411,-2.8411,-2.8323,-2.8021,-2.7461,-2.7224,-2.6853,-2.6309,-2.6041,-2.5655,-2.5099,-2.4934,-2.453,-2.3834,-2.3819,-2.3744,-2.3595,-2.3595,-2.3595,-2.3595,-2.3595,-2.3595,-3.8188,-3.9007,-3.9608,-3.9577,-3.7737,-3.5229,-3.2676,0.0,0.0,0.0,-2.4623,-2.4564,-2.4503,0.0,0.0,0.0,0.0,0.0,0.0,0.0,0.0,0.0,0.0,0.0,0.0,0.0,0.0,0.0,0.0,0.0,0.0,-4.1582,-4.1582,-4.1542,-4.1448,-4.1318,-4.1186,-4.1123,-4.1023,-4.0912,-4.0912,-4.0912,-4.0912,-4.0912,-4.0912,-4.0912,-4.0912,0.0,0.0,-4.0912,-4.0912,-4.0894,-4.0847,-4.0823,-4.0823,-4.0752,-4.0402,-3.9927,-3.9927,-3.9927,-3.9927,-3.9885,-3.943,-3.8799,-3.8585,-3.8108,-3.7634,-3.746,-3.6513,-3.5412,-3.4674,-3.3937,-3.3229,-3.2552,-3.2398,-3.2398,-3.2398,-3.2398,-3.2398,-3.2398,-3.1382,-3.0463,-3.0402,-2.9325,-2.8473,-2.8411,-2.8411,-2.8411,-2.8411,-2.8411,-2.8411,-2.8411,-2.8387,-2.8308,-2.8119,-2.8094,-2.7991,-2.7798,-2.7206,-2.678,-2.6606,-2.6012,-2.5333,-2.4515,-2.4515,-2.4201,-2.3595,-2.3595,-2.3595,-2.3595,-2.3595,-2.3595,-3.7812,-3.8939,-3.9477,-3.8939,-3.6948,-3.4451,-3.1954,0.0,0.0,-2.511,-2.4674,-2.4623,-2.4512,-2.4766,0.0,0.0,0.0,0.0,0.0,0.0,0.0,0.0,0.0,0.0,0.0,0.0,0.0,0.0,0.0,0.0,0.0,-4.1604,-4.1604,-4.1604,-4.1471,-4.1363,-4.1318,-4.1203,-4.1105,-4.1023,-4.1023,-4.0982,-4.0912,-4.0912,-4.0912,-4.0912,-4.0912,0.0,0.0,-4.0912,-4.0912,-4.0912,-4.0912,-4.0912,-4.0912,-4.0912,-4.0752,-4.0549,-4.0549,-4.0549,-4.0549,-4.0549,-4.0343,-4.0053,-3.9791,-3.9236,-3.8569,-3.8096,-3.7313,-3.6371,-3.5261,-3.4135,-3.3197,-3.2958,-3.2641,-3.2398,-3.2398,-3.2641,-3.2788,-3.2465,-3.2249,-3.1716,-3.0577,-2.9956,-2.9335,-2.8535,-2.8411,-2.8411,-2.8411,-2.8411,-2.8411,-2.8411,-2.8411,-2.8372,-2.8323,-2.8235,-2.8186,-2.8113,-2.7795,-2.7413,-2.6955,-2.6587,-2.5868,-2.4739,-2.465,-2.4261,-2.3595,-2.3595,-2.3595,-2.3595,-2.3595,-2.3595,-3.6727,-3.8047,-3.8707,-3.8094,-3.6085,-3.3663,0.0,0.0,-2.6727,-2.5043,-2.4698,-2.4666,-2.4555,-2.4512,-2.4766,0.0,0.0,0.0,0.0,0.0,0.0,0.0,0.0,0.0,0.0,0.0,0.0,0.0,0.0,0.0,0.0,-4.1604,-4.1604,-4.1604,-4.1515,-4.1448,-4.1403,-4.1318,-4.1221,-4.1093,-4.1093,-4.1023,-4.0912,-4.0912,-4.0912,-4.0912,0.0,0.0,0.0,-4.0912,-4.0912,-4.0912,-4.0912,-4.0912,-4.0912,-4.0912,-4.0912,-4.0912,-4.0912,-4.0912,-4.0912,-4.0912,-4.0912,-4.0864,-4.0631,-4.0037,-3.9332,-3.8723,-3.7834,-3.6823,-3.582,-3.4499,-3.3459,-3.3459,-3.3161,-3.283,-3.2668,-3.2933,-3.3039,-3.2492,-3.2369,-3.1951,-3.0634,-3.0063,-2.9479,-2.855,-2.8411,-2.8411,-2.8411,-2.8411,-2.8411,-2.8411,-2.8411,-2.8411,-2.8411,-2.8323,-2.8259,-2.8259,-2.8177,-2.789,-2.7387,-2.7252,-2.665,-2.5485,-2.5115,-2.4612,-2.3959,-2.3721,-2.3595,-2.3595,-2.3595,-2.3595,-3.4604,-3.5964,-3.7129,-3.711,-3.524,-3.2958,0.0,-2.8979,-2.6716,-2.5037,-2.4695,-2.4674,-2.4615,-2.4528,-2.4766,-2.5559,0.0,0.0,0.0,0.0,0.0,0.0,0.0,0.0,0.0,0.0,0.0,0.0,0.0,0.0,0.0,-4.1604,-4.1604,-4.1604,-4.1604,-4.1538,-4.1403,-4.1403,-4.1307,-4.1093,-4.1093,-4.1023,-4.0912,-4.0912,-4.0912,0.0,0.0,0.0,0.0,-4.0912,-4.0912,-4.0912,-4.0912,-4.0912,-4.0912,-4.0912,-4.0912,-4.0912,-4.0912,-4.0912,-4.0912,-4.0912,-4.0912,-4.0871,-4.0745,-4.0179,-3.9558,-3.9286,-3.775,-3.6206,-3.6189,-3.5095,-3.3986,-3.3986,-3.3986,-3.3843,-3.3329,-3.3198,-3.3039,-3.2492,-3.1336,-3.0417,-3.0402,-2.9294,-2.8427,-2.8411,-2.8411,-2.8411,-2.8411,-2.8411,-2.8411,-2.8411,-2.8411,-2.8411,-2.8411,-2.8411,-2.8411,-2.8411,-2.8411,-2.8323,-2.8195,-2.8186,-2.7801,-2.6981,-2.6196,-2.5447,-2.4784,-2.3989,-2.3595,-2.3595,-2.3595,-2.3595,-3.1968,-3.3392,-3.4411,-3.3168,-3.186,-3.0434,-2.8744,-2.7336,-2.6067,-2.4933,-2.4692,-2.4695,-2.4674,-2.4658,-2.5074,-2.6376,-2.7009,0.0,0.0,0.0,0.0,0.0,0.0,0.0,0.0,0.0,0.0,0.0,0.0,0.0,0.0,-4.1604,-4.1604,-4.1604,-4.1604,-4.1582,-4.1538,-4.1538,-4.1448,-4.129,-4.1221,-4.1129,-4.1047,-4.0935,0.0,0.0,0.0,0.0,0.0,-4.0912,-4.0912,-4.0912,-4.0912,-4.0912,-4.0912,-4.0912,-4.0912,-4.0912,-4.0912,-4.0912,-4.0912,-4.0912,-4.0912,-4.0871,-4.0745,-4.0254,-3.9603,-3.9005,-3.7939,-3.6953,-3.6953,-3.5876,-3.4823,-3.4823,-3.4471,-3.4003,-3.3443,-3.3547,-3.3485,-3.2574,-3.1995,-3.1363,-3.0541,-2.9664,-2.8935,-2.8473,-2.8411,-2.8411,-2.8411,-2.8411,-2.8411,-2.8411,-2.8411,-2.8411,-2.8411,-2.8411,-2.8411,-2.8411,-2.8411,-2.8372,-2.8348,-2.8235,-2.7817,-2.7011,-2.6196,-2.5417,-2.4657,-2.3961,-2.3595,-2.3595,-2.3595,-2.3595,0.0,-3.1191,-3.1969,-3.0833,-2.9947,-2.8984,-2.7595,-2.6626,-2.5781,-2.4884,-2.47,-2.4692,-2.469,-2.4709,-2.4995,-2.591,-2.6581,0.0,0.0,0.0,0.0,0.0,0.0,0.0,0.0,0.0,0.0,0.0,0.0,0.0,0.0,0.0,-4.1604,-4.1604,-4.1604,-4.1604,-4.1604,-4.1604,-4.1538,-4.1403,-4.1318,-4.1226,-4.1146,-4.1029,0.0,0.0,0.0,0.0,0.0,-4.0912,-4.0912,-4.0912,-4.0912,-4.0912,-4.0912,-4.0912,-4.0912,-4.0912,-4.0912,-4.0912,-4.0912,-4.0912,-4.0912,-4.0871,-4.0793,-4.0427,-3.9952,-3.9525,-3.8531,-3.7634,-3.7634,-3.6578,-3.5504,-3.5504,-3.5174,-3.4719,-3.4186,-3.4276,-3.4178,-3.3277,-3.28,-3.2242,-3.1137,-3.0411,-2.9673,-2.8809,-2.8653,-2.8597,-2.842,-2.8411,-2.8411,-2.8411,-2.8411,-2.8411,-2.8411,-2.8411,-2.8411,-2.8411,-2.8411,-2.8411,-2.8411,-2.8323,-2.8036,-2.7535,-2.6488,-2.5705,-2.5206,-2.4183,-2.3653,-2.3595,-2.3595,-2.3595,0.0,-2.9238,-2.9732,-2.9668,-2.9084,-2.8308,-2.7433,-2.66,0.0,-2.4885,-2.4715,-2.4711,-2.4773,-2.4746,-2.4722,-2.4762,-2.6124,0.0,0.0,0.0,0.0,0.0,0.0,0.0,0.0,0.0,0.0,0.0,0.0,0.0,0.0,0.0,-4.1626,-4.1604,-4.1604,-4.1604,-4.1604,-4.1604,-4.1538,-4.1426,-4.1403,-4.134,-4.1209,-4.1146,0.0,0.0,0.0,0.0,0.0,-4.0912,-4.0912,-4.0912,-4.0912,-4.0912,-4.0912,-4.0912,-4.0912,-4.0912,-4.0912,-4.0912,-4.0912,-4.0912,-4.0912,-4.0912,-4.0912,-4.0693,-4.0449,-4.0449,-3.933,-3.8151,-3.8151,-3.7091,-3.6019,-3.6019,-3.6019,-3.5871,-3.5328,-3.5197,-3.4988,-3.4333,-3.3656,-3.2908,-3.2035,-3.1345,-3.0497,-2.9323,-2.9143,-2.8974,-2.8517,-2.8444,-2.8444,-2.8396,-2.842,-2.8444,-2.8444,-2.842,-2.8411,-2.8411,-2.8411,-2.8411,-2.8411,-2.8411,-2.8411,-2.8387,-2.6941,-2.6138,-2.6031,-2.4531,-2.3739,-2.3595,-2.3595,-2.3595,-2.6208,0.0,-2.7204,-2.6434,-2.6104,-2.5913,0.0,-2.5393,-2.5115,0.0,0.0,0.0,-2.5571,-2.515,-2.5287,0.0,0.0,0.0,0.0,0.0,0.0,0.0,0.0,0.0,0.0,0.0,0.0,0.0,0.0,0.0,0.0,-4.2113,-4.192,-4.1604,-4.1604,-4.1604,-4.1604,-4.1604,-4.1582,-4.156,-4.1448,-4.1363,-4.134,-4.1226,0.0,0.0,0.0,0.0,-4.0912,-4.0912,-4.0912,-4.0912,-4.0912,-4.0912,-4.0912,-4.0912,-4.0912,-4.0912,-4.0912,-4.0912,-4.0912,-4.0912,-4.0912,-4.0912,-4.0912,-4.0433,-3.9881,-3.9881,-3.8797,-3.7644,-3.7644,-3.6939,-3.6237,-3.6237,-3.6191,-3.5997,-3.5481,-3.5191,-3.4887,-3.4309,-3.3584,-3.2789,-3.2035,-3.1345,-3.0626,-2.9758,-2.9655,-2.9461,-2.8997,-2.8943,-2.8803,-2.8444,-2.8724,-2.8943,-2.8943,-2.8597,-2.8411,-2.8411,-2.8411,-2.8411,-2.8411,-2.8411,-2.8348,-2.8235,-2.681,-2.5537,-2.4517,-2.4134,-2.3882,-2.3739,-2.3739,-2.3696,-2.4795,-2.5768,-2.653,-2.5972,-2.5822,-2.5831,-2.5803,0.0,0.0,0.0,0.0,0.0,0.0,0.0,0.0,0.0,0.0,0.0,0.0,0.0,0.0,0.0,0.0,0.0,0.0,0.0,0.0,0.0,0.0,0.0,0.0,-4.23,-4.2092,-4.1878,-4.1697,-4.1604,-4.1604,-4.1604,-4.1604,-4.1604,-4.1538,-4.1493,-4.1493,-4.134,-4.1272,0.0,0.0,0.0,-4.0982,-4.0982,-4.0959,-4.0912,-4.0912,-4.0912,-4.0912,-4.0912,-4.0912,-4.0912,-4.0912,-4.0912,-4.0912,-4.0912,-4.0912,-4.0912,-4.0912,-4.0118,-3.9267,-3.9595,-3.8629,-3.7512,-3.7512,-3.6887,-3.6301,-3.6301,-3.6259,-3.617,-3.5876,-3.5661,-3.5453,-3.5081,-3.4625,-3.4028,-3.3237,-3.2508,-3.1731,-3.0767,-3.0331,-2.9946,-2.9483,-2.9416,-2.9325,-2.9082,-2.9273,-2.9416,-2.9416,-2.899,-2.8803,-2.9036,-2.9036,-2.8943,-2.8724,-2.8724,-2.8287,-2.7363,-2.6574,-2.5489,-2.4103,-2.4103,-2.4024,-2.3882,-2.3882,-2.3861,-2.4138,-2.5526,-2.6663,-2.6551,-2.6513,-2.6492,-2.6444,0.0,0.0,0.0,0.0,0.0,0.0,0.0,0.0,0.0,0.0,0.0,0.0,0.0,0.0,0.0,0.0,0.0,0.0,0.0,0.0,0.0,0.0,0.0,0.0,-4.256,-4.236,-4.23,-4.1899,-4.1697,-4.1697,-4.1648,-4.1604,-4.1604,-4.1604,-4.1604,-4.1604,-4.1493,-4.1426,0.0,0.0,0.0,-4.1117,-4.1093,-4.1047,-4.0935,-4.0912,-4.0912,-4.0912,-4.0912,-4.0912,-4.0912,-4.0912,-4.0912,-4.0912,-4.0912,-4.0825,-4.0722,-4.0722,-3.9652,-3.8543,-3.9181,-3.8392,-3.7323,-3.7323,-3.6801,-3.6301,-3.6301,-3.6301,-3.6301,-3.6301,-3.6251,-3.6182,-3.6041,-3.591,-3.5557,-3.4711,-3.4024,-3.3187,-3.1938,-3.1208,-3.0593,-3.0006,-2.9924,-2.9881,-2.981,-2.9859,-2.9903,-2.9903,-2.9617,-2.9595,-3.0006,-2.9728,-2.9409,-2.902,-2.8997,-2.8146,-2.6364,-2.6364,-2.5696,-2.4208,-2.4208,-2.4145,-2.4024,-2.4024,-2.4024,-2.4853,-2.599,-2.6551,-2.5855,-2.5681,-2.5677,-2.5669,0.0,0.0,0.0,0.0,0.0,0.0,0.0,0.0,0.0,0.0,0.0,0.0,0.0,0.0,0.0,0.0,0.0,0.0,0.0,0.0,0.0,0.0,0.0,0.0,0.0,-4.3069,-4.2734,-4.232,-4.2113,-4.2113,-4.1766,-4.1604,-4.1604,-4.1604,-4.1604,-4.1604,-4.1582,-4.1515,0.0,0.0,-4.1295,-4.118,-4.1123,-4.1087,-4.1047,-4.0935,-4.0912,-4.0912,-4.0912,-4.0912,-4.0912,-4.0912,-4.0912,-4.0912,-4.0912,-4.0446,-3.9871,-3.9871,-3.8836,-3.7702,-3.7823,-3.718,-3.6473,-3.6473,-3.6387,-3.6301,-3.6301,-3.6301,-3.6301,-3.6301,-3.6251,-3.6187,-3.6165,-3.6058,-3.5715,-3.4959,-3.4738,-3.4154,-3.2675,-3.2332,-3.183,-3.0647,-3.0481,-3.0293,-2.9837,-3.0161,-3.0393,-3.0393,-3.0679,-3.0915,-3.0975,-2.9499,-2.8573,-2.8517,-2.8517,-2.7844,-2.6411,-2.638,-2.5703,-2.4281,-2.4281,-2.4234,-2.4166,-2.4166,-2.4103,-2.3635,-2.437,-2.4888,-2.5894,-2.6798,-2.7301,-2.6764,0.0,0.0,0.0,0.0,0.0,0.0,0.0,0.0,0.0,0.0,0.0,0.0,0.0,0.0,0.0,0.0,0.0,0.0,0.0,0.0,0.0,0.0,0.0,0.0,0.0,-4.2996,-4.281,-4.242,-4.2092,-4.1895,-4.1899,-4.1809,-4.1604,-4.1604,-4.1604,-4.1604,-4.1604,-4.156,-4.1515,0.0,-4.1431,-4.1318,-4.1267,-4.121,-4.1093,-4.1047,-4.0959,-4.0912,-4.0912,-4.0912,-4.0912,-4.0912,-4.0912,-4.0825,-4.0388,-3.9991,-3.9629,-3.9215,-3.8336,-3.7512,-3.7512,-3.6904,-3.6301,-3.6301,-3.6301,-3.6301,-3.6301,-3.6301,-3.6301,-3.6301,-3.6251,-3.6204,-3.6204,-3.6101,-3.5895,-3.5553,-3.516,-3.451,-3.3379,-3.2827,-3.2179,-3.1125,-3.0942,-3.0821,-3.0576,-3.0757,-3.0878,-3.0878,-3.0838,-3.0821,-3.0821,-2.9772,-2.9152,-2.9152,-2.8668,-2.7891,-2.6808,-2.6483,-2.5672,-2.4302,-2.4302,-2.4281,-2.4255,-2.4255,-2.4213,-2.2745,-2.3194,-2.3709,-2.585,0.0,-2.8192,-2.7975,0.0,0.0,0.0,0.0,0.0,0.0,0.0,0.0,0.0,0.0,0.0,0.0,0.0,0.0,0.0,0.0,0.0,0.0,0.0,0.0,0.0,0.0,0.0,0.0,0.0,-4.3051,-4.2941,-4.256,-4.2154,-4.1723,-4.1963,-4.1899,-4.1604,-4.1604,-4.1604,-4.1604,-4.1604,-4.1604,-4.1604,-4.1604,-4.1515,-4.1403,-4.138,-4.1244,-4.1093,-4.107,-4.0982,-4.0912,-4.0912,-4.0912,-4.0912,-4.0912,-4.0791,-4.0532,-3.9888,-3.9457,-3.9077,-3.8491,-3.7823,-3.7236,-3.7236,-3.6766,-3.6301,-3.6301,-3.6301,-3.6301,-3.6301,-3.6301,-3.6301,-3.6301,-3.6255,-3.6229,-3.6229,-3.6127,-3.6084,-3.6084,-3.5604,-3.4949,-3.4179,-3.3345,-3.2514,-3.1708,-3.1373,-3.123,-3.121,-3.119,-3.119,-3.119,-3.0878,-3.0621,-3.0518,-3.0161,-2.9903,-2.9793,-2.9106,-2.8253,-2.7248,-2.6848,-2.5944,-2.4594,-2.4492,-2.4431,-2.4431,-2.4343,-2.4302,-2.3654,-2.4118,-2.4312,-2.5187,-2.5575,0.0,-2.8412,-2.8315,0.0,0.0,0.0,0.0,0.0,0.0,0.0,0.0,0.0,0.0,0.0,0.0,0.0,0.0,0.0,0.0,0.0,0.0,0.0,0.0,0.0,0.0,0.0,0.0,0.0,-4.3371,-4.2977,-4.256,-4.2175,-4.1809,-4.1626,-4.1604,-4.1604,-4.1604,-4.1604,-4.1604,-4.1604,-4.1604,-4.1604,-4.1515,-4.1403,-4.1272,-4.1175,-4.1087,-4.0959,-4.0912,-4.0912,-4.0912,-4.0912,-4.0912,-4.0912,-4.0405,-3.9767,-3.9715,-3.8767,-3.765,-3.7599,-3.7008,-3.6387,-3.6387,-3.6335,-3.6301,-3.6301,-3.6301,-3.6301,-3.6301,-3.6301,-3.6301,-3.6301,-3.6301,-3.6301,-3.6301,-3.628,-3.628,-3.628,-3.6228,-3.5952,-3.5194,-3.4355,-3.3479,-3.2627,-3.1813,-3.1274,-3.121,-3.119,-3.119,-3.119,-3.1171,-3.0958,-3.0539,-3.0477,-3.0246,-2.9815,-2.9744,-2.906,-2.7696,-2.7623,-2.6876,-2.5408,-2.504,-2.4863,-2.4843,-2.4472,-2.4302,-2.3077,-2.379,-2.4401,-2.5215,-2.6241,0.0,0.0,0.0,0.0,0.0,0.0,0.0,0.0,0.0,0.0,0.0,0.0,0.0,0.0,0.0,0.0,0.0,0.0,0.0,0.0,0.0,0.0,0.0,0.0,0.0,0.0,0.0,0.0,-4.3406,-4.3248,-4.2866,-4.2198,-4.23,-4.2092,-4.1604,-4.1604,-4.1604,-4.1604,-4.1604,-4.1604,-4.1604,-4.1604,-4.156,-4.1515,-4.1386,-4.1249,-4.1134,-4.0965,-4.0912,-4.0912,-4.0912,-4.0912,-4.0825,-4.0342,-3.9939,-3.9543,-3.8629,-3.7961,-3.7409,-3.6904,-3.6542,-3.6301,-3.6301,-3.6301,-3.6301,-3.6301,-3.6301,-3.6301,-3.6301,-3.6301,-3.6301,-3.6301,-3.6301,-3.6301,-3.6301,-3.6301,-3.6301,-3.6301,-3.6301,-3.5887,-3.4697,-3.4169,-3.3433,-3.2124,-3.1654,-3.1387,-3.1274,-3.1254,-3.1252,-3.121,-3.1232,-3.1176,-3.0938,-3.0658,-3.0414,-3.0246,-2.9946,-2.949,-2.8836,-2.8074,-2.7203,-2.6166,-2.5561,-2.5275,-2.5256,-2.4863,-2.4679,-2.2826,-2.3538,-2.4409,0.0,0.0,0.0,0.0,0.0,0.0,0.0,0.0,0.0,0.0,0.0,0.0,0.0,0.0,0.0,0.0,0.0,0.0,0.0,0.0,0.0,0.0,0.0,0.0,0.0,0.0,0.0,0.0,0.0,0.0,0.0,-4.2636,-4.2322,-4.1646,-4.1766,-4.1588,-4.1025,-4.0932,-4.113,-4.1604,-4.1604,-4.1604,-4.1604,-4.1604,-4.1582,-4.152,-4.1186,-4.0946,-4.081,-4.0926,-4.0935,-4.0912,-4.0912,-4.0739,-4.0446,-3.9888,-3.9388,-3.8836,-3.784,-3.734,-3.7008,-3.6473,-3.6301,-3.6301,-3.6301,-3.6301,-3.6301,-3.6301,-3.6301,-3.6301,-3.6301,-3.6301,-3.6301,-3.6301,-3.6301,-3.6301,-3.6301,-3.6301,-3.6301,-3.6301,-3.6111,-3.5611,-3.4614,-3.3945,-3.3162,-3.2095,-3.1711,-3.1462,-3.137,-3.1351,-3.1349,-3.1288,-3.1329,-3.1329,-3.1232,-3.0922,-3.0744,-3.072,-3.041,-3.0079,-2.9705,-2.8874,-2.7958,-2.6991,-2.6351,-2.5917,-2.5689,-2.5141,-2.4902,-2.3136,-2.3538,0.0,0.0,0.0,0.0,0.0,0.0,0.0,0.0,0.0,0.0,0.0,0.0,0.0,0.0,0.0,0.0,0.0,0.0,0.0,0.0,0.0,0.0,0.0,0.0,0.0,0.0,0.0,0.0,0.0,0.0,0.0,0.0,-4.1022,-4.0821,-4.0402,-4.0015,-3.9805,-3.9786,-3.9476,-4.0112,-4.1587,-4.1587,-4.1587,-4.1587,-4.1587,-4.1498,-4.1316,-4.0604,-4.0135,-3.9985,-4.0782,-4.1006,-4.0877,-4.0877,-4.0377,-3.9681,-3.9681,-3.8715,-3.7512,-3.7495,-3.696,-3.6301,-3.6301,-3.6301,-3.6301,-3.6301,-3.6301,-3.6301,-3.6301,-3.6301,-3.6301,-3.6301,-3.6301,-3.6301,-3.6301,-3.6301,-3.6301,-3.6301,-3.6301,-3.6301,-3.6301,-3.568,-3.5197,-3.518,-3.3842,-3.2801,-3.2784,-3.2036,-3.1498,-3.1498,-3.1498,-3.1498,-3.1498,-3.1498,-3.1443,-3.1315,-3.1295,-3.1274,-3.121,-3.119,-3.0852,-3.0125,-3.0108,-2.9328,-2.7824,-2.7398,-2.6816,-2.6104,-2.5275,-2.4902,-2.3136,0.0,0.0,0.0,0.0,0.0,0.0,0.0,0.0,0.0,0.0,0.0,0.0,0.0,0.0,0.0,0.0,0.0,0.0,0.0,0.0,0.0,0.0,0.0,0.0,0.0,0.0,0.0,0.0,0.0,0.0,0.0,0.0,0.0,-4.1422,-4.1233,-4.0838,-4.07,-4.0348,-3.9786,-3.9704,-3.9767,-3.9968,-3.9968,-3.9968,-3.9968,-3.9968,-3.9968,-3.9921,-4.0189,-3.9848,-3.9276,-4.0098,-3.9995,-3.942,-3.942,-3.9197,-3.8836,-3.8341,-3.7875,-3.7409,-3.6835,-3.649,-3.6301,-3.6301,-3.6301,-3.6301,-3.6301,-3.6301,-3.6301,-3.6301,-3.6301,-3.6301,-3.6301,-3.6301,-3.6301,-3.6301,-3.6301,-3.6301,-3.6301,-3.6301,-3.6301,-3.6301,-3.6111,-3.5611,-3.4596,-3.4022,-3.3313,-3.2245,-3.1788,-3.1578,-3.1578,-3.1578,-3.1557,-3.1498,-3.1557,-3.1485,-3.1315,-3.1295,-3.1274,-3.121,-3.119,-3.1089,-3.0869,-3.0362,-2.9617,-2.8636,-2.7954,-2.7244,-2.6505,-2.598,-2.5744,-2.3561,0.0,0.0,0.0,0.0,0.0,0.0,0.0,0.0,0.0,0.0,0.0,0.0,0.0,0.0,0.0,0.0,0.0,0.0,0.0,0.0,0.0,0.0,0.0,0.0,0.0,0.0,0.0,0.0,0.0,0.0,0.0,0.0,0.0,-4.0606,-4.05,-4.0253,-4.0094,-3.9801,-3.9319,-3.9193,-3.9027,-3.8833,-3.915,-3.9284,-3.9284,-3.9284,-3.9108,-3.888,-3.9606,-3.9359,-3.8624,-3.9391,-3.9342,-3.8855,-3.8855,-3.8559,-3.8143,-3.7677,-3.731,-3.6939,-3.6456,-3.6301,-3.6301,-3.6301,-3.6301,-3.6301,-3.6301,-3.6301,-3.6301,-3.6301,-3.6301,-3.6301,-3.6301,-3.6301,-3.6301,-3.6301,-3.6301,-3.6301,-3.6301,-3.6301,-3.6301,-3.6301,-3.5801,-3.5111,-3.4234,-3.3596,-3.2835,-3.1921,-3.1727,-3.169,-3.169,-3.169,-3.1653,-3.1614,-3.167,-3.1598,-3.143,-3.1389,-3.1349,-3.1252,-3.121,-3.119,-3.119,-3.0768,-3.0023,-2.8993,-2.8518,-2.7723,-2.6691,-2.628,-2.6104,0.0,0.0,0.0,0.0,0.0,0.0,0.0,0.0,0.0,0.0,0.0,0.0,0.0,0.0,0.0,0.0,0.0,0.0,0.0,0.0,0.0,0.0,0.0,0.0,0.0,0.0,0.0,0.0,0.0,0.0,0.0,0.0,0.0,0.0,-3.9101,-3.9101,-3.9101,-3.8792,-3.8624,0.0,-3.8298,-3.8135,-3.8122,-3.8809,-3.9115,-3.9094,-3.9094,-3.869,-3.8058,-3.8845,-3.8678,-3.7982,-3.8716,-3.8897,-3.8699,-3.8699,-3.82,-3.7507,-3.7507,-3.6994,-3.6322,-3.6322,-3.6301,-3.6301,-3.6301,-3.6301,-3.6301,-3.6301,-3.6301,-3.6301,-3.6301,-3.6301,-3.6301,-3.6301,-3.6301,-3.6301,-3.6301,-3.6301,-3.6301,-3.6301,-3.6301,-3.6284,-3.6215,-3.5076,-3.4165,-3.4007,-3.2731,-3.18,-3.18,-3.18,-3.18,-3.18,-3.18,-3.18,-3.18,-3.18,-3.1727,-3.1598,-3.1557,-3.1462,-3.1315,-3.1232,-3.119,-3.119,-3.119,-3.0516,-2.9094,-2.9027,-2.8248,-2.6793,-2.6349,-2.6157,0.0,0.0,0.0,0.0,0.0,0.0,0.0,0.0,0.0,0.0,0.0,0.0,0.0,0.0,0.0,0.0,0.0,0.0,0.0,0.0,0.0,0.0,0.0,0.0,0.0,0.0,0.0,0.0,0.0,0.0,0.0,0.0,0.0,-3.9101,-3.9101,-3.9101,-3.9101,-3.9027,-3.8851,0.0,-3.8517,-3.8362,-3.8103,-3.7935,-3.7739,-3.7479,-3.7479,-3.7411,-3.7306,-3.8058,-3.7898,-3.7301,-3.8018,-3.7866,-3.7239,-3.7239,-3.7091,-3.6887,-3.6887,-3.6703,-3.6444,-3.6444,-3.6402,-3.6301,-3.6301,-3.6301,-3.6301,-3.6301,-3.6301,-3.6301,-3.6301,-3.6301,-3.6301,-3.6301,-3.6301,-3.6301,-3.6301,-3.6301,-3.6301,-3.6301,-3.6301,-3.6111,-3.5525,-3.5163,-3.4542,-3.3335,-3.2369,-3.18,-3.18,-3.18,-3.18,-3.18,-3.18,-3.18,-3.18,-3.18,-3.1727,-3.1598,-3.1596,-3.1485,-3.1315,-3.1232,-3.119,-3.119,-3.119,-3.0751,-2.9871,-2.9281,-2.8501,-2.7553,-2.6876,-2.6573,0.0,0.0,0.0,0.0,0.0,0.0,0.0,0.0,0.0,0.0,0.0,0.0,0.0,0.0,0.0,0.0,0.0,0.0,0.0,0.0,0.0,0.0,0.0,0.0,0.0,0.0,0.0,0.0,0.0,0.0,0.0,-3.9301,-3.9256,-3.9156,-3.9115,-3.9101,-3.9101,-3.9101,-3.9013,-3.8836,-3.8836,-3.8673,-3.833,-3.7965,-3.7596,-3.7243,-3.7243,-3.7147,-3.7042,-3.7409,-3.7358,-3.7042,-3.7409,-3.7299,-3.6908,-3.6908,-3.6829,-3.6745,-3.6722,-3.6623,-3.6502,-3.6423,-3.6343,-3.6301,-3.6301,-3.6301,-3.6301,-3.6301,-3.6301,-3.6301,-3.6301,-3.6301,-3.6301,-3.6301,-3.6301,-3.6301,-3.6301,-3.6301,-3.6301,-3.6301,-3.6301,-3.6059,-3.5318,-3.4594,-3.3714,-3.2541,-3.2041,-3.18,-3.18,-3.18,-3.18,-3.18,-3.18,-3.18,-3.18,-3.18,-3.1764,-3.1709,-3.1653,-3.156,-3.1449,-3.1368,-3.1305,-3.119,-3.119,-3.0835,-3.0108,-2.9702,-2.9127,-2.8366,-2.7588,-2.7232,0.0,0.0,0.0,0.0,0.0,0.0,0.0,0.0,0.0,0.0,0.0,0.0,0.0,0.0,0.0,0.0,0.0,0.0,0.0,0.0,0.0,0.0,0.0,0.0,0.0,0.0,0.0,0.0,0.0,0.0,-3.8988,-3.8885,-3.8814,-3.8787,-3.8863,-3.891,-3.8897,-3.9027,-3.9101,-3.9101,-3.9101,-3.8956,-3.8688,-3.8394,-3.8033,-3.7596,-3.7596,-3.745,-3.7185,-3.7108,-3.7087,-3.7087,-3.7009,-3.7007,-3.7007,-3.7007,-3.6928,-3.6829,-3.6766,-3.6664,-3.6527,-3.6406,-3.6364,-3.6381,-3.6381,-3.6343,-3.6322,-3.6322,-3.6322,-3.6301,-3.6301,-3.6301,-3.6301,-3.6301,-3.6301,-3.6301,-3.6301,-3.6301,-3.6301,-3.6301,-3.6197,-3.587,-3.5128,-3.3835,-3.2645,-3.1903,-3.18,-3.18,-3.18,-3.18,-3.18,-3.18,-3.18,-3.18,-3.18,-3.18,-3.18,-3.18,-3.169,-3.1617,-3.1598,-3.1557,-3.1423,-3.1266,-3.123,-3.0905,-3.0294,-3.0176,-2.9786,-2.9179,-2.8383,-2.801,0.0,0.0,0.0,0.0,0.0,0.0,0.0,0.0,0.0,0.0,0.0,0.0,0.0,0.0,0.0,0.0,0.0,0.0,0.0,0.0,0.0,0.0,0.0,0.0,0.0,0.0,0.0,0.0,0.0,0.0,-3.7329,-3.7305,-3.7237,-3.7124,-3.7782,-3.8114,-3.8061,-3.8748,-3.9101,-3.9101,-3.9101,-3.9087,-3.9027,-3.8984,-3.8628,-3.8034,-3.8034,-3.7982,-3.7931,-3.7596,-3.7432,-3.7395,-3.7108,-3.7007,-3.7007,-3.7007,-3.6987,-3.6968,-3.6968,-3.6869,-3.6768,-3.6731,-3.6687,-3.6643,-3.6643,-3.6582,-3.6464,-3.6464,-3.6402,-3.6301,-3.6301,-3.6301,-3.6301,-3.6301,-3.6301,-3.6301,-3.6301,-3.6301,-3.6301,-3.6301,-3.5783,-3.5111,-3.4372,-3.349,-3.2645,-3.1903,-3.18,-3.18,-3.18,-3.18,-3.18,-3.18,-3.18,-3.18,-3.18,-3.18,-3.18,-3.18,-3.1781,-3.1727,-3.1598,-3.1579,-3.154,-3.146,-3.1349,-3.122,-3.1055,-3.0412,-3.0057,-2.9939,-2.9196,-2.884,0.0,0.0,0.0,0.0,0.0,0.0,0.0,0.0,0.0,0.0,0.0,0.0,0.0,0.0,0.0,0.0,0.0,0.0,0.0,0.0,0.0,0.0,0.0,0.0,0.0,0.0,0.0,0.0,0.0,-3.7099,-3.7064,-3.7016,-3.6968,-3.692,-3.7219,-3.7355,-3.729,-3.8077,-3.8696,-3.9101,-3.9101,-3.9101,-3.9101,-3.9101,-3.884,-3.8378,-3.8378,-3.8265,-3.8085,-3.7913,-3.7844,-3.7826,-3.7667,-3.7613,-3.7613,-3.7613,-3.7613,-3.7613,-3.7541,-3.7469,-3.7414,-3.734,-3.7267,-3.7227,-3.7032,-3.6952,-3.6853,-3.6667,-3.6582,-3.6523,-3.6523,-3.6482,-3.6423,-3.6423,-3.6343,-3.6301,-3.6301,-3.6301,-3.6301,-3.6301,-3.5697,-3.4956,-3.4234,-3.3421,-3.2645,-3.1903,-3.18,-3.18,-3.18,-3.18,-3.18,-3.18,-3.18,-3.18,-3.18,-3.18,-3.18,-3.18,-3.18,-3.1764,-3.1709,-3.1709,-3.1653,-3.1559,-3.1464,-3.1368,-3.1271,-3.0932,-3.0758,-3.07,-2.9956,-2.9617,0.0,0.0,0.0,0.0,0.0,0.0,0.0,0.0,0.0,0.0,0.0,0.0,0.0,0.0,0.0,0.0,0.0,0.0,0.0,0.0,0.0,0.0,0.0,0.0,0.0,0.0,0.0,0.0,0.0,-3.6453,-3.6453,-3.6414,-3.6379,-3.6375,-3.6495,-3.6578,-3.6516,-3.7292,-3.796,-3.8488,-3.8692,-3.8804,-3.8804,-3.9008,-3.897,-3.8733,-3.8733,-3.8582,-3.8346,-3.8265,-3.8216,-3.8216,-3.8135,-3.8101,-3.8101,-3.8101,-3.8101,-3.8085,-3.7981,-3.7946,-3.7929,-3.7824,-3.7807,-3.7754,-3.7487,-3.7395,-3.7321,-3.7089,-3.6972,-3.6952,-3.6952,-3.6876,-3.6799,-3.6799,-3.6719,-3.6577,-3.6364,-3.6301,-3.6301,-3.6301,-3.5852,-3.5249,-3.451,-3.3869,-3.3162,-3.2214,-3.2076,-3.2007,-3.1817,-3.18,-3.18,-3.18,-3.18,-3.18,-3.18,-3.18,-3.18,-3.18,-3.18,-3.18,-3.18,-3.18,-3.1746,-3.1635,-3.1595,-3.15,-3.1351,-3.1351,-3.1329,-3.1269,-3.069,-3.04,0.0,0.0,0.0,0.0,0.0,0.0,0.0,0.0,0.0,0.0,0.0,0.0,0.0,0.0,0.0,0.0,0.0,0.0,0.0,0.0,0.0,0.0,0.0,0.0,0.0,0.0,0.0,0.0,0.0,-3.4744,-3.4744,-3.4733,-3.4711,-3.4626,-3.5364,-3.5771,-3.5768,-3.6491,-3.6844,-3.6829,-3.7596,-3.7949,-3.7986,-3.8748,-3.9101,-3.9073,-3.9073,-3.9073,-3.9013,-3.8718,-3.8563,-3.8533,-3.8216,-3.8101,-3.8101,-3.8101,-3.8101,-3.8101,-3.8101,-3.8085,-3.8085,-3.8085,-3.8085,-3.8085,-3.8068,-3.7964,-3.7859,-3.7842,-3.7754,-3.7648,-3.7648,-3.7631,-3.7631,-3.7631,-3.7596,-3.7304,-3.6492,-3.6301,-3.6301,-3.6301,-3.6266,-3.6008,-3.5266,-3.5111,-3.4559,-3.3076,-3.2852,-3.2593,-3.1886,-3.18,-3.18,-3.18,-3.18,-3.18,-3.18,-3.18,-3.18,-3.18,-3.18,-3.18,-3.18,-3.18,-3.18,-3.18,-3.1781,-3.1688,-3.1498,-3.1498,-3.1498,-3.1479,-3.1317,-3.1244,0.0,0.0,0.0,0.0,0.0,0.0,0.0,0.0,0.0,0.0,0.0,0.0,0.0,0.0,0.0,0.0,0.0,0.0,0.0,0.0,0.0,0.0,0.0,0.0,0.0,0.0,0.0,0.0,0.0,0.0,-3.4801,-3.4668,-3.4602,-3.4561,-3.4832,-3.5211,-3.5696,-3.5955,-3.6335,-3.6833,-3.7074,-3.7179,-3.7216,-3.7976,-3.8321,-3.8358,-3.8878,-3.9101,-3.9101,-3.897,-3.8927,-3.8913,-3.8796,-3.8733,-3.8733,-3.8733,-3.8733,-3.8733,-3.8733,-3.8733,-3.8733,-3.8733,-3.8733,-3.8703,-3.8489,-3.8392,-3.8293,-3.8082,-3.7998,-3.7946,-3.7946,-3.786,-3.7737,-3.7596,-3.7542,-3.7377,-3.6801,-3.6678,-3.6678,-3.6678,-3.6471,-3.6059,-3.5318,-3.5197,-3.4835,-3.3818,-3.3231,-3.28,-3.2541,-3.2093,-3.18,-3.18,-3.18,-3.18,-3.18,-3.18,-3.18,-3.18,-3.18,-3.18,-3.18,-3.18,-3.18,-3.18,-3.18,-3.1709,-3.1559,-3.1559,-3.1557,-3.1498,-3.1443,-3.1443,-1.745,0.0,0.0,0.0,0.0,0.0,0.0,0.0,0.0,0.0,0.0,0.0,0.0,0.0,0.0,0.0,0.0,0.0,0.0,0.0,0.0,0.0,0.0,0.0,0.0,0.0,0.0,0.0,0.0,0.0,-3.4889,-3.4781,-3.4668,-3.4594,-3.4612,-3.4824,-3.53,-3.5303,-3.5549,-3.6067,-3.6298,-3.6423,-3.6416,-3.7166,-3.7679,-3.7931,-3.8469,-3.8841,-3.9101,-3.9101,-3.9101,-3.9101,-3.9101,-3.9101,-3.9101,-3.9101,-3.9101,-3.9101,-3.9101,-3.9101,-3.9101,-3.9101,-3.9101,-3.9059,-3.8836,-3.8778,-3.8718,-3.8504,-3.8442,-3.8442,-3.8442,-3.8344,-3.8196,-3.803,-3.7997,-3.7929,-3.7632,-3.7228,-3.686,-3.6721,-3.6492,-3.6146,-3.5645,-3.5559,-3.5232,-3.4251,-3.3645,-3.311,-3.2593,-3.2093,-3.18,-3.18,-3.18,-3.18,-3.18,-3.18,-3.18,-3.18,-3.18,-3.18,-3.18,-3.18,-3.18,-3.18,-3.18,-3.1763,-3.1671,-3.1671,-3.1634,-3.1612,-3.1557,-3.1519,0.0,0.0,0.0,0.0,0.0,0.0,0.0,0.0,0.0,0.0,0.0,0.0,0.0,0.0,0.0,0.0,0.0,0.0,0.0,0.0,0.0,0.0,0.0,0.0,0.0,0.0,0.0,0.0,0.0,-3.5058,-3.4908,-3.4908,-3.4811,-3.4612,-3.4612,-3.4561,-3.4506,-3.4506,-3.4473,-3.4416,-3.5257,-3.5632,-3.559,-3.641,-3.716,-3.7819,-3.7888,-3.8339,-3.9064,-3.9082,-3.9101,-3.9101,-3.9101,-3.9101,-3.9101,-3.9101,-3.9101,-3.9101,-3.9101,-3.9101,-3.9101,-3.9101,-3.9101,-3.9101,-3.9101,-3.9101,-3.9101,-3.9101,-3.9101,-3.9101,-3.9101,-3.9101,-3.9073,-3.9007,-3.9011,-3.8983,-3.8892,-3.7859,-3.6821,-3.643,-3.6326,-3.6322,-3.6322,-3.6301,-3.5801,-3.4372,-3.413,-3.3561,-3.2024,-3.18,-3.18,-3.18,-3.18,-3.18,-3.18,-3.18,-3.18,-3.18,-3.18,-3.18,-3.18,-3.18,-3.18,-3.18,-3.18,-3.18,-3.18,-3.18,-3.18,-3.18,-3.1671,-3.1559,-1.789,0.0,0.0,0.0,0.0,0.0,0.0,0.0,0.0,0.0,0.0,0.0,0.0,0.0,0.0,0.0,0.0,0.0,0.0,0.0,0.0,0.0,0.0,0.0,0.0,0.0,0.0,0.0,-3.5438,-3.5243,-3.5047,-3.4812,-3.4658,-3.4612,-3.4612,-3.4583,-3.4561,-3.4561,-3.4561,-3.4558,-3.4738,-3.4817,-3.4824,-3.5637,-3.6081,-3.6298,-3.7471,-3.8064,-3.8284,-3.8859,-3.9101,-3.9101,-3.9101,-3.9101,-3.9101,-3.9101,-3.9101,-3.9101,-3.9101,-3.9101,-3.9101,-3.9101,-3.9101,-3.9101,-3.9101,-3.9101,-3.9101,-3.9101,-3.9101,-3.9087,-3.905,-3.9021,-3.9007,-3.8935,-3.8939,-3.8829,-3.8533,-3.8178,-3.7807,-3.7451,-3.7151,-3.6876,-3.6626,-3.6502,-3.6132,-3.5163,-3.4498,-3.3751,-3.2731,-3.2127,-3.18,-3.18,-3.18,-3.18,-3.18,-3.18,-3.18,-3.18,-3.18,-3.18,-3.18,-3.18,-3.18,-3.18,-3.18,-3.18,-3.18,-3.18,-3.18,-3.18,-3.1746,-3.1727,0.0,0.0,0.0,0.0,0.0,0.0,0.0,0.0,0.0,0.0,0.0,0.0,0.0,0.0,0.0,0.0,0.0,0.0,0.0,0.0,0.0,0.0,0.0,0.0,0.0,0.0,0.0,-3.4582,-3.4515,-3.4507,-3.468,-3.4718,-3.473,-3.473,-3.4636,-3.4612,-3.4612,-3.4612,-3.4612,-3.4602,-3.455,-3.4528,-3.4514,-3.4985,-3.5369,-3.5701,-3.6596,-3.7173,-3.7506,-3.8279,-3.8804,-3.9101,-3.9101,-3.9101,-3.9101,-3.9101,-3.9101,-3.9101,-3.9101,-3.9101,-3.9101,-3.9101,-3.9101,-3.9101,-3.9101,-3.9101,-3.9101,-3.9101,-3.9101,-3.9087,-3.9045,-3.905,-3.9036,-3.8993,-3.8993,-3.8917,-3.8685,-3.8621,-3.8468,-3.7858,-3.7578,-3.7359,-3.7151,-3.7055,-3.6735,-3.5996,-3.5053,-3.4189,-3.3529,-3.2686,-3.2126,-3.2126,-3.2091,-3.2002,-3.1839,-3.1837,-3.18,-3.18,-3.18,-3.18,-3.18,-3.18,-3.18,-3.18,-3.18,-3.18,-3.18,-3.18,-3.18,-3.18,-3.18,-3.18,0.0,0.0,0.0,0.0,0.0,0.0,0.0,-2.4108,0.0,0.0,0.0,0.0,0.0,0.0,0.0,0.0,0.0,0.0,0.0,0.0,0.0,0.0,0.0,0.0,0.0,-3.2952,-3.301,-3.3088,-3.3091,-3.3346,-3.3923,-3.4494,-3.4775,-3.4756,-3.4674,-3.4615,-3.4612,-3.4612,-3.4612,-3.4612,-3.4612,-3.4561,-3.4506,-3.4506,-3.4903,-3.5574,-3.5589,-3.6031,-3.6746,-3.7482,-3.8241,-3.8971,-3.9064,-3.9101,-3.9101,-3.9101,-3.9101,-3.9101,-3.9101,-3.9101,-3.9101,-3.9101,-3.9101,-3.9101,-3.9101,-3.9101,-3.9101,-3.9101,-3.9101,-3.9101,-3.9101,-3.9101,-3.9101,-3.9101,-3.9101,-3.9101,-3.9101,-3.9101,-3.8847,-3.8008,-3.7822,-3.7788,-3.7754,-3.7665,-3.7341,-3.6583,-3.5523,-3.4654,-3.4141,-3.3239,-3.2638,-3.2638,-3.2554,-3.2351,-3.2056,-3.1948,-3.1874,-3.1874,-3.1819,-3.1818,-3.18,-3.18,-3.18,-3.18,-3.18,-3.18,-3.18,-3.18,-3.18,-3.18,-3.18,-3.18,0.0,0.0,0.0,0.0,0.0,0.0,0.0,-2.3248,0.0,0.0,0.0,0.0,0.0,0.0,0.0,0.0,0.0,0.0,0.0,0.0,0.0,0.0,0.0,0.0,0.0,-3.2043,-3.2333,-3.3049,-3.2995,-3.3,-3.3128,-3.3758,-3.4027,-3.3866,-3.45,-3.4771,-3.4612,-3.4612,-3.4612,-3.4612,-3.4612,-3.4583,-3.4572,-3.4572,-3.4633,-3.4765,-3.5397,-3.5773,-3.598,-3.6777,-3.7515,-3.8191,-3.8841,-3.9101,-3.9101,-3.9101,-3.9101,-3.9101,-3.9101,-3.9101,-3.9101,-3.9101,-3.9101,-3.9101,-3.9101,-3.9101,-3.9101,-3.9101,-3.9101,-3.9101,-3.9101,-3.9101,-3.9101,-3.9101,-3.9101,-3.9101,-3.9101,-3.9101,-3.9059,-3.8861,-3.8606,-3.8342,-3.8065,-3.7388,-3.6616,-3.5838,-3.4934,-3.4064,-3.3332,-3.3052,-3.2916,-3.2916,-3.2901,-3.287,-3.2791,-3.2569,-3.2403,-3.23,-3.2038,-3.1857,-3.18,-3.18,-3.18,-3.18,-3.18,-3.18,-3.18,-3.18,-3.18,-3.18,-3.18,-3.18,0.0,0.0,0.0,-2.4944,0.0,0.0,0.0,0.0,0.0,0.0,0.0,0.0,0.0,0.0,0.0,0.0,0.0,0.0,0.0,0.0,0.0,0.0,0.0,0.0,0.0,-3.0969,-3.1386,-3.1816,-3.216,-3.2359,-3.2359,-3.3019,-3.3532,-3.3837,-3.4213,-3.4518,-3.4751,-3.4751,-3.4699,-3.4612,-3.4612,-3.4612,-3.4612,-3.4612,-3.4572,-3.4558,-3.4937,-3.509,-3.5161,-3.5967,-3.674,-3.7465,-3.8258,-3.8775,-3.9101,-3.9101,-3.9101,-3.9101,-3.9101,-3.9101,-3.9101,-3.9101,-3.9101,-3.9101,-3.9101,-3.9101,-3.9101,-3.9101,-3.9101,-3.9101,-3.9101,-3.9101,-3.9101,-3.9101,-3.9101,-3.9101,-3.9101,-3.9101,-3.9101,-3.9101,-3.897,-3.8663,-3.8098,-3.7616,-3.7018,-3.6208,-3.5243,-3.4513,-3.4284,-3.3755,-3.34,-3.34,-3.3339,-3.3248,-3.3118,-3.2781,-3.2571,-3.2504,-3.2179,-3.1966,-3.1947,-3.1893,-3.1838,-3.18,-3.18,-3.18,-3.18,-3.18,-3.18,-3.18,-3.18,-3.18,0.0,0.0,0.0,0.0,0.0,-2.5485,0.0,0.0,0.0,0.0,0.0,0.0,0.0,0.0,0.0,0.0,0.0,0.0,0.0,0.0,0.0,0.0,0.0,0.0,0.0,-2.9586,-2.9991,-3.0336,-3.0796,-3.1217,-3.1541,-3.2276,-3.2981,-3.3609,-3.3807,-3.4154,-3.4698,-3.4832,-3.4821,-3.4658,-3.4658,-3.4626,-3.4612,-3.4612,-3.4612,-3.4602,-3.4539,-3.4517,-3.4573,-3.521,-3.6053,-3.6982,-3.7722,-3.8489,-3.9142,-3.9129,-3.9129,-3.9115,-3.9101,-3.9101,-3.9101,-3.9101,-3.9101,-3.9101,-3.9101,-3.9101,-3.9101,-3.9101,-3.9101,-3.9101,-3.9101,-3.9101,-3.9101,-3.9101,-3.9101,-3.9101,-3.9101,-3.9101,-3.9101,-3.9101,-3.9101,-3.8897,-3.8228,-3.7986,-3.7671,-3.7021,-3.6019,-3.5417,-3.5708,-3.48,-3.4126,-3.4126,-3.3889,-3.3639,-3.34,-3.3003,-3.2736,-3.2719,-3.2335,-3.2108,-3.209,-3.1966,-3.1875,-3.18,-3.18,-3.18,-3.18,-3.18,-3.18,-3.18,-3.18,-3.18,0.0,0.0,0.0,0.0,-2.7874,0.0,0.0,0.0,0.0,0.0,0.0,0.0,0.0,0.0,0.0,0.0,0.0,0.0,0.0,0.0,0.0,0.0,0.0,0.0,0.0,0.0,-2.7854,-2.9347,-2.8821,-2.9102,-3.0656,-3.1492,-3.1918,-3.1872,-3.3206,-3.3936,-3.4015,-3.4612,-3.4898,-3.487,-3.487,-3.4781,-3.4612,-3.4612,-3.4612,-3.4602,-3.4583,-3.4602,-3.4602,-3.4685,-3.5615,-3.7055,-3.7804,-3.86,-3.9346,-3.9229,-3.9183,-3.9183,-3.9129,-3.9101,-3.9101,-3.9101,-3.9101,-3.9101,-3.9101,-3.9101,-3.9101,-3.9101,-3.9101,-3.9101,-3.9101,-3.9101,-3.9101,-3.9101,-3.9101,-3.9101,-3.9101,-3.9101,-3.9101,-3.9101,-3.9101,-3.9064,-3.8971,-3.8377,-3.7856,-3.7782,-3.7063,-3.653,-3.6556,-3.5838,-3.5311,-3.5311,-3.4593,-3.4117,-3.408,-3.356,-3.3202,-3.3139,-3.2538,-3.2161,-3.209,-3.1966,-3.1875,-3.18,-3.18,-3.18,-3.18,-3.18,-3.18,-3.18,-3.18,-3.18,0.0,0.0,0.0,0.0,0.0,0.0,0.0,0.0,-2.5447,0.0,0.0,0.0,0.0,0.0,0.0,0.0,0.0,0.0,0.0,0.0,0.0,0.0,0.0,0.0,0.0,0.0,0.0,0.0,0.0,-2.8055,-2.9745,-3.0171,-3.0777,-3.1681,-3.2337,-3.3115,-3.4012,-3.4297,-3.4631,-3.5015,-3.5015,-3.4971,-3.4889,-3.4812,-3.4781,-3.4771,-3.4647,-3.4612,-3.4612,-3.4612,-3.5304,-3.6433,-3.7216,-3.829,-3.9386,-3.9346,-3.9256,-3.9197,-3.9261,-3.9202,-3.9101,-3.9101,-3.9101,-3.9101,-3.9101,-3.9101,-3.9101,-3.9101,-3.9101,-3.9101,-3.9101,-3.9101,-3.9101,-3.9101,-3.9101,-3.9101,-3.9101,-3.9101,-3.9101,-3.9101,-3.9101,-3.9101,-3.9101,-3.8432,-3.7745,-3.7262,-3.6922,-3.6699,-3.6699,-3.6012,-3.5677,-3.616,-3.5008,-3.4401,-3.4915,-3.4118,-3.3583,-3.355,-3.3093,-3.2702,-3.2404,-3.2353,-3.2144,-3.1818,-3.18,-3.18,-3.18,-3.18,-3.18,-3.18,-3.18,-3.18,-2.9477,0.0,0.0,0.0,0.0,0.0,0.0,0.0,0.0,0.0,0.0,0.0,0.0,0.0,0.0,0.0,0.0,0.0,0.0,0.0,0.0,0.0,0.0,0.0,0.0,0.0,0.0,0.0,0.0,0.0,-2.8876,-2.9178,-2.9866,-3.1086,-3.1516,-3.2414,-3.382,-3.4013,-3.4457,-3.5178,-3.5178,-3.5154,-3.5106,-3.4988,-3.4944,-3.4944,-3.4793,-3.4711,-3.4678,-3.4678,-3.5163,-3.5972,-3.6791,-3.7914,-3.9138,-3.9337,-3.9373,-3.9283,-3.9373,-3.9301,-3.9188,-3.9188,-3.9188,-3.9188,-3.9188,-3.9188,-3.9156,-3.9129,-3.9129,-3.9129,-3.9101,-3.9101,-3.9101,-3.9101,-3.9101,-3.9101,-3.9101,-3.9101,-3.9101,-3.9101,-3.9101,-3.9101,-3.9101,-3.8618,-3.8024,-3.7448,-3.7355,-3.7355,-3.7355,-3.6649,-3.6383,-3.6965,-3.5739,-3.5052,-3.5454,-3.466,-3.4,-3.3666,-3.3437,-3.3142,-3.2766,-3.2752,-3.2538,-3.2109,-3.2073,-3.2037,-3.1947,-3.1947,-3.1893,-3.18,-3.18,-3.18,0.0,0.0,0.0,-2.9024,0.0,0.0,0.0,0.0,-2.7652,0.0,0.0,0.0,0.0,0.0,0.0,-2.3231,0.0,0.0,0.0,0.0,0.0,0.0,0.0,0.0,0.0,0.0,0.0,0.0,0.0,0.0,-2.8005,-2.8876,-2.9313,-2.9386,-3.0838,-3.2093,-3.3116,-3.3788,-3.4532,-3.5391,-3.5391,-3.5288,-3.5106,-3.5098,-3.5098,-3.5098,-3.5089,-3.5015,-3.4898,-3.4898,-3.5281,-3.5972,-3.6791,-3.7606,-3.8426,-3.9221,-3.9495,-3.9482,-3.9418,-3.9405,-3.9391,-3.9391,-3.9391,-3.9391,-3.9391,-3.9391,-3.936,-3.9242,-3.9197,-3.9183,-3.9115,-3.9101,-3.9101,-3.9101,-3.9101,-3.9101,-3.9101,-3.9101,-3.9101,-3.9101,-3.9101,-3.9101,-3.9101,-3.9082,-3.9045,-3.9027,-3.9027,-3.9027,-3.9027,-3.8321,-3.7819,-3.7856,-3.7113,-3.6328,-3.5566,-3.5158,-3.4503,-3.339,-3.3306,-3.3258,-3.3184,-3.3126,-3.3016,-3.2872,-3.2811,-3.2602,-3.2283,-3.2283,-3.2126,-3.18,-3.18,-3.18,0.0,0.0,-3.3526,-3.064,0.0,0.0,0.0,0.0,0.0,0.0,0.0,0.0,0.0,0.0,-2.429,-2.4001,-2.3476,0.0,0.0,0.0,0.0,0.0,0.0,0.0,0.0,0.0,0.0,0.0,0.0,0.0,0.0,-2.8043,-2.8741,-2.9274,-3.0376,-3.1637,-3.3088,-3.3316,-3.4168,-3.5608,-3.5608,-3.5565,-3.5496,-3.5364,-3.5302,-3.5295,-3.5162,-3.5073,-3.5041,-3.5041,-3.5501,-3.6302,-3.6969,-3.7748,-3.8587,-3.9306,-3.9533,-3.9482,-3.9431,-3.9431,-3.9457,-3.9418,-3.9405,-3.9405,-3.9405,-3.9405,-3.9391,-3.9346,-3.9328,-3.9333,-3.9301,-3.9288,-3.9288,-3.9288,-3.9229,-3.917,-3.917,-3.9129,-3.9101,-3.9101,-3.9101,-3.9101,-3.9101,-3.9101,-3.9101,-3.9101,-3.9101,-3.9101,-3.9101,-3.8395,-3.8098,-3.8637,-3.7503,-3.6798,-3.7071,-3.6014,-3.5164,-3.4776,-3.4197,-3.3765,-3.3486,-3.3443,-3.3281,-3.2978,-3.2903,-3.2809,-3.2699,-3.265,-3.2569,-3.2453,-3.2453,-3.2214,-3.4775,-3.4919,0.0,-3.2302,-3.1484,0.0,-2.8044,0.0,0.0,0.0,0.0,0.0,0.0,0.0,0.0,-2.5277,-2.4078,0.0,0.0,0.0,0.0,0.0,0.0,0.0,0.0,0.0,-2.344,-2.4666,0.0,0.0,0.0,0.0,-2.8337,-2.8853,-3.0004,-3.1399,-3.3083,-3.3093,-3.3977,-3.5704,-3.5704,-3.5704,-3.5704,-3.5565,-3.5509,-3.5502,-3.5371,-3.5273,-3.5201,-3.5201,-3.5675,-3.6468,-3.7129,-3.7937,-3.8791,-3.9371,-3.9583,-3.9533,-3.9495,-3.9508,-3.9533,-3.9495,-3.9482,-3.9482,-3.9482,-3.9482,-3.9469,-3.9444,-3.9444,-3.9431,-3.9405,-3.9405,-3.9405,-3.9405,-3.9328,-3.9269,-3.9269,-3.9229,-3.9202,-3.9202,-3.9202,-3.9202,-3.9202,-3.9202,-3.9188,-3.9115,-3.9101,-3.9101,-3.9101,-3.8655,-3.8525,-3.9045,-3.8172,-3.7652,-3.7875,-3.6439,-3.551,-3.551,-3.468,-3.408,-3.3813,-3.3787,-3.3666,-3.3393,-3.3339,-3.3237,-3.3118,-3.306,-3.2952,-3.2842,-3.2811,-3.2569]},{"header":{"parameterUnit":"m.s-1","parameterCategory":1,"la1":30.6,"la2":29.2853,"lo1":-89.7004,"lo2":-87.6739,"dy":0.0162,"dx":0.0183,"nx":112,"ny":82,"refTime":"2025-05-15T00:00:00:Z","depth":0,"parameterNumber":3,"parameterNumberName":"V-component_of_WINDS"},"data":[0.0,0.0,0.0,0.0,0.0,0.0,0.0,0.0,0.0,0.0,0.0,0.0,0.0,0.0,0.0,0.0,0.0,0.0,0.0,0.0,0.0,0.0,0.0,0.0,0.0,0.0,0.0,0.0,0.0,0.0,0.0,0.0,0.0,0.0,0.0,0.0,0.0,0.0,0.0,0.0,0.0,0.0,0.0,0.0,0.0,0.0,0.0,0.0,0.0,0.0,0.0,0.0,0.0,0.0,0.0,0.0,0.0,0.0,0.0,0.0,0.0,0.0,0.0,0.0,0.0,0.0,0.0,0.0,0.0,0.0,0.0,0.0,0.0,0.0,0.0,0.0,0.0,0.0,0.0,0.0,0.0,0.0,0.0,0.0,0.0,0.0,0.0,0.0,0.0,0.0,0.0,-1.4169,-1.557,-1.6457,-1.6607,-1.6531,-1.5814,-1.4199,0.0,0.0,0.0,0.0,0.0,0.0,0.0,0.0,0.0,0.0,0.0,0.0,0.0,0.0,0.0,0.0,0.0,0.0,0.0,0.0,0.0,0.0,0.0,0.0,0.0,0.0,0.0,0.0,0.0,0.0,0.0,0.0,0.0,0.0,0.0,0.0,0.0,0.0,0.0,0.0,0.0,0.0,0.0,0.0,0.0,0.0,0.0,0.0,0.0,0.0,0.0,0.0,0.0,0.0,0.0,0.0,0.0,0.0,0.0,0.0,0.0,0.0,0.0,0.0,0.0,0.0,0.0,0.0,0.0,0.0,0.0,0.0,0.0,0.0,0.0,0.0,0.0,0.0,0.0,0.0,0.0,0.0,0.0,0.0,0.0,0.0,0.0,0.0,0.0,0.0,0.0,0.0,0.0,0.0,0.0,0.0,0.0,0.0,0.0,0.0,0.0,0.0,0.0,0.0,-1.3353,-1.584,-1.6328,-1.665,-1.7052,-1.6723,-1.5939,-1.4677,0.0,0.0,0.0,0.0,0.0,0.0,0.0,0.0,0.0,0.0,0.0,0.0,0.0,0.0,0.0,0.0,0.0,0.0,0.0,0.0,0.0,0.0,0.0,0.0,0.0,0.0,0.0,0.0,0.0,0.0,0.0,0.0,0.0,0.0,0.0,0.0,0.0,0.0,0.0,0.0,0.0,0.0,0.0,0.0,0.0,0.0,0.0,0.0,0.0,0.0,0.0,0.0,0.0,0.0,0.0,0.0,0.0,0.0,0.0,0.0,0.0,0.0,0.0,0.0,0.0,0.0,0.0,0.0,0.0,0.0,0.0,0.0,0.0,0.0,0.0,0.0,0.0,0.0,0.0,0.0,0.0,0.0,0.0,0.0,0.0,0.0,0.0,0.0,0.0,0.0,0.0,0.0,0.0,0.0,0.0,0.0,0.0,0.0,0.0,0.0,0.0,0.0,0.0,-1.3365,-1.4475,-1.664,-1.6871,-1.6968,-1.7178,-1.6778,-1.5871,-1.44,-1.3103,0.0,0.0,0.0,0.0,0.0,0.0,0.0,0.0,0.0,0.0,0.0,0.0,0.0,0.0,0.0,0.0,0.0,0.0,0.0,0.0,0.0,0.0,0.0,0.0,0.0,0.0,0.0,0.0,0.0,0.0,0.0,0.0,0.0,0.0,0.0,0.0,0.0,0.0,0.0,0.0,0.0,0.0,0.0,0.0,0.0,0.0,0.0,0.0,0.0,0.0,0.0,0.0,0.0,0.0,0.0,0.0,0.0,0.0,0.0,0.0,0.0,0.0,0.0,0.0,0.0,0.0,0.0,0.0,0.0,0.0,0.0,0.0,0.0,0.0,0.0,0.0,0.0,0.0,0.0,0.0,0.0,0.0,0.0,0.0,0.0,0.0,0.0,0.0,0.0,0.0,0.0,0.0,0.0,0.0,0.0,0.0,0.0,0.0,0.0,0.0,0.0,0.0,-1.487,-1.5652,-1.7055,-1.7199,-1.7282,-1.7496,-1.6801,-1.5737,-1.43,-1.2685,0.0,0.0,0.0,0.0,0.0,0.0,0.0,0.0,0.0,0.0,0.0,0.0,0.0,0.0,0.0,0.0,0.0,0.0,0.0,0.0,0.0,0.0,0.0,0.0,0.0,0.0,0.0,0.0,0.0,0.0,0.0,0.0,0.0,0.0,0.0,0.0,0.0,0.0,0.0,0.0,0.0,0.0,0.0,0.0,0.0,0.0,0.0,0.0,0.0,0.0,0.0,0.0,0.0,0.0,0.0,0.0,0.0,0.0,0.0,0.0,0.0,0.0,0.0,0.0,0.0,0.0,0.0,0.0,0.0,0.0,0.0,0.0,0.0,0.0,0.0,0.0,0.0,0.0,0.0,0.0,0.0,0.0,0.0,0.0,0.0,0.0,0.0,0.0,0.0,0.0,0.0,0.0,0.0,0.0,0.0,0.0,0.0,0.0,0.0,0.0,0.0,0.0,-1.5103,-1.6596,-1.7144,-1.7199,-1.7537,-1.8344,-1.6891,-1.5638,-1.4883,-1.2345,0.0,0.0,0.0,0.0,0.0,0.0,0.0,0.0,0.0,0.0,0.0,0.0,0.0,0.0,0.0,0.0,0.0,0.0,0.0,0.0,0.0,0.0,0.0,0.0,0.0,0.0,0.0,0.0,0.0,0.0,0.0,0.0,0.0,0.0,0.0,0.0,0.0,0.0,0.0,0.0,0.0,0.0,0.0,0.0,0.0,0.0,0.0,0.0,0.0,0.0,0.0,0.0,0.0,0.0,0.0,0.0,0.0,0.0,0.0,0.0,0.0,0.0,0.0,0.0,0.0,0.0,0.0,0.0,0.0,0.0,0.0,0.0,0.0,0.0,0.0,0.0,0.0,0.0,0.0,0.0,0.0,0.0,0.0,0.0,0.0,0.0,0.0,0.0,0.0,0.0,0.0,0.0,0.0,0.0,0.0,0.0,0.0,0.0,0.0,0.0,0.0,0.0,-1.5243,-1.6904,0.0,-1.7828,-1.8028,-1.8048,-1.7466,-1.6303,-1.4449,0.0,0.0,0.0,0.0,0.0,0.0,0.0,0.0,0.0,0.0,0.0,0.0,0.0,0.0,0.0,0.0,0.0,0.0,0.0,0.0,0.0,0.0,0.0,0.0,0.0,0.0,0.0,0.0,0.0,0.0,0.0,0.0,0.0,0.0,0.0,0.0,0.0,0.0,0.0,0.0,0.0,0.0,0.0,0.0,0.0,0.0,0.0,0.0,0.0,0.0,0.0,0.0,0.0,0.0,0.0,0.0,0.0,0.0,0.0,0.0,0.0,0.0,0.0,0.0,0.0,0.0,0.0,0.0,0.0,0.0,0.0,0.0,0.0,0.0,0.0,0.0,0.0,0.0,0.0,0.0,0.0,0.0,0.0,0.0,0.0,0.0,0.0,0.0,0.0,0.0,0.0,0.0,0.0,0.0,0.0,0.0,0.0,0.0,0.0,0.0,0.0,0.0,-1.3425,-1.5568,-1.7141,0.0,-1.8088,-1.8266,-1.8226,-1.7841,-1.6679,-1.4543,0.0,0.0,0.0,0.0,0.0,0.0,0.0,0.0,0.0,0.0,0.0,0.0,0.0,0.0,0.0,0.0,0.0,0.0,0.0,0.0,0.0,0.0,0.0,0.0,0.0,0.0,0.0,0.0,0.0,0.0,0.0,0.0,0.0,0.0,0.0,0.0,0.0,0.0,0.0,0.0,0.0,0.0,0.0,0.0,0.0,0.0,0.0,0.0,0.0,0.0,0.0,0.0,0.0,0.0,0.0,0.0,0.0,0.0,0.0,0.0,0.0,0.0,0.0,0.0,0.0,0.0,0.0,0.0,0.0,0.0,0.0,0.0,0.0,0.0,0.0,0.0,0.0,0.0,0.0,0.0,0.0,0.0,0.0,0.0,0.0,0.0,0.0,0.0,0.0,0.0,0.0,0.0,0.0,0.0,0.0,0.0,0.0,0.0,0.0,0.0,0.0,0.0,-1.4398,-1.6133,-1.7372,-1.7767,-1.7808,-1.8167,-1.9026,-1.7954,-1.6661,0.0,0.0,0.0,0.0,0.0,0.0,0.0,0.0,0.0,0.0,0.0,0.0,0.0,0.0,0.0,0.0,0.0,0.0,0.0,0.0,0.0,0.0,0.0,0.0,0.0,0.0,0.0,0.0,0.0,0.0,0.0,0.0,0.0,0.0,0.0,0.0,0.0,0.0,0.0,0.0,0.0,0.0,0.0,0.0,0.0,0.0,0.0,0.0,0.0,0.0,0.0,0.0,0.0,0.0,0.0,0.0,0.0,0.0,0.0,0.0,0.0,0.0,0.0,0.0,0.0,0.0,0.0,0.0,0.0,0.0,0.0,0.0,0.0,0.0,0.0,0.0,0.0,0.0,0.0,0.0,0.0,0.0,0.0,0.0,0.0,0.0,0.0,0.0,0.0,0.0,0.0,0.0,0.0,0.0,0.0,0.0,0.0,0.0,0.0,0.0,0.0,0.0,0.0,0.0,-1.6828,-1.8167,-1.8285,-1.8553,-1.8707,-1.8688,-1.8605,-1.7485,-1.4969,0.0,0.0,0.0,0.0,0.0,0.0,0.0,0.0,0.0,0.0,0.0,0.0,0.0,0.0,0.0,0.0,0.0,0.0,0.0,0.0,0.0,0.0,0.0,0.0,0.0,0.0,0.0,0.0,0.0,0.0,0.0,0.0,0.0,0.0,0.0,0.0,0.0,0.0,0.0,0.0,0.0,0.0,0.0,0.0,0.0,0.0,0.0,0.0,0.0,0.0,0.0,0.0,0.0,0.0,0.0,0.0,0.0,0.0,0.0,0.0,0.0,0.0,0.0,0.0,0.0,0.0,0.0,0.0,0.0,0.0,0.0,0.0,0.0,0.0,0.0,0.0,0.0,0.0,0.0,0.0,0.0,0.0,0.0,0.0,0.0,0.0,0.0,0.0,0.0,0.0,0.0,0.0,0.0,0.0,0.0,0.0,0.0,0.0,0.0,0.0,0.0,0.0,-1.5492,-1.7562,-1.8762,-1.8542,-1.8921,-1.9094,-1.876,-1.8969,-1.7993,-1.54,0.0,0.0,0.0,0.0,0.0,0.0,0.0,0.0,0.0,0.0,0.0,0.0,0.0,0.0,0.0,0.0,0.0,0.0,0.0,0.0,0.0,0.0,0.0,0.0,0.0,0.0,0.0,0.0,0.0,0.0,0.0,0.0,0.0,0.0,0.0,0.0,0.0,0.0,0.0,0.0,0.0,0.0,0.0,0.0,0.0,0.0,0.0,0.0,0.0,0.0,0.0,0.0,0.0,0.0,0.0,0.0,0.0,0.0,0.0,0.0,0.0,0.0,0.0,0.0,0.0,0.0,0.0,0.0,0.0,0.0,0.0,0.0,0.0,0.0,0.0,0.0,0.0,0.0,0.0,0.0,0.0,0.0,0.0,0.0,0.0,0.0,0.0,0.0,0.0,0.0,0.0,0.0,0.0,0.0,0.0,0.0,0.0,0.0,0.0,0.0,0.0,0.0,-1.636,-1.8256,-1.919,-1.8609,-1.9103,-1.937,-1.9121,-1.9101,-1.8303,-1.6416,0.0,0.0,0.0,0.0,0.0,0.0,0.0,0.0,0.0,0.0,0.0,0.0,0.0,0.0,0.0,0.0,0.0,0.0,0.0,0.0,0.0,0.0,0.0,0.0,0.0,0.0,0.0,0.0,0.0,0.0,0.0,0.0,0.0,0.0,0.0,0.0,0.0,0.0,0.0,0.0,0.0,0.0,0.0,0.0,0.0,0.0,0.0,0.0,0.0,0.0,0.0,0.0,0.0,0.0,0.0,0.0,0.0,0.0,0.0,0.0,-1.2245,0.0,0.0,0.0,0.0,0.0,0.0,0.0,0.0,0.0,0.0,0.0,0.0,0.0,0.0,0.0,0.0,0.0,0.0,0.0,0.0,0.0,0.0,0.0,0.0,0.0,0.0,0.0,0.0,0.0,0.0,0.0,0.0,0.0,0.0,0.0,0.0,0.0,0.0,0.0,0.0,0.0,-1.6757,-1.8442,-1.929,-1.8989,-1.9546,-1.9715,-1.9159,-1.9101,-1.8506,-1.7084,0.0,0.0,0.0,0.0,0.0,0.0,0.0,0.0,0.0,0.0,0.0,0.0,0.0,0.0,0.0,0.0,0.0,0.0,0.0,0.0,0.0,0.0,0.0,0.0,0.0,0.0,0.0,0.0,0.0,0.0,0.0,0.0,0.0,0.0,0.0,0.0,0.0,0.0,0.0,0.0,0.0,0.0,0.0,0.0,0.0,0.0,0.0,0.0,0.0,0.0,0.0,0.0,0.0,0.0,0.0,0.0,0.0,0.0,0.0,0.0,0.0,-1.2969,0.0,0.0,0.0,0.0,0.0,0.0,0.0,0.0,0.0,0.0,0.0,0.0,0.0,0.0,0.0,0.0,0.0,0.0,0.0,0.0,0.0,0.0,0.0,0.0,0.0,0.0,0.0,0.0,0.0,0.0,0.0,0.0,0.0,0.0,0.0,0.0,0.0,0.0,0.0,0.0,-1.776,-1.9315,-2.0122,-2.0025,-2.032,-2.0262,-1.9638,-1.929,-1.8588,-1.7427,-1.6331,0.0,0.0,0.0,0.0,0.0,0.0,0.0,0.0,0.0,0.0,0.0,0.0,0.0,0.0,0.0,0.0,0.0,0.0,0.0,0.0,0.0,0.0,0.0,0.0,0.0,0.0,0.0,0.0,0.0,0.0,0.0,0.0,0.0,0.0,0.0,0.0,0.0,0.0,0.0,0.0,0.0,0.0,0.0,0.0,0.0,0.0,0.0,0.0,0.0,0.0,0.0,0.0,0.0,-1.6131,-1.6591,-1.6885,-1.7415,-1.7717,-1.7683,-1.5487,-1.4614,-1.4706,0.0,0.0,0.0,0.0,0.0,0.0,0.0,0.0,0.0,0.0,0.0,0.0,0.0,0.0,0.0,0.0,0.0,0.0,0.0,0.0,0.0,0.0,0.0,0.0,0.0,-1.6125,-1.6229,0.0,0.0,0.0,0.0,0.0,0.0,0.0,0.0,0.0,0.0,0.0,0.0,-1.8705,-2.0159,-2.092,-2.0988,-2.1003,-2.0756,-2.0146,-1.9493,-1.872,-1.7838,-1.6996,-1.5776,0.0,0.0,0.0,0.0,0.0,0.0,0.0,0.0,0.0,0.0,0.0,0.0,0.0,0.0,0.0,0.0,0.0,0.0,0.0,0.0,0.0,0.0,0.0,0.0,0.0,0.0,0.0,0.0,0.0,0.0,0.0,0.0,-0.732,-0.817,0.0,0.0,0.0,0.0,0.0,0.0,0.0,0.0,0.0,0.0,0.0,0.0,0.0,0.0,-1.4914,-1.7164,-1.7886,-1.712,-1.8035,-1.8299,-1.7901,-1.846,-1.8942,-1.9344,-1.854,0.0,-1.629,-1.5858,0.0,0.0,0.0,0.0,0.0,0.0,0.0,0.0,0.0,0.0,0.0,0.0,0.0,0.0,0.0,0.0,0.0,0.0,0.0,0.0,0.0,0.0,-1.7099,-1.723,-1.7363,-1.7434,0.0,-1.5673,-1.3907,-1.2918,-1.2423,0.0,0.0,0.0,0.0,0.0,0.0,0.0,-1.877,-1.9898,-2.0606,-2.0947,-2.1003,-2.0756,-2.0146,-1.9493,-1.9039,-1.8896,-1.8296,-1.7073,-1.5169,-1.4513,0.0,0.0,0.0,0.0,0.0,0.0,0.0,0.0,0.0,0.0,0.0,0.0,0.0,0.0,0.0,0.0,0.0,0.0,0.0,0.0,0.0,0.0,0.0,0.0,0.0,0.0,0.0,0.0,0.0,-0.7125,-0.8255,-0.9027,-0.9122,-0.9154,0.0,0.0,0.0,0.0,0.0,0.0,0.0,0.0,0.0,-1.4105,-1.59,-1.7006,-1.7315,-1.8663,-1.9539,-1.9941,-2.0389,-2.063,-2.0699,-2.0917,-2.1146,-2.1365,-2.1155,-2.022,-1.8818,-1.7705,-1.6654,-1.573,0.0,0.0,0.0,0.0,-1.595,-1.6105,-1.7291,-1.7556,0.0,0.0,0.0,0.0,0.0,0.0,0.0,0.0,0.0,0.0,0.0,0.0,0.0,-1.8382,-1.8736,-1.8848,-1.8437,-1.7597,-1.6618,0.0,-1.4916,-1.4154,-1.3093,0.0,0.0,0.0,0.0,0.0,-1.9855,-2.0563,-2.1064,-2.1617,-2.081,-2.0203,-2.0209,-1.9316,-1.8765,-1.8765,-1.8743,-1.7966,-1.6314,-1.6073,-1.4889,0.0,0.0,0.0,0.0,0.0,0.0,0.0,0.0,0.0,0.0,0.0,0.0,0.0,0.0,0.0,0.0,0.0,0.0,0.0,0.0,0.0,0.0,0.0,0.0,0.0,0.0,0.0,0.0,-0.8135,-0.9156,-0.9812,-1.0083,-1.0251,0.0,0.0,0.0,0.0,0.0,0.0,-1.3242,-1.5416,-1.6559,-1.6306,-1.8119,-1.92,-1.95,-2.0125,-2.0951,-2.1894,-2.1894,-2.2122,-2.249,-2.249,-2.2559,-2.2707,-2.2547,-2.2026,-2.1101,-1.946,-1.8197,-1.727,-1.7458,-1.7096,-1.6633,-1.7639,-1.8013,-1.8205,-1.954,-1.9901,-1.9724,-1.9191,0.0,-1.7964,-1.6643,0.0,0.0,0.0,0.0,-1.7074,-1.7858,-1.8487,-1.9085,-1.9619,-2.0049,-2.015,-1.9486,-1.9318,-1.8933,0.0,-1.7052,-1.6317,-1.5344,0.0,0.0,0.0,0.0,-1.8551,-2.0571,-2.0956,-2.1286,-2.1936,-2.0666,-1.9861,-2.0093,-1.9117,-1.8442,-1.8324,-1.8707,-1.8379,-1.7118,-1.7309,-1.6457,-1.4361,0.0,0.0,0.0,0.0,0.0,0.0,0.0,0.0,0.0,0.0,0.0,0.0,0.0,0.0,0.0,0.0,0.0,0.0,0.0,0.0,0.0,0.0,0.0,0.0,0.0,0.0,0.0,0.0,0.0,-1.0593,-1.1437,0.0,0.0,0.0,0.0,-1.3841,-1.4044,-1.4516,-1.5484,-1.7582,-1.8232,-1.7158,-2.0127,-2.1514,-2.1086,-2.2063,-2.2329,-2.1894,-2.1894,-2.1906,-2.1929,-2.1929,-2.2226,-2.2684,-2.218,-2.2191,-2.2511,-2.1198,-1.9807,-1.8543,-1.8809,-1.8785,-1.8729,-1.9429,-1.9688,-1.9772,-2.0358,-2.0225,-1.9965,-2.0923,-2.0887,-2.0334,-1.9732,-1.9191,0.0,0.0,-1.9274,-1.9794,-1.9843,-2.0404,-2.0973,-2.1166,-2.1219,-2.1247,-2.1352,-2.0953,-2.0073,0.0,-1.8033,-1.7913,-1.7358,0.0,-1.7744,-1.7878,-1.8326,-1.9062,-2.0283,-2.0547,-2.0838,-2.1387,-2.0747,-2.0093,-1.9671,-1.8954,-1.8305,-1.7848,-1.8266,-1.8159,-1.7313,-1.7955,-1.7361,-1.528,-1.3984,0.0,0.0,0.0,0.0,0.0,0.0,0.0,0.0,0.0,0.0,0.0,0.0,0.0,0.0,0.0,0.0,0.0,0.0,0.0,0.0,0.0,0.0,0.0,0.0,0.0,0.0,0.0,0.0,-1.1861,-1.2471,0.0,0.0,-1.3691,-1.3942,-1.3988,-1.5896,-1.7069,-1.7179,-1.9494,-2.0645,-2.022,-2.1316,-2.1996,-2.2167,-2.2535,-2.2914,-2.3385,-2.3385,-2.3385,-2.3385,-2.3385,-2.3488,-2.3649,-2.3465,-2.3433,-2.349,-2.3042,-2.206,-2.0857,-2.1113,-2.1044,-2.0879,-2.1614,-2.1867,-2.1951,-2.245,-2.2541,-2.2325,-2.2005,-2.1548,-2.1019,-2.0482,-2.0181,-2.0037,-2.0033,-1.9941,-2.002,-2.0721,-2.0908,-2.1027,-2.1514,-2.1716,-2.1761,-2.154,-2.1358,-2.1016,-2.0373,-1.9434,-1.8531,-1.8003,-1.8019,-1.8063,-1.8004,-1.8811,-1.9647,-2.0317,-2.0532,-2.0682,-2.0868,-2.0037,-1.9363,-1.9106,-1.8528,-1.8083,-1.7814,-1.8028,-1.7914,-1.7333,-1.7971,-1.7478,-1.5654,-1.531,-1.3939,0.0,0.0,0.0,0.0,0.0,0.0,0.0,0.0,0.0,0.0,0.0,0.0,0.0,0.0,0.0,0.0,0.0,0.0,0.0,0.0,0.0,0.0,0.0,0.0,0.0,0.0,-1.1748,-1.2734,-1.34,-1.3972,-1.4469,-1.5,-1.5398,-1.567,-1.7491,-1.8723,-1.9008,-2.0908,-2.197,-2.1879,-2.2377,-2.2857,-2.319,-2.319,-2.3534,-2.42,-2.42,-2.42,-2.42,-2.42,-2.42,-2.42,-2.42,-2.4137,-2.4073,-2.4073,-2.3595,-2.2922,-2.2871,-2.2725,-2.2603,-2.3079,-2.3276,-2.3324,-2.3685,-2.3806,-2.3685,-2.2987,-2.2486,-2.2125,-2.1795,-2.1675,-2.1687,-2.168,-2.1343,-2.1136,-2.1904,-2.1806,-2.1624,-2.2115,-2.235,-2.2351,-2.2092,-2.1895,-2.1769,-2.1769,-2.0577,-1.9459,-1.9095,-1.8869,-1.8715,-1.8629,-1.9445,-2.0107,-2.0191,-2.0435,-2.0535,-2.0359,-1.9671,-1.9049,-1.8629,-1.8232,-1.7835,-1.7453,-1.7646,-1.7592,-1.7201,-1.7723,-1.7341,-1.59,-1.5614,-1.4528,-1.2537,0.0,0.0,0.0,0.0,0.0,0.0,0.0,0.0,0.0,0.0,0.0,0.0,0.0,0.0,0.0,0.0,0.0,0.0,0.0,0.0,0.0,0.0,0.0,-1.0747,-1.1896,-1.2858,-1.3214,-1.4251,-1.497,-1.4988,-1.5469,-1.6697,-1.898,-1.8868,-1.9353,-2.0861,-2.1769,-2.2144,-2.1891,-2.341,-2.4223,-2.4246,-2.4246,-2.4246,-2.4246,-2.4246,-2.4246,-2.4246,-2.4246,-2.4246,-2.4246,-2.4246,-2.4246,-2.4282,-2.4259,-2.4368,-2.448,-2.4026,-2.3854,-2.3854,-2.3854,-2.3854,-2.3854,-2.3854,-2.3854,-2.3842,-2.383,-2.383,-2.383,-2.3806,-2.3806,-2.3806,-2.3806,-2.3518,-2.3267,-2.3426,-2.3189,-2.2921,-2.3047,-2.3078,-2.3078,-2.3108,-2.2681,-2.2305,-2.2305,-2.1455,-2.0742,-2.0717,-2.0239,-1.9823,-1.9823,-2.0245,0.0,-1.9875,-2.0258,-2.0384,-1.985,-1.9745,-1.9302,-1.8303,-1.809,-1.7644,-1.6782,-1.706,-1.718,-1.7002,-1.7305,-1.7024,-1.605,-1.4897,-1.4156,-1.3838,0.0,0.0,0.0,0.0,0.0,0.0,0.0,0.0,0.0,0.0,0.0,0.0,0.0,0.0,0.0,0.0,0.0,0.0,0.0,0.0,0.0,0.0,-1.1601,-1.1893,-1.285,-1.3789,-1.455,-1.5558,-1.6353,-1.6738,-1.7176,-1.7591,-1.7957,-1.9527,-2.0288,-1.9788,-2.2248,-2.3517,-2.32,-2.4186,-2.49,-2.5291,-2.5291,-2.5291,-2.5291,-2.5291,-2.5291,-2.5291,-2.5291,-2.5291,-2.5291,-2.5291,-2.5431,-2.5698,-2.5287,-2.5355,-2.5564,-2.4826,-2.4601,-2.4752,-2.4856,-2.4891,-2.4891,-2.4891,-2.4891,-2.4819,-2.4434,-2.4314,-2.4242,-2.3914,-2.3806,-2.3806,-2.3806,-2.373,-2.3558,-2.3204,-2.3113,-2.3063,-2.2856,-2.2878,-2.3,-2.3078,-2.2982,-2.2882,-2.2882,-2.2334,-2.1732,-2.1358,-2.083,-2.0453,-2.0453,-2.0205,0.0,-1.9824,-1.9927,-1.9952,-1.9837,-1.9762,-1.9484,-1.8844,-1.8387,-1.7877,-1.7254,-1.6999,-1.6833,-1.6782,-1.7014,-1.6957,-1.6594,-1.5223,-1.4598,0.0,0.0,0.0,0.0,0.0,0.0,0.0,0.0,0.0,0.0,0.0,0.0,0.0,0.0,0.0,0.0,0.0,0.0,0.0,0.0,0.0,0.0,-1.2131,-1.2754,-1.3476,-1.3973,-1.4632,-1.5588,-1.6273,-1.6952,-1.7661,-1.7944,-1.8193,-1.8468,-1.9663,-2.0619,-2.1137,-2.2633,-2.3818,-2.4535,-2.4979,-2.5394,-2.5716,-2.5716,-2.5716,-2.5716,-2.5716,-2.5716,-2.5716,-2.5716,-2.5716,0.0,-2.5716,-2.582,-2.6015,-2.5724,-2.5784,0.0,0.0,0.0,0.0,0.0,-2.5312,-2.5312,-2.5312,-2.5312,-2.5264,-2.4951,-2.4855,-2.4795,-2.4506,-2.441,-2.441,-2.441,-2.4254,-2.4047,-2.3812,-2.3656,-2.3449,-2.3207,-2.3164,-2.3213,-2.3128,-2.3108,-2.3108,-2.3108,-2.2844,0.0,-2.2234,-2.1343,-2.0691,-2.0691,-2.0201,-1.9798,-1.9798,-1.9798,-1.9798,-1.9798,-1.9798,-1.9597,-1.9045,-1.8506,0.0,0.0,0.0,-1.6638,-1.6501,-1.66,0.0,0.0,0.0,0.0,0.0,0.0,0.0,0.0,-1.4946,-1.4663,0.0,0.0,0.0,0.0,0.0,0.0,0.0,0.0,0.0,0.0,0.0,0.0,0.0,0.0,0.0,0.0,-1.3408,-1.4067,-1.5129,-1.5195,-1.5475,-1.6351,-1.666,-1.7162,-1.8081,-1.8191,-1.8704,-1.9801,-1.9654,-2.0673,-2.3348,0.0,0.0,0.0,0.0,-2.5702,-2.5888,-2.5888,-2.5888,-2.5888,-2.5888,-2.5888,-2.5888,-2.5888,-2.5888,-2.5888,-2.5888,-2.5876,-2.5915,-2.5858,-2.5916,-2.6007,-2.5611,-2.5421,-2.5396,-2.5396,-2.536,-2.5312,-2.5312,0.0,0.0,-2.5312,-2.5312,-2.5312,-2.5312,-2.5312,-2.5312,-2.5312,-2.4975,-2.4637,-2.4759,-2.4417,-2.3985,-2.3739,-2.3697,-2.358,-2.316,-2.3108,-2.3108,-2.3108,-2.3108,-2.3108,-2.3108,-2.187,-2.0855,-2.0792,-2.0289,-1.9874,-1.9811,-1.9798,-1.9798,-1.9798,0.0,0.0,-1.9133,-1.8606,-1.8125,-1.771,-1.7115,-1.6638,-1.6279,-1.6294,-1.6347,-1.6473,-1.6835,-1.7474,-1.8422,-1.8784,-1.8852,-1.8609,-1.6323,-1.5859,0.0,0.0,0.0,0.0,0.0,0.0,0.0,0.0,0.0,0.0,0.0,0.0,0.0,0.0,0.0,-1.3173,-1.4238,-1.5069,-1.5608,-1.6311,-1.6771,-1.6793,-1.7556,-1.8203,-1.8548,-1.8889,-1.9286,-1.9851,-2.0417,-2.12,-2.221,-2.2676,0.0,-2.526,-2.5242,-2.5764,-2.6892,-2.6892,-2.6892,-2.6892,0.0,0.0,-2.6892,-2.6892,-2.6892,-2.6892,-2.6892,-2.7002,-2.7117,-2.666,-2.6411,-2.6244,-2.6308,-2.6187,-2.5949,-2.5949,-2.5673,-2.5312,-2.5312,-2.5312,-2.5312,-2.5312,-2.5312,-2.5312,-2.5312,-2.5312,0.0,-2.5312,-2.524,-2.5059,-2.4673,-2.448,-2.4268,-2.3678,-2.3552,-2.3455,-2.3172,-2.3108,-2.3108,-2.3108,-2.3108,-2.3108,-2.3108,-2.2468,-2.1845,-2.1393,-2.088,-2.0352,-1.9861,-1.9798,-1.9798,-1.9798,-1.9798,-1.9761,-1.966,-1.9146,-1.8819,-1.873,-1.7854,-1.7111,-1.6621,-1.6751,-1.6855,-1.6889,-1.7083,-1.743,-1.7928,-1.8008,-1.823,-1.8532,-1.8128,-1.8089,0.0,0.0,0.0,0.0,0.0,0.0,0.0,0.0,0.0,0.0,0.0,-1.0233,0.0,0.0,-1.2958,-1.4439,-1.5137,-1.5711,-1.6285,-1.6946,-1.7345,-1.7351,-1.7964,-1.8518,-1.8804,-1.9304,-1.9664,-1.9875,-2.046,-2.1205,-2.2139,-2.2566,-2.3391,-2.4807,-2.4828,-2.5362,-2.6475,-2.6487,-2.6745,-2.719,-2.719,-2.719,-2.719,-2.719,-2.719,-2.719,-2.719,-2.726,-2.736,-2.7163,-2.7107,-2.7133,-2.7316,-2.6983,-2.6354,-2.6477,-2.6309,-2.6081,-2.6081,-2.5937,-2.5709,-2.5709,-2.5528,-2.5312,-2.5312,-2.5312,-2.5312,-2.5312,-2.5312,-2.5252,-2.4987,-2.4985,-2.4869,-2.403,-2.3946,-2.3852,-2.3223,-2.3108,-2.3108,-2.3108,-2.3108,-2.3108,-2.3108,-2.2882,-2.2447,-2.1606,-2.1043,-2.0478,-1.9874,-1.9798,-1.9798,-1.9798,-1.9798,-1.9798,-1.9798,-1.9309,-1.8895,-1.8607,-1.8125,-1.7627,-1.7115,-1.7199,-1.7166,-1.7002,-1.7086,-1.7344,-1.7787,-1.8028,-1.8551,-1.9299,-1.9579,-1.9417,0.0,0.0,0.0,0.0,0.0,0.0,0.0,0.0,-0.8719,-0.9489,-1.0645,-1.1809,-1.2781,-1.3418,-1.4214,-1.5581,-1.5985,-1.6336,-1.6944,-1.7385,-1.7735,-1.783,-1.8204,-1.862,-1.9074,-1.957,-1.9948,-2.0104,-2.0415,-2.1179,-2.2526,-2.2427,-2.3011,-2.4435,-2.4317,-2.4648,-2.5537,-2.5704,-2.6174,-2.6921,-2.7097,-2.719,-2.719,-2.719,-2.719,-2.719,-2.719,-2.719,-2.7231,-2.7371,-2.7574,-2.78,-2.803,-2.7628,-2.688,-2.7014,-2.6982,-2.6898,-2.6898,-2.6635,-2.6262,-2.6262,-2.5973,-2.56,-2.5492,-2.5456,-2.5444,-2.5336,-2.5312,-2.5312,-2.5312,-2.5418,-2.5303,-2.4389,-2.4296,-2.4194,-2.3255,-2.3078,-2.3108,-2.3108,-2.3108,-2.3108,-2.3108,-2.3108,-2.2769,-2.1794,-2.1295,-2.0767,-2.0062,-1.9962,-1.9924,-1.9811,-1.9798,-1.9798,-1.9798,-1.9384,-1.892,-1.8405,-1.8367,-1.8127,-1.7662,-1.766,-1.7556,-1.7273,-1.7304,-1.7525,-1.7974,-1.8385,-1.9019,-1.9878,-2.0287,-2.0167,-0.6082,-0.5919,-0.6063,-0.6841,-0.6937,-0.7393,0.0,0.0,-1.0664,-1.2013,-1.3046,-1.3766,-1.3922,-1.4798,-1.5581,-1.578,-1.6636,-1.7351,-1.7437,-1.793,-1.8212,-1.8012,-1.8381,-1.8892,-1.948,-1.9775,-2.0218,-2.0924,-2.1016,-2.1643,-2.2964,-2.2224,-2.2639,-2.4445,-2.3704,-2.3704,-2.4616,-2.5411,-2.5872,-2.5955,-2.6798,-2.719,-2.719,-2.719,-2.719,-2.719,-2.719,-2.719,-2.719,-2.7231,-2.7272,-2.7313,-2.776,-2.7851,-2.7738,-2.7657,-2.7294,-2.6898,-2.6898,-2.6861,-2.6801,-2.6801,-2.6765,-2.6621,-2.6154,-2.6009,-2.5913,-2.5444,-2.5312,-2.5312,-2.5312,-2.5312,-2.5117,-2.4235,-2.4132,-2.4,-2.3114,-2.3017,-2.3108,-2.3108,-2.3108,-2.3108,-2.3108,-2.3108,-2.2895,-2.2309,-2.2171,-2.1744,-2.0729,-2.0591,-2.0402,-1.9861,-1.9798,-1.9798,-1.9798,-1.9748,-1.9497,-1.8945,-1.8907,-1.8657,-1.8152,-1.8244,-1.8276,-1.8236,-1.8408,-1.8546,-1.8601,-1.8783,-1.8922,-1.9042,-1.9515,-2.0338,-0.7012,0.0,0.0,0.0,-0.8135,-0.8669,-0.9712,-1.0388,-1.0989,-1.1739,-1.3055,-1.4171,-1.4368,-1.5354,-1.6295,0.0,-1.7205,-1.7583,-1.7766,-1.8017,-1.8121,-1.7991,-1.8411,-1.8803,-1.9035,-1.9793,-2.0369,-2.0741,-2.1156,-2.168,-2.228,-2.19,-2.2078,-2.2862,-2.2511,-2.2721,-2.3661,-2.4606,-2.5284,-2.5819,-2.6745,-2.719,-2.719,-2.719,-2.719,-2.719,-2.719,-2.719,-2.7231,-2.733,-2.7464,-2.7638,-2.795,-2.8151,-2.8247,-2.8191,-2.8041,-2.7849,-2.7849,-2.7618,-2.7354,-2.7354,-2.715,-2.6789,-2.6262,-2.6093,-2.5985,-2.5456,-2.5312,-2.5312,-2.5312,-2.5382,-2.5307,-2.4624,-2.4377,-2.4067,-2.3411,-2.3102,-2.3,-2.3,-2.3047,-2.3108,-2.3108,-2.3108,-2.302,-2.2794,-2.2493,-2.192,-2.083,-2.0691,-2.0465,-1.9861,-1.9798,-1.9798,-1.9798,-1.9798,-1.971,-1.9497,-1.9472,-1.9246,-1.8682,-1.8729,-1.865,-1.8403,-1.8556,-1.866,-1.8704,-1.9116,-1.9493,-1.9846,-2.0306,-2.1024,-0.7726,0.0,0.0,-0.8611,-0.9141,-0.9741,-1.0202,-1.075,-1.1303,-1.1805,-1.316,-1.4323,-1.4561,-1.5649,0.0,-1.7235,-1.7531,-1.7723,-1.7957,-1.8,-1.8,-1.8,-1.8371,-1.8612,-1.8612,-1.9765,-2.0567,-2.0677,-2.1293,-2.1696,-2.1696,-2.1696,-2.1696,-2.1696,-2.1696,-2.2033,-2.2711,-2.3627,-2.4435,-2.5052,-2.6268,-2.6787,-2.6839,-2.7097,-2.719,-2.719,-2.719,-2.719,-2.7231,-2.7371,-2.7545,-2.7719,-2.799,-2.8231,-2.8363,-2.8471,-2.851,-2.851,-2.851,-2.8258,-2.7906,-2.7906,-2.7642,-2.7234,-2.6707,-2.6442,-2.6214,-2.5673,-2.542,-2.5312,-2.5312,-2.5418,-2.5367,-2.4822,-2.4579,-2.4259,-2.3573,-2.3232,-2.3034,-2.2885,-2.2909,-2.2987,-2.3047,-2.3047,-2.3047,-2.3078,-2.2769,-2.2133,-2.1069,-2.0641,-2.0289,-1.9849,-1.9798,-1.9798,-1.9798,-1.9798,-1.9798,-1.9798,-1.9798,-1.9635,-1.9233,-1.9221,-1.907,-1.8788,-1.8921,-1.9017,-1.9063,-1.9582,-2.0074,-2.0523,-2.0889,-2.1295,0.0,0.0,-0.8524,-0.9432,-0.9771,-1.023,-1.1535,-1.1844,-1.2174,-1.3223,-1.4047,-1.4593,-1.4601,-1.5856,-1.6872,-1.6898,-1.7504,-1.7983,-1.8,-1.8,-1.8,-1.8,-1.8241,-1.8402,0.0,-1.9673,-2.0677,-2.1062,-2.1493,-2.1696,-2.1696,-2.1696,-2.1696,-2.1696,-2.1696,-2.1687,-2.1731,-2.2677,-2.3139,-2.3217,-2.4967,-2.583,-2.5872,-2.6787,-2.719,-2.719,-2.719,-2.719,-2.719,-2.7231,-2.7231,-2.7272,-2.7719,-2.7933,-2.7973,-2.8351,-2.851,-2.851,-2.851,-2.8498,-2.8486,-2.8486,-2.8474,-2.8366,-2.7798,-2.7282,-2.6753,-2.6238,-2.5709,-2.5312,-2.5312,-2.5312,-2.5168,-2.465,-2.4655,-2.4499,-2.3442,-2.3338,-2.3336,-2.2819,-2.2708,-2.2739,-2.2878,-2.2909,-2.2939,-2.3078,-2.3095,-2.2681,-2.1606,-2.0501,-1.9823,-1.9798,-1.9798,-1.9798,-1.9798,-1.9798,-1.9798,-1.9798,-1.9798,-1.9798,-1.9773,-1.9773,-1.9773,-1.9761,-1.9876,-1.9965,-1.9965,-2.0308,-2.0472,-2.0511,-2.0661,-2.0711,0.0,0.0,-0.9438,-1.0026,-1.0581,-1.1124,-1.1744,-1.1764,-1.1734,-1.2087,-1.2498,-1.2949,-1.3393,-1.4599,-1.5741,-1.637,-1.734,-1.8,-1.8,-1.8468,-1.8605,-1.8059,-1.8417,0.0,0.0,0.0,0.0,-2.0227,-2.0752,-2.1236,-2.1508,-2.1607,-2.1696,-2.1696,-2.1696,-2.1696,-2.1696,-2.2624,-2.3096,-2.3096,-2.4349,-2.4956,-2.4956,-2.5263,-2.5726,-2.6268,-2.6268,-2.661,-2.719,-2.719,-2.726,-2.7412,-2.7574,-2.7748,-2.7921,-2.8191,-2.8299,-2.8299,-2.8471,-2.851,-2.851,-2.851,-2.851,-2.8414,-2.7846,-2.7318,-2.6777,-2.625,-2.5721,-2.5312,-2.5312,-2.5312,-2.5264,-2.5083,-2.4817,-2.449,-2.414,-2.3656,-2.3238,-2.3086,-2.2862,-2.2708,-2.2769,-2.286,-2.2939,-2.3078,-2.2794,-2.2322,-2.1581,-2.0867,-2.0251,-1.9849,-1.9798,-1.9798,-1.9798,-1.9798,-1.9798,-1.9798,-1.9798,-1.9798,-1.9798,-1.9798,-1.9798,-1.9798,-1.9926,-1.999,-1.999,-2.0195,-2.0372,-2.0486,-2.0537,-2.0612,0.0,-0.9377,-0.9986,-1.0668,-1.1183,-1.1573,-1.1724,-1.1615,-1.1441,-1.1242,-1.159,-1.1986,-1.2351,-1.3417,-1.4483,-1.535,-1.661,-1.7518,-1.7696,-1.8608,-1.899,-1.8502,-1.8781,0.0,0.0,0.0,0.0,-1.9988,-2.0543,-2.1015,-2.1383,-2.1526,-2.1607,-2.1696,-2.1696,-2.1696,-2.1696,-2.229,-2.2755,-2.3096,-2.3704,-2.4188,-2.4498,-2.4498,-2.4829,-2.5326,-2.5326,-2.5841,-2.6704,-2.6704,-2.6951,-2.7412,-2.7482,-2.7615,-2.7788,-2.803,-2.8139,-2.8219,-2.8431,-2.851,-2.851,-2.851,-2.851,-2.845,-2.8114,-2.7594,-2.7066,-2.655,-2.6009,-2.554,-2.536,-2.5312,-2.5312,-2.5312,-2.5047,-2.4712,-2.452,-2.4056,-2.3591,-2.3454,-2.3089,-2.2818,-2.288,-2.2862,-2.2848,-2.2939,-2.2688,-2.2351,-2.1857,-2.1157,-2.0541,-2.015,-1.9924,-1.9798,-1.9798,-1.9798,-1.9798,-1.9798,-1.9798,-1.9798,-1.9798,-1.9798,-1.9798,-1.9798,-1.9888,-1.9926,-1.9926,-2.0054,-2.0195,-2.0334,-2.0372,-2.0486,-0.9644,-0.9938,-1.0219,-1.1316,-1.1629,-1.161,-1.1552,-1.1513,-1.1339,-1.0797,-1.1261,-1.171,0.0,0.0,-1.3282,-1.3888,-1.542,-1.6734,-1.7269,-1.8446,-1.9256,0.0,0.0,0.0,0.0,0.0,0.0,-2.0342,0.0,-2.1078,-2.1347,-2.1392,-2.1482,-2.1687,-2.1696,-2.1696,-2.1696,-2.1696,-2.2157,-2.3008,-2.3008,-2.3487,-2.437,-2.437,-2.437,-2.4413,-2.4413,-2.4904,-2.5746,-2.5746,-2.6268,-2.7138,-2.7319,-2.7429,-2.7522,-2.7788,-2.799,-2.8167,-2.8431,-2.8471,-2.851,-2.851,-2.851,-2.851,-2.851,-2.8138,-2.757,-2.7042,-2.6489,-2.5973,-2.5444,-2.5312,-2.5312,-2.5312,-2.5312,-2.5168,-2.464,-2.4508,-2.4374,-2.3926,-2.3396,-2.3031,-2.3154,-2.2897,-2.269,-2.272,-2.28,-2.274,-2.2355,-2.1393,-2.0767,-2.0729,-2.0239,-1.9874,-1.9849,-1.9849,-1.9836,-1.9798,-1.9798,-1.9798,-1.9798,-1.9798,-1.9798,-1.9798,-1.9798,-1.9798,-1.9798,-1.9926,-1.999,-1.999,-2.0131,-2.0296,-0.9601,-1.0319,-1.107,-1.1547,-1.1945,-1.2188,-1.2092,-1.1772,-1.1339,-1.0797,-1.0392,-1.0089,0.0,0.0,0.0,-1.3629,-1.5514,0.0,-1.8146,-1.928,0.0,0.0,0.0,-1.9554,-1.9554,-1.9554,0.0,0.0,-2.0332,-2.058,-2.1078,-2.1293,-2.1482,-2.1687,-2.1696,-2.1696,-2.1696,-2.1696,-2.182,-2.2078,-2.2078,-2.2167,-2.2432,-2.2432,-2.2809,-2.3444,-2.3444,-2.3963,-2.4829,-2.4829,-2.5379,-2.6174,-2.6205,-2.664,-2.7301,-2.7534,-2.7644,-2.7725,-2.8139,-2.8379,-2.851,-2.851,-2.851,-2.851,-2.851,-2.8138,-2.757,-2.7042,-2.6489,-2.5973,-2.5444,-2.5312,-2.5312,-2.5312,-2.5312,-2.5264,-2.5131,-2.4795,-2.4448,-2.435,-2.3604,-2.2923,-2.2657,-2.2536,-2.2525,-2.269,-2.2739,-2.2602,-2.2193,-2.2013,-2.1732,-2.1358,-2.1142,-2.0891,-2.0503,-2.0478,-2.0289,-1.9823,-1.9798,-1.9798,-1.9798,-1.9798,-1.9798,-1.9798,-1.9798,-1.9798,-1.9798,-1.9824,-1.9901,-1.999,-2.0042,-2.0144,-1.0149,-1.0659,-1.1302,-1.1708,-1.1922,-1.198,-1.1822,-1.1467,-1.0918,-1.0148,-0.9636,0.0,0.0,0.0,0.0,0.0,0.0,0.0,-1.7977,-1.8943,-1.9538,0.0,-1.9855,0.0,-1.9984,-1.9984,-2.0069,0.0,-2.0238,-2.0383,-2.0853,-2.1105,-2.1338,-2.1562,-2.1651,-2.1696,-2.1696,-2.1696,-2.1696,-2.1696,-2.1696,-2.1696,-2.1696,-2.1696,-2.1989,-2.2501,0.0,-2.3018,-2.3887,-2.3887,-2.4435,-2.5284,-2.5652,-2.6133,-2.6652,-2.7156,-2.74,-2.7563,-2.7805,-2.8059,-2.8283,-2.8431,-2.851,-2.851,-2.851,-2.8306,-2.7957,-2.739,-2.6849,-2.6334,-2.5793,-2.548,-2.5312,-2.5312,-2.5312,-2.5312,-2.5312,-2.5071,-2.4795,-2.4532,-2.3869,-2.3192,-2.2744,-2.2454,-2.234,-2.2463,-2.2525,-2.2506,-2.2247,-2.2137,-2.1965,-2.1642,-2.1478,-2.1144,-2.0621,-2.0665,-2.044,-1.9836,-1.9798,-1.9798,-1.9798,-1.9798,-1.9798,-1.9798,-1.9798,-1.9798,-1.9798,-1.9798,-1.9837,-1.9926,-1.9926,-1.9978,-1.081,-1.1004,-1.1211,-1.1815,-1.1759,-1.1484,-1.1103,-1.0809,-1.0293,-0.9232,0.0,0.0,-0.865,0.0,-1.0009,-1.1768,0.0,-1.4425,-1.7404,-1.8137,-1.8864,-2.015,-2.0292,-2.0292,-2.0292,-2.0292,-2.0292,-2.0292,-2.0292,-2.0428,-2.0699,-2.0871,-2.1096,-2.1347,-2.1562,-2.1651,-2.1651,-2.1696,-2.1696,-2.1696,-2.1696,-2.1696,-2.1696,-2.1696,-2.1696,-2.1696,0.0,0.0,-2.2921,-2.2921,-2.3454,-2.4402,-2.5147,-2.5526,-2.5746,-2.6539,-2.7033,-2.7267,-2.7307,-2.7493,-2.776,-2.8311,-2.8471,-2.8471,-2.8471,-2.851,-2.8402,-2.7834,-2.7306,-2.6765,-2.6238,-2.5709,-2.5312,-2.5312,-2.5312,-2.5312,-2.5312,-2.5312,-2.5155,-2.4592,-2.4109,-2.3637,-2.3107,-2.2578,-2.2197,-2.2197,-2.2309,-2.2359,-2.2359,-2.2097,-2.1923,-2.1923,-2.1609,-2.1188,-2.067,-2.0796,-2.0639,-2.0062,-1.9962,-1.9911,-1.9911,-1.9849,-1.9798,-1.9798,-1.9798,-1.9798,-1.9798,-1.9798,-1.9798,-1.9798,-1.9798,-1.9862,-1.0896,-1.1133,-1.1343,-1.1688,-1.1547,-1.1245,-1.081,-1.0315,0.0,0.0,0.0,-0.821,-0.8054,-0.8668,0.0,-1.1492,0.0,0.0,0.0,0.0,-1.8864,0.0,0.0,0.0,0.0,0.0,0.0,0.0,0.0,0.0,-2.0699,-2.0744,-2.0826,-2.1051,-2.1338,-2.1437,-2.1437,-2.1607,-2.1696,-2.1696,-2.1696,-2.1696,-2.1696,-2.1696,-2.1696,-2.1696,-2.1696,0.0,-2.1945,-2.1945,-2.2511,-2.3357,-2.3531,-2.4039,-2.4744,-2.4925,-2.5463,-2.6121,-2.6351,-2.6445,-2.6693,-2.7886,-2.8259,-2.8299,-2.8471,-2.851,-2.8402,-2.7834,-2.7306,-2.6765,-2.6238,-2.5709,-2.5312,-2.5312,-2.5312,-2.5312,-2.5312,-2.5312,-2.5155,-2.4592,-2.4109,-2.3637,-2.3107,-2.2578,-2.2197,-2.2197,-2.2216,-2.2216,-2.2216,-2.2421,-2.2542,-2.2542,-2.2487,-2.2263,-2.1853,-2.1832,-2.1652,-2.123,-2.0792,-2.0541,-2.0541,-2.0049,-1.9798,-1.9798,-1.9798,-1.9798,-1.9798,-1.9798,-1.9798,-1.9798,-1.9798,-1.9798,-1.1032,-1.1219,-1.1348,-1.1613,-1.1322,-1.079,-1.0313,0.0,0.0,0.0,0.0,-0.7882,-0.7898,0.0,0.0,0.0,0.0,0.0,0.0,0.0,0.0,0.0,0.0,0.0,0.0,0.0,0.0,0.0,0.0,0.0,-2.0473,-2.0609,-2.0781,-2.0988,-2.1248,-2.1392,-2.1392,-2.1607,-2.1696,-2.1696,-2.1696,-2.1696,-2.1696,-2.1696,-2.1696,-2.1696,-2.1696,0.0,-2.1696,-2.1696,-2.1945,-2.2413,-2.2921,-2.34,-2.3833,-2.4317,-2.4744,-2.5115,-2.5253,-2.5306,-2.5421,-2.6193,-2.6607,-2.6823,-2.6917,-2.6999,-2.7157,-2.738,-2.7066,-2.6626,-2.6521,-2.6129,-2.5648,-2.5372,-2.5312,-2.5312,-2.5312,-2.5312,-2.5228,-2.4975,-2.4518,-2.4001,-2.3517,-2.2987,-2.251,-2.2234,-2.2197,-2.2197,-2.2197,-2.2352,-2.2445,-2.2445,-2.2494,-2.2365,-2.1874,-2.2001,-2.1882,-2.1378,-2.1214,-2.0993,-2.0704,-2.0427,-2.0112,-1.9811,-1.9798,-1.9798,-1.9798,-1.9798,-1.9798,-1.9798,-1.9798,-1.9798,-1.1112,-1.1268,-1.1354,-1.157,-1.1068,-1.0374,-0.9811,-0.9095,0.0,0.0,0.0,-0.7702,-0.7842,0.0,0.0,0.0,0.0,0.0,0.0,0.0,0.0,0.0,0.0,0.0,0.0,0.0,0.0,0.0,0.0,0.0,-2.0292,-2.0518,-2.069,-2.0862,-2.1114,-2.1257,-2.1293,-2.1517,-2.1651,-2.1696,-2.1696,-2.1696,-2.1696,-2.1696,-2.1696,-2.1696,-2.1696,0.0,0.0,-2.1696,-2.1696,-2.1776,-2.2501,-2.2799,-2.2887,-2.3627,-2.4016,-2.4188,-2.4188,-2.4188,-2.4231,-2.4372,-2.484,-2.5358,-2.5484,-2.5735,-2.6163,-2.6969,-2.6938,-2.6718,-2.6878,-2.6514,-2.5961,-2.5432,-2.5312,-2.5312,-2.5312,-2.5312,-2.5312,-2.5312,-2.4795,-2.423,-2.3866,-2.3264,-2.2678,-2.2258,-2.2197,-2.2197,-2.2197,-2.2197,-2.2197,-2.2197,-2.2278,-2.2189,-2.1794,-2.1996,-2.1989,-2.1543,-2.1562,-2.1384,-2.1014,-2.0876,-2.0537,-1.9999,-1.9987,-1.9924,-1.9798,-1.9798,-1.9798,-1.9798,-1.9798,-1.9798,-1.095,-1.1139,-1.1311,-1.1348,-1.0821,-1.0143,-0.9408,0.0,0.0,0.0,-0.744,-0.7568,-0.7696,0.0,0.0,0.0,0.0,0.0,0.0,0.0,0.0,0.0,0.0,0.0,0.0,0.0,0.0,0.0,0.0,0.0,0.0,-2.0337,-2.0337,-2.0374,-2.0609,-2.0826,-2.1042,-2.1293,-2.1526,-2.1696,-2.1696,-2.1696,-2.1696,-2.1696,-2.1696,-2.1696,-2.1696,0.0,0.0,-2.1696,-2.1696,-2.1687,-2.1776,-2.182,-2.182,-2.1954,-2.2511,-2.3226,-2.3226,-2.3226,-2.3226,-2.326,-2.3986,-2.4957,-2.5358,-2.6069,-2.6782,-2.7092,-2.739,-2.7481,-2.703,-2.6514,-2.5961,-2.5432,-2.5312,-2.5312,-2.5312,-2.5312,-2.5312,-2.5312,-2.4518,-2.3854,-2.3806,-2.2963,-2.2246,-2.2197,-2.2197,-2.2197,-2.2197,-2.2197,-2.2197,-2.2197,-2.2228,-2.2266,-2.2317,-2.2347,-2.2415,-2.256,-2.208,-2.1831,-2.1981,-2.1443,-2.0976,-2.0616,-2.0616,-2.0352,-1.9798,-1.9798,-1.9798,-1.9798,-1.9798,-1.9798,-1.0842,-1.1165,-1.1273,-1.1165,-1.0595,-0.9879,-0.9163,0.0,0.0,-0.7378,-0.7338,-0.744,-0.767,-0.7838,0.0,0.0,0.0,0.0,0.0,0.0,0.0,0.0,0.0,0.0,0.0,0.0,0.0,0.0,0.0,0.0,0.0,-2.0292,-2.0292,-2.0292,-2.0564,-2.0736,-2.0826,-2.1051,-2.1284,-2.1526,-2.1526,-2.1562,-2.1696,-2.1696,-2.1696,-2.1696,-2.1696,0.0,0.0,-2.1696,-2.1696,-2.1696,-2.1696,-2.1696,-2.1696,-2.1696,-2.1954,-2.2246,-2.2246,-2.2246,-2.2246,-2.2246,-2.2536,-2.3008,-2.3497,-2.4339,-2.5347,-2.6121,-2.6862,-2.7221,-2.639,-2.5548,-2.4846,-2.4611,-2.4933,-2.5312,-2.5312,-2.4933,-2.4707,-2.5194,-2.4578,-2.3954,-2.3836,-2.3457,-2.2919,-2.2294,-2.2197,-2.2197,-2.2197,-2.2197,-2.2197,-2.2197,-2.2197,-2.2216,-2.2278,-2.2359,-2.242,-2.2512,-2.2408,-2.2198,-2.1925,-2.182,-2.1372,-2.053,-2.0638,-2.0402,-1.9798,-1.9798,-1.9798,-1.9798,-1.9798,-1.9798,-1.0229,-1.073,-1.1053,-1.0923,-1.0347,-0.9653,0.0,0.0,-0.7695,-0.7329,-0.7257,-0.7365,-0.7595,-0.767,-0.7838,0.0,0.0,0.0,0.0,0.0,0.0,0.0,0.0,0.0,0.0,0.0,0.0,0.0,0.0,0.0,0.0,-2.0292,-2.0292,-2.0292,-2.0473,-2.0609,-2.0699,-2.0826,-2.106,-2.1392,-2.1392,-2.1526,-2.1696,-2.1696,-2.1696,-2.1696,0.0,0.0,0.0,-2.1696,-2.1696,-2.1696,-2.1696,-2.1696,-2.1696,-2.1696,-2.1696,-2.1696,-2.1696,-2.1696,-2.1696,-2.1696,-2.1696,-2.1785,-2.2176,-2.3115,-2.4221,-2.5147,-2.5881,-2.6205,-2.5491,-2.4551,-2.3756,-2.3756,-2.4204,-2.4683,-2.4898,-2.448,-2.4337,-2.5158,-2.4614,-2.3968,-2.3826,-2.3541,-2.3083,-2.2306,-2.2197,-2.2197,-2.2197,-2.2197,-2.2197,-2.2197,-2.2197,-2.2197,-2.2197,-2.2278,-2.2328,-2.2328,-2.2463,-2.2384,-2.1981,-2.2117,-2.1774,-2.0822,-2.0842,-2.0561,-1.9971,-1.986,-1.9798,-1.9798,-1.9798,-1.9798,-0.8869,-0.9763,-1.0603,-1.0597,-1.0105,-0.9489,0.0,-0.8344,-0.7661,-0.7209,-0.7198,-0.7338,-0.7467,-0.7616,-0.7838,-0.8243,0.0,0.0,0.0,0.0,0.0,0.0,0.0,0.0,0.0,0.0,0.0,0.0,0.0,0.0,0.0,-2.0292,-2.0292,-2.0292,-2.0292,-2.0428,-2.0699,-2.0699,-2.0934,-2.1392,-2.1392,-2.1526,-2.1696,-2.1696,-2.1696,0.0,0.0,0.0,0.0,-2.1696,-2.1696,-2.1696,-2.1696,-2.1696,-2.1696,-2.1696,-2.1696,-2.1696,-2.1696,-2.1696,-2.1696,-2.1696,-2.1696,-2.1731,-2.2008,-2.2906,-2.3887,-2.437,-2.4457,-2.4421,-2.441,-2.3727,-2.3032,-2.3032,-2.3032,-2.3206,-2.3938,-2.412,-2.4337,-2.5158,-2.4482,-2.3818,-2.3806,-2.2939,-2.2209,-2.2197,-2.2197,-2.2197,-2.2197,-2.2197,-2.2197,-2.2197,-2.2197,-2.2197,-2.2197,-2.2197,-2.2197,-2.2197,-2.2197,-2.2278,-2.2377,-2.242,-2.2213,-2.18,-2.1403,-2.093,-2.0385,-1.9996,-1.9798,-1.9798,-1.9798,-1.9798,-0.8603,-0.9025,-0.922,-0.9393,-0.9136,-0.8727,-0.8242,-0.7838,-0.7444,-0.7149,-0.7139,-0.7198,-0.7338,-0.7392,-0.7636,-0.8316,-0.8581,0.0,0.0,0.0,0.0,0.0,0.0,0.0,0.0,0.0,0.0,0.0,0.0,0.0,0.0,-2.0292,-2.0292,-2.0292,-2.0292,-2.0337,-2.0428,-2.0428,-2.0609,-2.0925,-2.106,-2.1239,-2.1482,-2.1651,0.0,0.0,0.0,0.0,0.0,-2.1696,-2.1696,-2.1696,-2.1696,-2.1696,-2.1696,-2.1696,-2.1696,-2.1696,-2.1696,-2.1696,-2.1696,-2.1696,-2.1696,-2.1731,-2.2008,-2.2775,-2.3737,-2.467,-2.4054,-2.3091,-2.3091,-2.2418,-2.1707,-2.1707,-2.2226,-2.2936,-2.3745,-2.3599,-2.372,-2.5052,-2.433,-2.358,-2.3754,-2.3228,-2.2606,-2.2246,-2.2197,-2.2197,-2.2197,-2.2197,-2.2197,-2.2197,-2.2197,-2.2197,-2.2197,-2.2197,-2.2197,-2.2197,-2.2197,-2.2216,-2.2247,-2.2359,-2.2226,-2.1825,-2.1403,-2.0998,-2.0598,-2.0061,-1.9798,-1.9798,-1.9798,-1.9798,0.0,-0.7705,-0.7897,-0.8082,-0.7919,-0.7665,-0.7491,-0.7259,-0.7089,-0.7106,-0.7112,-0.7139,-0.7284,-0.729,-0.7493,-0.8107,-0.8381,0.0,0.0,0.0,0.0,0.0,0.0,0.0,0.0,0.0,0.0,0.0,0.0,0.0,0.0,0.0,-2.0292,-2.0292,-2.0292,-2.0292,-2.0292,-2.0292,-2.0428,-2.0699,-2.0826,-2.1006,-2.1248,-2.1472,0.0,0.0,0.0,0.0,0.0,-2.1696,-2.1696,-2.1696,-2.1696,-2.1696,-2.1696,-2.1696,-2.1696,-2.1696,-2.1696,-2.1696,-2.1696,-2.1696,-2.1696,-2.1731,-2.1919,-2.2467,-2.3183,-2.3867,-2.3094,-2.2002,-2.2002,-2.1332,-2.0653,-2.0653,-2.1135,-2.18,-2.2627,-2.2526,-2.2675,-2.4011,-2.3504,-2.2839,-2.2935,-2.2503,-2.2057,-2.1808,-2.1788,-2.1894,-2.2154,-2.2197,-2.2197,-2.2197,-2.2197,-2.2197,-2.2197,-2.2197,-2.2197,-2.2197,-2.2197,-2.2197,-2.2197,-2.2278,-2.2201,-2.1952,-2.1354,-2.0955,-2.0732,-2.0068,-1.9759,-1.9798,-1.9798,-1.9798,0.0,-0.5882,-0.666,-0.6679,-0.6514,-0.6405,-0.6713,-0.6663,0.0,-0.696,-0.7058,-0.7144,-0.7279,-0.7301,-0.7382,-0.7719,-0.8206,0.0,0.0,0.0,0.0,0.0,0.0,0.0,0.0,0.0,0.0,0.0,0.0,0.0,0.0,0.0,-2.0246,-2.0292,-2.0292,-2.0292,-2.0292,-2.0292,-2.0428,-2.0654,-2.0699,-2.0781,-2.0997,-2.1248,0.0,0.0,0.0,0.0,0.0,-2.1696,-2.1696,-2.1696,-2.1696,-2.1696,-2.1696,-2.1696,-2.1696,-2.1696,-2.1696,-2.1696,-2.1696,-2.1696,-2.1696,-2.1696,-2.1696,-2.198,-2.2306,-2.2306,-2.1745,-2.1093,-2.1093,-2.0507,-1.9863,-1.9863,-1.9863,-2.0089,-2.0914,-2.1096,-2.1441,-2.2403,-2.2224,-2.1833,-2.1557,-2.1043,-2.0764,-2.1012,-2.1028,-2.1293,-2.203,-2.2123,-2.2123,-2.2185,-2.2154,-2.2123,-2.2123,-2.2154,-2.2197,-2.2197,-2.2197,-2.2197,-2.2197,-2.2197,-2.2197,-2.2228,-2.1287,-2.0791,-2.0706,-1.9953,-1.9656,-1.9798,-1.9798,-1.9798,-0.3946,0.0,-0.5196,-0.5558,-0.5608,-0.5567,0.0,-0.6008,-0.632,0.0,0.0,0.0,-0.7332,-0.7241,-0.74,0.0,0.0,0.0,0.0,0.0,0.0,0.0,0.0,0.0,0.0,0.0,0.0,0.0,0.0,0.0,0.0,-1.9026,-1.9492,-2.0292,-2.0292,-2.0292,-2.0292,-2.0292,-2.0337,-2.0382,-2.0609,-2.0736,-2.0781,-2.1006,0.0,0.0,0.0,0.0,-2.1696,-2.1696,-2.1696,-2.1696,-2.1696,-2.1696,-2.1696,-2.1696,-2.1696,-2.1696,-2.1696,-2.1696,-2.1696,-2.1696,-2.1696,-2.1696,-2.1696,-2.1555,-2.1429,-2.1429,-2.0846,-2.0227,-2.0227,-1.9848,-1.942,-1.942,-1.9548,-1.9902,-2.0692,-2.1145,-2.1642,-2.244,-2.2334,-2.2012,-2.1557,-2.1043,-2.0609,-2.0357,-2.0334,-2.0581,-2.1262,-2.1368,-2.1557,-2.2123,-2.1694,-2.1368,-2.1368,-2.1894,-2.2197,-2.2197,-2.2197,-2.2197,-2.2197,-2.2197,-2.2247,-2.2359,-2.1421,-2.0541,-1.9721,-1.9543,-1.9512,-1.9656,-1.9656,-1.9708,-0.3485,-0.3851,-0.4291,-0.455,-0.4611,-0.4671,-0.4928,0.0,0.0,0.0,0.0,0.0,0.0,0.0,0.0,0.0,0.0,0.0,0.0,0.0,0.0,0.0,0.0,0.0,0.0,0.0,0.0,0.0,0.0,0.0,0.0,-1.8557,-1.9072,-1.9583,-2.0056,-2.0292,-2.0292,-2.0292,-2.0292,-2.0292,-2.0428,-2.0518,-2.0518,-2.0781,-2.0916,0.0,0.0,0.0,-2.1562,-2.1562,-2.1607,-2.1696,-2.1696,-2.1696,-2.1696,-2.1696,-2.1696,-2.1696,-2.1696,-2.1696,-2.1696,-2.1696,-2.1696,-2.1696,-2.1696,-2.1275,-2.0879,-2.1053,-2.0539,-1.9893,-1.9893,-1.9613,-1.9301,-1.9301,-1.9381,-1.9587,-2.004,-2.0382,-2.0779,-2.1288,-2.1322,-2.1211,-2.0819,-2.0363,-2.0021,-1.9933,-1.9744,-1.9868,-2.0549,-2.0645,-2.0773,-2.1178,-2.088,-2.0645,-2.0645,-2.1305,-2.1557,-2.1242,-2.1242,-2.1368,-2.1694,-2.1694,-2.1656,-2.1572,-2.109,-2.032,-1.9302,-1.9302,-1.9368,-1.9512,-1.9512,-1.9539,-0.3392,-0.3616,-0.3807,-0.3761,-0.3756,-0.39,-0.4336,0.0,0.0,0.0,0.0,0.0,0.0,0.0,0.0,0.0,0.0,0.0,0.0,0.0,0.0,0.0,0.0,0.0,0.0,0.0,0.0,0.0,0.0,0.0,0.0,-1.7902,-1.8419,-1.8557,-1.9538,-2.0056,-2.0056,-2.0201,-2.0292,-2.0292,-2.0292,-2.0292,-2.0292,-2.0518,-2.0654,0.0,0.0,0.0,-2.1347,-2.1392,-2.1482,-2.1651,-2.1696,-2.1696,-2.1696,-2.1696,-2.1696,-2.1696,-2.1696,-2.1696,-2.1696,-2.1696,-2.165,-2.1595,-2.1595,-2.1028,-2.0493,-2.0833,-2.036,-1.9793,-1.9793,-1.9567,-1.9301,-1.9301,-1.9301,-1.9301,-1.9301,-1.9478,-1.9645,-1.9824,-2.0059,-2.0168,-1.9839,-1.9545,-1.9354,-1.9428,-1.9124,-1.9116,-1.9813,-1.9901,-1.9966,-2.0107,-1.9998,-1.9933,-1.9933,-2.0355,-2.0387,-1.9813,-2.0193,-2.0688,-2.123,-2.1262,-2.1066,-2.0598,-2.0598,-2.0121,-1.917,-1.917,-1.9249,-1.9368,-1.9368,-1.9368,-0.3493,-0.3682,-0.3761,-0.3662,-0.3638,-0.3666,-0.3722,0.0,0.0,0.0,0.0,0.0,0.0,0.0,0.0,0.0,0.0,0.0,0.0,0.0,0.0,0.0,0.0,0.0,0.0,0.0,0.0,0.0,0.0,0.0,0.0,0.0,-1.664,-1.7483,-1.8511,-1.9026,-1.9026,-1.9866,-2.0292,-2.0292,-2.0292,-2.0292,-2.0292,-2.0337,-2.0473,0.0,0.0,-2.0871,-2.1096,-2.1293,-2.1446,-2.1482,-2.1651,-2.1696,-2.1696,-2.1696,-2.1696,-2.1696,-2.1696,-2.1696,-2.1696,-2.1696,-2.1449,-2.12,-2.12,-2.0649,-1.9994,-2.0058,-1.9769,-1.9393,-1.9393,-1.9347,-1.9301,-1.9301,-1.9301,-1.9301,-1.9301,-1.9478,-1.9597,-1.9636,-1.9833,-1.9848,-1.9478,-1.9355,-1.9078,-1.844,-1.8293,-1.8423,-1.8918,-1.9,-1.9299,-2.0031,-1.954,-1.9177,-1.9177,-1.8754,-1.8438,-1.8337,-2.056,-2.1925,-2.203,-2.203,-2.1559,-2.0634,-2.061,-2.0081,-1.9013,-1.9013,-1.9105,-1.9223,-1.9223,-1.9302,-0.3322,-0.3425,-0.3525,-0.3668,-0.4095,-0.4538,-0.4779,0.0,0.0,0.0,0.0,0.0,0.0,0.0,0.0,0.0,0.0,0.0,0.0,0.0,0.0,0.0,0.0,0.0,0.0,0.0,0.0,0.0,0.0,0.0,0.0,0.0,-1.6828,-1.7296,-1.828,-1.9072,-1.9592,-1.9538,-1.9774,-2.0292,-2.0292,-2.0292,-2.0292,-2.0292,-2.0382,-2.0473,0.0,-2.06,-2.0826,-2.097,-2.1167,-2.1392,-2.1482,-2.1607,-2.1696,-2.1696,-2.1696,-2.1696,-2.1696,-2.1696,-2.165,-2.1475,-2.1264,-2.1071,-2.0851,-2.0383,-1.9893,-1.9893,-1.9622,-1.9301,-1.9301,-1.9301,-1.9301,-1.9301,-1.9301,-1.9301,-1.9301,-1.9478,-1.9606,-1.9606,-1.9754,-1.9846,-1.9657,-1.9439,-1.908,-1.8502,-1.829,-1.8206,-1.8197,-1.8317,-1.8519,-1.8921,-1.8664,-1.8462,-1.8462,-1.8529,-1.8519,-1.8519,-2.0128,-2.1083,-2.1083,-2.18,-2.1498,-2.0018,-2.0413,-2.0057,-1.8987,-1.8987,-1.9013,-1.9078,-1.9078,-1.9131,-0.3197,-0.3234,-0.3358,-0.3834,0.0,-0.5003,-0.5628,0.0,0.0,0.0,0.0,0.0,0.0,0.0,0.0,0.0,0.0,0.0,0.0,0.0,0.0,0.0,0.0,0.0,0.0,0.0,0.0,0.0,0.0,0.0,0.0,0.0,-1.6687,-1.6915,-1.7902,-1.8934,-1.9957,-1.9401,-1.9538,-2.0292,-2.0292,-2.0292,-2.0292,-2.0292,-2.0292,-2.0292,-2.0292,-2.0473,-2.0699,-2.0744,-2.1015,-2.1392,-2.1437,-2.1562,-2.1696,-2.1696,-2.1696,-2.1696,-2.1696,-2.1632,-2.1495,-2.1209,-2.0979,-2.0778,-2.0466,-2.0058,-1.9747,-1.9747,-1.9549,-1.9301,-1.9301,-1.9301,-1.9301,-1.9301,-1.9301,-1.9301,-1.9301,-1.9429,-1.9518,-1.9518,-1.9666,-1.9745,-1.9745,-1.9483,-1.9174,-1.8751,-1.8483,-1.8209,-1.7849,-1.7886,-1.794,-1.7974,-1.8008,-1.8008,-1.8008,-1.8462,-1.8811,-1.8977,-1.954,-1.9933,-2.0096,-2.1146,-2.0954,-1.9346,-1.9866,-1.9639,-1.8575,-1.8709,-1.8789,-1.8789,-1.8934,-1.8987,-0.3324,-0.339,-0.3552,-0.4271,-0.4079,0.0,-0.5106,-0.5312,0.0,0.0,0.0,0.0,0.0,0.0,0.0,0.0,0.0,0.0,0.0,0.0,0.0,0.0,0.0,0.0,0.0,0.0,0.0,0.0,0.0,0.0,0.0,0.0,0.0,-1.5893,-1.6875,-1.7902,-1.8888,-1.9774,-2.0246,-2.0292,-2.0292,-2.0292,-2.0292,-2.0292,-2.0292,-2.0292,-2.0292,-2.0473,-2.0699,-2.0916,-2.115,-2.1446,-2.1607,-2.1696,-2.1696,-2.1696,-2.1696,-2.1696,-2.1696,-2.1484,-2.1145,-2.1117,-2.0613,-1.9966,-1.9939,-1.9677,-1.9347,-1.9347,-1.932,-1.9301,-1.9301,-1.9301,-1.9301,-1.9301,-1.9301,-1.9301,-1.9301,-1.9301,-1.9301,-1.9301,-1.9341,-1.9341,-1.9341,-1.9313,-1.9166,-1.8762,-1.8508,-1.832,-1.8086,-1.7862,-1.7784,-1.7974,-1.8008,-1.8008,-1.8008,-1.8042,-1.8327,-1.8944,-1.9044,-1.9408,-2.0063,-2.0204,-1.9786,-1.8769,-1.8808,-1.8342,-1.7341,-1.7902,-1.8147,-1.8174,-1.8735,-1.8987,-0.3218,-0.3343,-0.3484,-0.3853,-0.3863,0.0,0.0,0.0,0.0,0.0,0.0,0.0,0.0,0.0,0.0,0.0,0.0,0.0,0.0,0.0,0.0,0.0,0.0,0.0,0.0,0.0,0.0,0.0,0.0,0.0,0.0,0.0,0.0,-1.5798,-1.617,-1.7156,-1.8788,-1.8557,-1.9072,-2.0292,-2.0292,-2.0292,-2.0292,-2.0292,-2.0292,-2.0292,-2.0292,-2.0382,-2.0473,-2.069,-2.0961,-2.1186,-2.1553,-2.1696,-2.1696,-2.1696,-2.1696,-2.165,-2.1394,-2.1236,-2.1025,-2.0539,-2.0131,-1.9838,-1.9622,-1.943,-1.9301,-1.9301,-1.9301,-1.9301,-1.9301,-1.9301,-1.9301,-1.9301,-1.9301,-1.9301,-1.9301,-1.9301,-1.9301,-1.9301,-1.9301,-1.9301,-1.9301,-1.9301,-1.9081,-1.8449,-1.836,-1.82,-1.7624,-1.7546,-1.7623,-1.7784,-1.7818,-1.7862,-1.7974,-1.7896,-1.7954,-1.8361,-1.8787,-1.9144,-1.9408,-1.9868,-1.9566,-1.8459,-1.8626,-1.8348,-1.7649,-1.7567,-1.7534,-1.7562,-1.8147,-1.8429,-0.3183,-0.3308,-0.343,0.0,0.0,0.0,0.0,0.0,0.0,0.0,0.0,0.0,0.0,0.0,0.0,0.0,0.0,0.0,0.0,0.0,0.0,0.0,0.0,0.0,0.0,0.0,0.0,0.0,0.0,0.0,0.0,0.0,0.0,0.0,-1.5571,-1.6352,-1.8054,-1.7675,-1.8137,-1.9513,-1.9798,-2.0061,-2.0292,-2.0292,-2.0292,-2.0292,-2.0292,-2.0337,-2.0419,-2.0478,-2.0695,-2.0962,-2.1418,-2.1651,-2.1696,-2.1696,-2.1604,-2.1449,-2.1209,-2.0943,-2.0649,-2.0067,-1.9802,-1.9677,-1.9393,-1.9301,-1.9301,-1.9301,-1.9301,-1.9301,-1.9301,-1.9301,-1.9301,-1.9301,-1.9301,-1.9301,-1.9301,-1.9301,-1.9301,-1.9301,-1.9301,-1.9301,-1.9301,-1.9201,-1.8935,-1.8356,-1.8239,-1.8005,-1.7472,-1.7442,-1.7529,-1.7613,-1.7647,-1.7691,-1.7837,-1.7725,-1.7725,-1.7896,-1.8351,-1.861,-1.8687,-1.9187,-1.8979,-1.8025,-1.8218,-1.7983,-1.732,-1.7194,-1.7073,-1.6922,-1.7727,-1.8093,-0.3226,-0.3308,0.0,0.0,0.0,0.0,0.0,0.0,0.0,0.0,0.0,0.0,0.0,0.0,0.0,0.0,0.0,0.0,0.0,0.0,0.0,0.0,0.0,0.0,0.0,0.0,0.0,0.0,0.0,0.0,0.0,0.0,0.0,0.0,-1.4981,-1.5466,-1.6477,-1.7347,-1.7775,-1.7818,-1.8724,-1.9564,-2.0283,-2.0283,-2.0283,-2.0283,-2.0283,-2.0464,-2.0656,-2.0244,-2.0395,-2.0815,-2.123,-2.1517,-2.1678,-2.1678,-2.1412,-2.1099,-2.1099,-2.0585,-1.9893,-1.9884,-1.96,-1.9301,-1.9301,-1.9301,-1.9301,-1.9301,-1.9301,-1.9301,-1.9301,-1.9301,-1.9301,-1.9301,-1.9301,-1.9301,-1.9301,-1.9301,-1.9301,-1.9301,-1.9301,-1.9301,-1.9301,-1.8971,-1.8715,-1.8705,-1.8184,-1.781,-1.78,-1.7621,-1.7505,-1.7505,-1.7505,-1.7505,-1.7505,-1.7505,-1.7564,-1.7672,-1.7706,-1.7784,-1.7974,-1.8008,-1.7812,-1.7393,-1.7383,-1.6975,-1.6105,-1.6707,-1.6757,-1.6312,-1.7534,-1.8093,-0.3226,0.0,0.0,0.0,0.0,0.0,0.0,0.0,0.0,0.0,0.0,0.0,0.0,0.0,0.0,0.0,0.0,0.0,0.0,0.0,0.0,0.0,0.0,0.0,0.0,0.0,0.0,0.0,0.0,0.0,0.0,0.0,0.0,0.0,-1.396,-1.445,-1.5421,-1.5725,-1.6507,-1.7818,-1.8094,-1.8702,-1.9548,-1.9548,-1.9548,-1.9548,-1.9548,-1.9548,-1.9687,-1.9983,-2.014,-2.0229,-2.0596,-2.0709,-2.063,-2.063,-2.0677,-2.0649,-2.0332,-2.0085,-1.9838,-1.9586,-1.9402,-1.9301,-1.9301,-1.9301,-1.9301,-1.9301,-1.9301,-1.9301,-1.9301,-1.9301,-1.9301,-1.9301,-1.9301,-1.9301,-1.9301,-1.9301,-1.9301,-1.9301,-1.9301,-1.9301,-1.9301,-1.9201,-1.8935,-1.8347,-1.8137,-1.7806,-1.7235,-1.726,-1.7279,-1.7279,-1.7279,-1.7358,-1.7505,-1.7358,-1.7407,-1.7672,-1.7706,-1.7784,-1.7974,-1.8008,-1.7949,-1.7822,-1.7529,-1.71,-1.6533,-1.6425,-1.6128,-1.569,-1.6472,-1.6838,-0.3285,0.0,0.0,0.0,0.0,0.0,0.0,0.0,0.0,0.0,0.0,0.0,0.0,0.0,0.0,0.0,0.0,0.0,0.0,0.0,0.0,0.0,0.0,0.0,0.0,0.0,0.0,0.0,0.0,0.0,0.0,0.0,0.0,0.0,-1.3194,-1.3453,-1.4057,-1.4445,-1.5179,-1.6286,-1.6687,-1.7121,-1.7697,-1.8726,-1.9213,-1.9213,-1.9213,-1.9127,-1.9016,-1.9531,-1.9677,-1.9574,-1.9962,-2.01,-2.0065,-2.0065,-2.0126,-2.0121,-1.9875,-1.9734,-1.9641,-1.9384,-1.9301,-1.9301,-1.9301,-1.9301,-1.9301,-1.9301,-1.9301,-1.9301,-1.9301,-1.9301,-1.9301,-1.9301,-1.9301,-1.9301,-1.9301,-1.9301,-1.9301,-1.9301,-1.9301,-1.9301,-1.9301,-1.9036,-1.8669,-1.8155,-1.7816,-1.7458,-1.6972,-1.7003,-1.7072,-1.7072,-1.7072,-1.7141,-1.7254,-1.7151,-1.7201,-1.7467,-1.7579,-1.7691,-1.7862,-1.7974,-1.8008,-1.8008,-1.7764,-1.7334,-1.6697,-1.6465,-1.6006,-1.541,-1.6026,-1.6312,0.0,0.0,0.0,0.0,0.0,0.0,0.0,0.0,0.0,0.0,0.0,0.0,0.0,0.0,0.0,0.0,0.0,0.0,0.0,0.0,0.0,0.0,0.0,0.0,0.0,0.0,0.0,0.0,0.0,0.0,0.0,0.0,0.0,0.0,-1.2705,-1.2705,-1.2705,-1.3499,-1.3915,0.0,-1.4845,-1.5311,-1.5499,-1.7891,-1.9025,-1.9067,-1.9067,-1.887,-1.8562,-1.8998,-1.9074,-1.8937,-1.9303,-1.9553,-1.9771,-1.9771,-1.9674,-1.9525,-1.9525,-1.9412,-1.9262,-1.9262,-1.9301,-1.9301,-1.9301,-1.9301,-1.9301,-1.9301,-1.9301,-1.9301,-1.9301,-1.9301,-1.9301,-1.9301,-1.9301,-1.9301,-1.9301,-1.9301,-1.9301,-1.9301,-1.9301,-1.9292,-1.9256,-1.865,-1.8118,-1.8082,-1.7403,-1.6908,-1.6908,-1.6908,-1.6908,-1.6908,-1.6908,-1.6908,-1.6908,-1.6908,-1.7003,-1.7201,-1.7358,-1.7529,-1.7672,-1.7896,-1.8008,-1.8008,-1.8008,-1.7574,-1.6755,-1.6716,-1.6268,-1.5469,-1.5989,-1.6226,0.0,0.0,0.0,0.0,0.0,0.0,0.0,0.0,0.0,0.0,0.0,0.0,0.0,0.0,0.0,0.0,0.0,0.0,0.0,0.0,0.0,0.0,0.0,0.0,0.0,0.0,0.0,0.0,0.0,0.0,0.0,0.0,0.0,-1.2705,-1.2705,-1.2705,-1.2705,-1.2869,-1.333,0.0,-1.421,-1.4678,-1.5443,-1.6692,-1.7598,-1.828,-1.828,-1.8196,-1.8145,-1.8562,-1.8535,-1.8243,-1.8645,-1.8776,-1.8719,-1.8719,-1.8797,-1.8896,-1.8896,-1.8954,-1.9073,-1.9073,-1.9152,-1.9301,-1.9301,-1.9301,-1.9301,-1.9301,-1.9301,-1.9301,-1.9301,-1.9301,-1.9301,-1.9301,-1.9301,-1.9301,-1.9301,-1.9301,-1.9301,-1.9301,-1.9301,-1.9201,-1.8889,-1.8696,-1.8366,-1.7724,-1.7211,-1.6908,-1.6908,-1.6908,-1.6908,-1.6908,-1.6908,-1.6908,-1.6908,-1.6908,-1.7003,-1.7201,-1.7245,-1.7407,-1.7672,-1.7896,-1.8008,-1.8008,-1.8008,-1.7754,-1.7246,-1.6863,-1.6455,-1.5948,-1.5713,-1.5575,0.0,0.0,0.0,0.0,0.0,0.0,0.0,0.0,0.0,0.0,0.0,0.0,0.0,0.0,0.0,0.0,0.0,0.0,0.0,0.0,0.0,0.0,0.0,0.0,0.0,0.0,0.0,0.0,0.0,0.0,0.0,-1.2203,-1.2283,-1.2534,-1.2662,-1.2705,-1.2705,-1.2705,-1.2912,-1.3372,-1.3372,-1.3837,-1.4761,-1.5677,-1.6542,-1.7367,-1.7367,-1.7619,-1.8017,-1.8245,-1.817,-1.8017,-1.8245,-1.8293,-1.8201,-1.8201,-1.8362,-1.8571,-1.866,-1.8812,-1.9002,-1.9112,-1.9222,-1.9301,-1.9301,-1.9301,-1.9301,-1.9301,-1.9301,-1.9301,-1.9301,-1.9301,-1.9301,-1.9301,-1.9301,-1.9301,-1.9301,-1.9301,-1.9301,-1.9301,-1.9301,-1.9173,-1.8779,-1.8394,-1.7926,-1.7303,-1.7037,-1.6908,-1.6908,-1.6908,-1.6908,-1.6908,-1.6908,-1.6908,-1.6908,-1.6908,-1.6934,-1.7038,-1.7141,-1.727,-1.7432,-1.7657,-1.7847,-1.8008,-1.8008,-1.7803,-1.7383,-1.7148,-1.6816,-1.6377,-1.5928,-1.5723,0.0,0.0,0.0,0.0,0.0,0.0,0.0,0.0,0.0,0.0,0.0,0.0,0.0,0.0,0.0,0.0,0.0,0.0,0.0,0.0,0.0,0.0,0.0,0.0,0.0,0.0,0.0,0.0,0.0,0.0,-1.1827,-1.2028,-1.2191,-1.2276,-1.2487,-1.2596,-1.2638,-1.2681,-1.2705,-1.2705,-1.2705,-1.3082,-1.3795,-1.4594,-1.5511,-1.6494,-1.6494,-1.687,-1.7538,-1.77,-1.7789,-1.7789,-1.7951,-1.8,-1.8,-1.8,-1.8161,-1.8362,-1.8531,-1.8732,-1.8913,-1.9103,-1.9183,-1.9192,-1.9192,-1.9222,-1.9262,-1.9262,-1.9262,-1.9301,-1.9301,-1.9301,-1.9301,-1.9301,-1.9301,-1.9301,-1.9301,-1.9301,-1.9301,-1.9301,-1.9246,-1.9072,-1.8678,-1.799,-1.7358,-1.6963,-1.6908,-1.6908,-1.6908,-1.6908,-1.6908,-1.6908,-1.6908,-1.6908,-1.6908,-1.6908,-1.6908,-1.6908,-1.7072,-1.7166,-1.7201,-1.7358,-1.7598,-1.7915,-1.794,-1.7798,-1.749,-1.7422,-1.7197,-1.6804,-1.6387,-1.6212,0.0,0.0,0.0,0.0,0.0,0.0,0.0,0.0,0.0,0.0,0.0,0.0,0.0,0.0,0.0,0.0,0.0,0.0,0.0,0.0,0.0,0.0,0.0,0.0,0.0,0.0,0.0,0.0,0.0,0.0,-1.1102,-1.1183,-1.134,-1.1705,-1.1958,-1.22,-1.2367,-1.259,-1.2705,-1.2705,-1.2705,-1.2747,-1.2869,-1.2997,-1.3964,-1.556,-1.556,-1.5636,-1.5809,-1.6542,-1.6862,-1.6944,-1.77,-1.8,-1.8,-1.8,-1.804,-1.808,-1.808,-1.8282,-1.8482,-1.8514,-1.8643,-1.8772,-1.8772,-1.8891,-1.9033,-1.9033,-1.9152,-1.9301,-1.9301,-1.9301,-1.9301,-1.9301,-1.9301,-1.9301,-1.9301,-1.9301,-1.9301,-1.9301,-1.9026,-1.8669,-1.8228,-1.7807,-1.7358,-1.6963,-1.6908,-1.6908,-1.6908,-1.6908,-1.6908,-1.6908,-1.6908,-1.6908,-1.6908,-1.6908,-1.6908,-1.6908,-1.6943,-1.7003,-1.7201,-1.7235,-1.7348,-1.7573,-1.7691,-1.7799,-1.793,-1.7559,-1.7353,-1.7285,-1.6814,-1.6609,0.0,0.0,0.0,0.0,0.0,0.0,0.0,0.0,0.0,0.0,0.0,0.0,0.0,0.0,0.0,0.0,0.0,0.0,0.0,0.0,0.0,0.0,0.0,0.0,0.0,0.0,0.0,0.0,0.0,-1.0638,-1.0759,-1.0921,-1.1082,-1.1243,-1.1468,-1.1688,-1.1892,-1.2189,-1.2433,-1.2705,-1.2705,-1.2705,-1.2705,-1.2705,-1.3421,-1.4636,-1.4636,-1.4929,-1.5436,-1.5801,-1.5966,-1.6008,-1.6378,-1.655,-1.655,-1.655,-1.655,-1.655,-1.6665,-1.678,-1.6903,-1.7017,-1.7131,-1.731,-1.7813,-1.8023,-1.8224,-1.8683,-1.8891,-1.8962,-1.8962,-1.9042,-1.9112,-1.9112,-1.9222,-1.9301,-1.9301,-1.9301,-1.9301,-1.9301,-1.8981,-1.8586,-1.8155,-1.777,-1.7358,-1.6963,-1.6908,-1.6908,-1.6908,-1.6908,-1.6908,-1.6908,-1.6908,-1.6908,-1.6908,-1.6908,-1.6908,-1.6908,-1.6908,-1.6934,-1.7038,-1.7038,-1.7141,-1.7314,-1.7486,-1.7657,-1.7828,-1.7634,-1.7624,-1.7725,-1.7295,-1.71,0.0,0.0,0.0,0.0,0.0,0.0,0.0,0.0,0.0,0.0,0.0,0.0,0.0,0.0,0.0,0.0,0.0,0.0,0.0,0.0,0.0,0.0,0.0,0.0,0.0,0.0,0.0,0.0,0.0,-1.041,-1.041,-1.0614,-1.0733,-1.0818,-1.1027,-1.1227,-1.1426,-1.1758,-1.2106,-1.2506,-1.2572,-1.2608,-1.2608,-1.2674,-1.3039,-1.3669,-1.3669,-1.409,-1.472,-1.4929,-1.5054,-1.5054,-1.5311,-1.5394,-1.5394,-1.5394,-1.5394,-1.5436,-1.5587,-1.5621,-1.5662,-1.5812,-1.5854,-1.5977,-1.669,-1.6944,-1.7107,-1.774,-1.7983,-1.8023,-1.8023,-1.8135,-1.8247,-1.8247,-1.8407,-1.8687,-1.9183,-1.9301,-1.9301,-1.9301,-1.9063,-1.8742,-1.8301,-1.8009,-1.7633,-1.7128,-1.7055,-1.7018,-1.6917,-1.6908,-1.6908,-1.6908,-1.6908,-1.6908,-1.6908,-1.6908,-1.6908,-1.6908,-1.6908,-1.6908,-1.6908,-1.6908,-1.6968,-1.7132,-1.7289,-1.7461,-1.7647,-1.7647,-1.7725,-1.7872,-1.7585,-1.7463,0.0,0.0,0.0,0.0,0.0,0.0,0.0,0.0,0.0,0.0,0.0,0.0,0.0,0.0,0.0,0.0,0.0,0.0,0.0,0.0,0.0,0.0,0.0,0.0,0.0,0.0,0.0,0.0,0.0,-0.9922,-0.9922,-0.996,-1.0035,-1.0257,-1.0517,-1.0723,-1.0935,-1.1374,-1.1749,-1.1922,-1.2216,-1.233,-1.2343,-1.259,-1.2705,-1.279,-1.279,-1.279,-1.2912,-1.3711,-1.4084,-1.4168,-1.5054,-1.5394,-1.5394,-1.5394,-1.5394,-1.5394,-1.5394,-1.5436,-1.5436,-1.5436,-1.5436,-1.5436,-1.5477,-1.5628,-1.5779,-1.582,-1.5977,-1.6126,-1.6126,-1.6167,-1.6167,-1.6167,-1.6347,-1.705,-1.8895,-1.9301,-1.9301,-1.9301,-1.9283,-1.9146,-1.8751,-1.8669,-1.8375,-1.7587,-1.7468,-1.733,-1.6954,-1.6908,-1.6908,-1.6908,-1.6908,-1.6908,-1.6908,-1.6908,-1.6908,-1.6908,-1.6908,-1.6908,-1.6908,-1.6908,-1.6908,-1.6908,-1.6943,-1.7116,-1.7505,-1.7505,-1.7505,-1.7539,-1.7628,-1.7677,0.0,0.0,0.0,0.0,0.0,0.0,0.0,0.0,0.0,0.0,0.0,0.0,0.0,0.0,0.0,0.0,0.0,0.0,0.0,0.0,0.0,0.0,0.0,0.0,0.0,0.0,0.0,0.0,0.0,0.0,-0.9122,-0.9614,-0.9922,-0.9992,-1.0111,-1.0346,-1.0701,-1.0992,-1.1282,-1.1525,-1.1734,-1.1856,-1.1868,-1.2248,-1.2451,-1.2463,-1.2632,-1.2705,-1.2705,-1.3039,-1.3167,-1.3209,-1.3548,-1.3669,-1.3669,-1.3669,-1.3669,-1.3669,-1.3669,-1.3669,-1.3669,-1.3669,-1.3669,-1.3753,-1.4342,-1.4545,-1.4747,-1.5338,-1.5545,-1.5621,-1.5621,-1.5827,-1.6067,-1.6396,-1.6519,-1.6935,-1.8198,-1.8487,-1.8487,-1.8487,-1.8935,-1.9173,-1.8779,-1.8715,-1.8522,-1.7981,-1.7669,-1.744,-1.7303,-1.7064,-1.6908,-1.6908,-1.6908,-1.6908,-1.6908,-1.6908,-1.6908,-1.6908,-1.6908,-1.6908,-1.6908,-1.6908,-1.6908,-1.6908,-1.6908,-1.7038,-1.7314,-1.7314,-1.7358,-1.7505,-1.7564,-1.7564,-0.195,0.0,0.0,0.0,0.0,0.0,0.0,0.0,0.0,0.0,0.0,0.0,0.0,0.0,0.0,0.0,0.0,0.0,0.0,0.0,0.0,0.0,0.0,0.0,0.0,0.0,0.0,0.0,0.0,0.0,-0.8699,-0.9198,-0.9614,-0.9879,-0.9884,-1.0068,-1.0456,-1.0583,-1.0784,-1.1027,-1.1271,-1.1397,-1.1482,-1.1897,-1.2152,-1.2324,-1.2499,-1.262,-1.2705,-1.2705,-1.2705,-1.2705,-1.2705,-1.2705,-1.2705,-1.2705,-1.2705,-1.2705,-1.2705,-1.2705,-1.2705,-1.2705,-1.2705,-1.2833,-1.3372,-1.3542,-1.3711,-1.43,-1.4468,-1.4468,-1.4468,-1.4671,-1.4998,-1.5413,-1.5496,-1.5662,-1.6314,-1.7261,-1.8078,-1.8359,-1.8895,-1.9219,-1.8953,-1.8907,-1.8733,-1.8164,-1.7889,-1.7605,-1.733,-1.7064,-1.6908,-1.6908,-1.6908,-1.6908,-1.6908,-1.6908,-1.6908,-1.6908,-1.6908,-1.6908,-1.6908,-1.6908,-1.6908,-1.6908,-1.6908,-1.6978,-1.7107,-1.7107,-1.7176,-1.7298,-1.7358,-1.7426,0.0,0.0,0.0,0.0,0.0,0.0,0.0,0.0,0.0,0.0,0.0,0.0,0.0,0.0,0.0,0.0,0.0,0.0,0.0,0.0,0.0,0.0,0.0,0.0,0.0,0.0,0.0,0.0,0.0,-0.7812,-0.8623,-0.8703,-0.9084,-0.9884,-0.9884,-0.9992,-1.018,-1.018,-1.0293,-1.0481,-1.0737,-1.0979,-1.1179,-1.1436,-1.185,-1.2288,-1.2265,-1.2457,-1.2693,-1.2699,-1.2705,-1.2705,-1.2705,-1.2705,-1.2705,-1.2705,-1.2705,-1.2705,-1.2705,-1.2705,-1.2705,-1.2705,-1.2705,-1.2705,-1.2705,-1.2705,-1.2705,-1.2705,-1.2705,-1.2705,-1.2705,-1.2705,-1.279,-1.3052,-1.31,-1.3185,-1.3392,-1.5779,-1.8158,-1.9015,-1.9213,-1.9262,-1.9262,-1.9301,-1.9036,-1.8228,-1.81,-1.7798,-1.7027,-1.6908,-1.6908,-1.6908,-1.6908,-1.6908,-1.6908,-1.6908,-1.6908,-1.6908,-1.6908,-1.6908,-1.6908,-1.6908,-1.6908,-1.6908,-1.6908,-1.6908,-1.6908,-1.6908,-1.6908,-1.6908,-1.7107,-1.7314,-0.188,0.0,0.0,0.0,0.0,0.0,0.0,0.0,0.0,0.0,0.0,0.0,0.0,0.0,0.0,0.0,0.0,0.0,0.0,0.0,0.0,0.0,0.0,0.0,0.0,0.0,0.0,0.0,-0.6089,-0.693,-0.777,-0.8922,-0.9652,-0.9884,-0.9884,-0.9916,-0.9992,-0.9992,-0.9992,-1.0073,-1.029,-1.0437,-1.0481,-1.0895,-1.1247,-1.1532,-1.1904,-1.223,-1.2439,-1.2626,-1.2705,-1.2705,-1.2705,-1.2705,-1.2705,-1.2705,-1.2705,-1.2705,-1.2705,-1.2705,-1.2705,-1.2705,-1.2705,-1.2705,-1.2705,-1.2705,-1.2705,-1.2705,-1.2705,-1.2747,-1.2924,-1.3009,-1.3052,-1.3264,-1.3313,-1.3512,-1.4168,-1.4991,-1.5854,-1.6723,-1.7472,-1.8135,-1.8763,-1.9002,-1.891,-1.8402,-1.8198,-1.7898,-1.7403,-1.7082,-1.6908,-1.6908,-1.6908,-1.6908,-1.6908,-1.6908,-1.6908,-1.6908,-1.6908,-1.6908,-1.6908,-1.6908,-1.6908,-1.6908,-1.6908,-1.6908,-1.6908,-1.6908,-1.6908,-1.6908,-1.6968,-1.7003,0.0,0.0,0.0,0.0,0.0,0.0,0.0,0.0,0.0,0.0,0.0,0.0,0.0,0.0,0.0,0.0,0.0,0.0,0.0,0.0,0.0,0.0,0.0,0.0,0.0,0.0,0.0,-0.486,-0.5312,-0.5968,-0.6859,-0.8495,-0.9387,-0.9387,-0.9728,-0.9884,-0.9884,-0.9884,-0.9884,-0.9922,-1.003,-1.0105,-1.0223,-1.0488,-1.0771,-1.1086,-1.1495,-1.181,-1.2051,-1.2391,-1.2608,-1.2705,-1.2705,-1.2705,-1.2705,-1.2705,-1.2705,-1.2705,-1.2705,-1.2705,-1.2705,-1.2705,-1.2705,-1.2705,-1.2705,-1.2705,-1.2705,-1.2705,-1.2705,-1.2747,-1.2875,-1.2924,-1.2966,-1.3094,-1.3094,-1.3258,-1.3747,-1.3866,-1.4287,-1.573,-1.6437,-1.6976,-1.7472,-1.7674,-1.762,-1.7218,-1.7239,-1.7046,-1.6308,-1.6208,-1.6193,-1.6193,-1.6263,-1.6438,-1.6751,-1.6839,-1.6908,-1.6908,-1.6908,-1.6908,-1.6908,-1.6908,-1.6908,-1.6908,-1.6908,-1.6908,-1.6908,-1.6908,-1.6908,-1.6908,-1.6908,-1.6908,0.0,0.0,0.0,0.0,0.0,0.0,0.0,-0.2693,0.0,0.0,0.0,0.0,0.0,0.0,0.0,0.0,0.0,0.0,0.0,0.0,0.0,0.0,0.0,0.0,0.0,-0.4668,-0.4676,-0.4687,-0.4798,-0.5207,-0.602,-0.7647,-0.859,-0.8666,-0.9372,-0.9803,-0.9884,-0.9884,-0.9884,-0.9884,-0.9884,-0.9992,-1.018,-1.018,-1.0422,-1.0834,-1.1051,-1.1274,-1.1542,-1.1998,-1.2379,-1.2662,-1.2693,-1.2705,-1.2705,-1.2705,-1.2705,-1.2705,-1.2705,-1.2705,-1.2705,-1.2705,-1.2705,-1.2705,-1.2705,-1.2705,-1.2705,-1.2705,-1.2705,-1.2705,-1.2705,-1.2705,-1.2705,-1.2705,-1.2705,-1.2705,-1.2705,-1.2705,-1.3281,-1.526,-1.5715,-1.5797,-1.5928,-1.5939,-1.5802,-1.5387,-1.5723,-1.561,-1.4492,-1.4756,-1.5089,-1.5089,-1.5223,-1.5604,-1.6245,-1.6542,-1.6726,-1.6726,-1.683,-1.6874,-1.6908,-1.6908,-1.6908,-1.6908,-1.6908,-1.6908,-1.6908,-1.6908,-1.6908,-1.6908,-1.6908,-1.6908,0.0,0.0,0.0,0.0,0.0,0.0,0.0,-0.2469,0.0,0.0,0.0,0.0,0.0,0.0,0.0,0.0,0.0,0.0,0.0,0.0,0.0,0.0,0.0,0.0,0.0,-0.4539,-0.458,-0.4681,-0.53,-0.5745,-0.5916,-0.6983,-0.7856,-0.8522,-0.8802,-0.9236,-0.9884,-0.9884,-0.9884,-0.9884,-0.9884,-0.9916,-0.9954,-0.9954,-1.0095,-1.0339,-1.0611,-1.0852,-1.1043,-1.1376,-1.1829,-1.2409,-1.262,-1.2705,-1.2705,-1.2705,-1.2705,-1.2705,-1.2705,-1.2705,-1.2705,-1.2705,-1.2705,-1.2705,-1.2705,-1.2705,-1.2705,-1.2705,-1.2705,-1.2705,-1.2705,-1.2705,-1.2705,-1.2705,-1.2705,-1.2705,-1.2705,-1.2705,-1.2833,-1.3239,-1.3909,-1.4622,-1.5379,-1.5487,-1.5308,-1.489,-1.4874,-1.4723,-1.4149,-1.4158,-1.4227,-1.4227,-1.4263,-1.4335,-1.4514,-1.5144,-1.5586,-1.5754,-1.6324,-1.6716,-1.6908,-1.6908,-1.6908,-1.6908,-1.6908,-1.6908,-1.6908,-1.6908,-1.6908,-1.6908,-1.6908,-1.6908,0.0,0.0,0.0,-0.2594,0.0,0.0,0.0,0.0,0.0,0.0,0.0,0.0,0.0,0.0,0.0,0.0,0.0,0.0,0.0,0.0,0.0,0.0,0.0,0.0,0.0,-0.418,-0.4306,-0.4471,-0.495,-0.5197,-0.5197,-0.6082,-0.6822,-0.727,-0.7742,-0.8407,-0.9311,-0.9311,-0.9501,-0.9884,-0.9884,-0.9884,-0.9884,-0.9884,-0.9954,-1.0073,-1.0307,-1.0478,-1.0582,-1.0953,-1.1364,-1.1858,-1.22,-1.2505,-1.2705,-1.2705,-1.2705,-1.2705,-1.2705,-1.2705,-1.2705,-1.2705,-1.2705,-1.2705,-1.2705,-1.2705,-1.2705,-1.2705,-1.2705,-1.2705,-1.2705,-1.2705,-1.2705,-1.2705,-1.2705,-1.2705,-1.2705,-1.2705,-1.2705,-1.2705,-1.3039,-1.3455,-1.382,-1.3831,-1.3703,-1.3358,-1.3484,-1.3422,-1.2818,-1.3,-1.3157,-1.3157,-1.3259,-1.3433,-1.3803,-1.4681,-1.5232,-1.533,-1.6044,-1.6508,-1.6586,-1.6691,-1.6795,-1.6908,-1.6908,-1.6908,-1.6908,-1.6908,-1.6908,-1.6908,-1.6908,-1.6908,0.0,0.0,0.0,0.0,0.0,-0.2679,0.0,0.0,0.0,0.0,0.0,0.0,0.0,0.0,0.0,0.0,0.0,0.0,0.0,0.0,0.0,0.0,0.0,0.0,0.0,-0.3764,-0.3982,-0.4196,-0.4294,-0.4387,-0.4468,-0.522,-0.5741,-0.6002,-0.684,-0.765,-0.841,-0.8604,-0.9046,-0.9652,-0.9652,-0.9765,-0.9884,-0.9884,-0.9884,-0.9922,-1.0067,-1.0143,-1.0159,-1.0555,-1.0937,-1.1307,-1.1758,-1.2182,-1.2577,-1.2619,-1.2619,-1.2662,-1.2705,-1.2705,-1.2705,-1.2705,-1.2705,-1.2705,-1.2705,-1.2705,-1.2705,-1.2705,-1.2705,-1.2705,-1.2705,-1.2705,-1.2705,-1.2705,-1.2705,-1.2705,-1.2705,-1.2705,-1.2705,-1.2705,-1.2705,-1.2638,-1.2421,-1.2343,-1.224,-1.2029,-1.2315,-1.2325,-1.1645,-1.1898,-1.2168,-1.2168,-1.2251,-1.2535,-1.3157,-1.4222,-1.4875,-1.4911,-1.5771,-1.6272,-1.6307,-1.6508,-1.6682,-1.6908,-1.6908,-1.6908,-1.6908,-1.6908,-1.6908,-1.6908,-1.6908,-1.6908,0.0,0.0,0.0,0.0,-0.293,0.0,0.0,0.0,0.0,0.0,0.0,0.0,0.0,0.0,0.0,0.0,0.0,0.0,0.0,0.0,0.0,0.0,0.0,0.0,0.0,0.0,-0.3605,-0.3929,-0.389,-0.3993,-0.4308,-0.4531,-0.4984,-0.5728,-0.6756,-0.7368,-0.7463,-0.827,-0.8742,-0.8856,-0.8856,-0.9198,-0.9884,-0.9884,-0.9884,-0.9922,-0.9916,-0.9922,-0.9922,-0.9987,-1.0423,-1.1064,-1.1558,-1.1893,-1.2123,-1.2369,-1.2448,-1.2448,-1.2619,-1.2705,-1.2705,-1.2705,-1.2705,-1.2705,-1.2705,-1.2705,-1.2705,-1.2705,-1.2705,-1.2705,-1.2705,-1.2705,-1.2705,-1.2705,-1.2705,-1.2705,-1.2705,-1.2705,-1.2705,-1.2705,-1.2705,-1.2693,-1.2662,-1.2469,-1.23,-1.2276,-1.2087,-1.1958,-1.1878,-1.1688,-1.1601,-1.1601,-1.1407,-1.1292,-1.1403,-1.2799,-1.3753,-1.3854,-1.5303,-1.6167,-1.6307,-1.6508,-1.6682,-1.6908,-1.6908,-1.6908,-1.6908,-1.6908,-1.6908,-1.6908,-1.6908,-1.6908,0.0,0.0,0.0,0.0,0.0,0.0,0.0,0.0,-0.1055,0.0,0.0,0.0,0.0,0.0,0.0,0.0,0.0,0.0,0.0,0.0,0.0,0.0,0.0,0.0,0.0,0.0,0.0,0.0,0.0,-0.3725,-0.4048,-0.4106,-0.4428,-0.4982,-0.5448,-0.5988,-0.6611,-0.6978,-0.748,-0.8003,-0.8003,-0.8194,-0.8537,-0.9003,-0.9198,-0.9236,-0.969,-0.9884,-0.9884,-0.9884,-1.0165,-1.0619,-1.0935,-1.1433,-1.1995,-1.2123,-1.2283,-1.2406,-1.2332,-1.2454,-1.2705,-1.2705,-1.2705,-1.2705,-1.2705,-1.2705,-1.2705,-1.2705,-1.2705,-1.2705,-1.2705,-1.2705,-1.2705,-1.2705,-1.2705,-1.2705,-1.2705,-1.2705,-1.2705,-1.2705,-1.2705,-1.2705,-1.2705,-1.2487,-1.2264,-1.2107,-1.1952,-1.188,-1.188,-1.1657,-1.1549,-1.1706,-1.1333,-1.1178,-1.1303,-1.2249,-1.2849,-1.2879,-1.3962,-1.4903,-1.563,-1.5736,-1.6158,-1.6874,-1.6908,-1.6908,-1.6908,-1.6908,-1.6908,-1.6908,-1.6908,-1.6908,-0.3001,0.0,0.0,0.0,0.0,0.0,0.0,0.0,0.0,0.0,0.0,0.0,0.0,0.0,0.0,0.0,0.0,0.0,0.0,0.0,0.0,0.0,0.0,0.0,0.0,0.0,0.0,0.0,0.0,0.0,-0.377,-0.3874,-0.4031,-0.4334,-0.464,-0.5098,-0.5697,-0.5959,-0.6464,-0.7157,-0.7157,-0.7272,-0.7502,-0.8118,-0.8389,-0.8389,-0.8998,-0.9382,-0.9576,-0.9576,-0.9876,-1.0315,-1.0506,-1.1051,-1.1733,-1.1886,-1.2037,-1.2198,-1.2037,-1.2203,-1.2497,-1.2497,-1.2497,-1.2497,-1.2497,-1.2497,-1.2534,-1.2619,-1.2619,-1.2619,-1.2705,-1.2705,-1.2705,-1.2705,-1.2705,-1.2705,-1.2705,-1.2705,-1.2705,-1.2705,-1.2705,-1.2705,-1.2705,-1.2548,-1.2355,-1.2168,-1.2137,-1.2137,-1.2137,-1.1908,-1.1778,-1.2011,-1.1612,-1.1389,-1.1477,-1.2062,-1.2459,-1.2629,-1.3171,-1.3897,-1.476,-1.484,-1.5303,-1.6184,-1.6254,-1.6368,-1.6586,-1.6586,-1.6691,-1.6908,-1.6908,-1.6908,0.0,0.0,0.0,-0.2125,0.0,0.0,0.0,0.0,-0.0453,0.0,0.0,0.0,0.0,0.0,0.0,-0.071,0.0,0.0,0.0,0.0,0.0,0.0,0.0,0.0,0.0,0.0,0.0,0.0,0.0,0.0,-0.3501,-0.377,-0.3892,-0.3934,-0.5057,-0.537,-0.4765,-0.5654,-0.6167,-0.624,-0.624,-0.67,-0.7502,-0.754,-0.754,-0.754,-0.7579,-0.8003,-0.8742,-0.8742,-0.9371,-1.0315,-1.0506,-1.0783,-1.1109,-1.1525,-1.1699,-1.1742,-1.1957,-1.2,-1.2043,-1.2043,-1.2043,-1.2043,-1.2043,-1.2043,-1.208,-1.2326,-1.2406,-1.2448,-1.2662,-1.2705,-1.2705,-1.2705,-1.2705,-1.2705,-1.2705,-1.2705,-1.2705,-1.2705,-1.2705,-1.2705,-1.2705,-1.2699,-1.2687,-1.2681,-1.2681,-1.2681,-1.2681,-1.2451,-1.2288,-1.23,-1.2059,-1.176,-1.1513,-1.2235,-1.29,-1.3448,-1.3499,-1.3564,-1.3745,-1.3934,-1.4142,-1.4378,-1.4565,-1.5073,-1.5833,-1.5833,-1.6193,-1.6908,-1.6908,-1.6908,0.0,0.0,-0.0768,-0.1204,0.0,0.0,0.0,0.0,0.0,0.0,0.0,0.0,0.0,0.0,0.0557,0.0367,-0.0102,0.0,0.0,0.0,0.0,0.0,0.0,0.0,0.0,0.0,0.0,0.0,0.0,0.0,0.0,-0.335,-0.3593,-0.3887,-0.4337,-0.4622,-0.4687,-0.5016,-0.5259,-0.5401,-0.5401,-0.5553,-0.586,-0.6395,-0.6623,-0.6661,-0.7234,-0.7655,-0.7889,-0.7889,-0.8155,-0.859,-0.9475,-0.9894,-1.0159,-1.1086,-1.157,-1.1742,-1.1914,-1.1914,-1.1828,-1.1957,-1.2,-1.2,-1.2,-1.2,-1.2043,-1.2123,-1.2118,-1.2166,-1.2203,-1.2246,-1.2246,-1.2246,-1.2369,-1.2491,-1.2491,-1.2619,-1.2705,-1.2705,-1.2705,-1.2705,-1.2705,-1.2705,-1.2705,-1.2705,-1.2705,-1.2705,-1.2705,-1.2475,-1.2379,-1.2554,-1.2186,-1.1956,-1.2,-1.1963,-1.1979,-1.2144,-1.2026,-1.2248,-1.2938,-1.3047,-1.3404,-1.4083,-1.4307,-1.4522,-1.4816,-1.4922,-1.5144,-1.5392,-1.5392,-1.593,-0.0835,-0.0457,0.0,-0.0423,0.0103,0.0,0.0398,0.0,0.0,0.0,0.0,0.0,0.0,0.0,0.0,0.091,0.0447,0.0,0.0,0.0,0.0,0.0,0.0,0.0,0.0,0.0,-0.2515,-0.262,0.0,0.0,0.0,0.0,-0.3354,-0.3639,-0.3883,-0.4204,-0.4576,-0.4651,-0.4813,-0.5018,-0.5018,-0.5018,-0.5018,-0.5553,-0.5783,-0.5822,-0.6356,-0.6777,-0.7042,-0.7042,-0.7258,-0.7668,-0.8572,-0.8977,-0.9268,-1.078,-1.1397,-1.157,-1.1699,-1.1656,-1.157,-1.1699,-1.1742,-1.1742,-1.1742,-1.1742,-1.1785,-1.1871,-1.1871,-1.1914,-1.2,-1.2,-1.2,-1.2,-1.2118,-1.224,-1.224,-1.2369,-1.2454,-1.2454,-1.2454,-1.2454,-1.2454,-1.2454,-1.2497,-1.2662,-1.2705,-1.2705,-1.2705,-1.256,-1.2518,-1.2687,-1.2403,-1.2234,-1.2306,-1.1796,-1.1495,-1.1495,-1.1268,-1.1403,-1.2057,-1.2131,-1.2462,-1.307,-1.3259,-1.3513,-1.3803,-1.3991,-1.4243,-1.4494,-1.4565,-1.5144]}]]